[[{"header":{"parameterUnit":"m.s-1","parameterCategory":1,"la1":31.0,"la2":29.5877,"lo1":-88.7671,"lo2":-86.6584,"dy":0.0162,"dx":0.0185,"nx":115,"ny":88,"refTime":"2023-04-09T12:00:00:Z","depth":0,"parameterNumber":2,"parameterNumberName":"U-component_of_WINDS"},"data":[0.0,0.0,0.0,0.0,0.0,0.0,0.0,0.0,0.0,0.0,0.0,0.0,0.0,0.0,0.0,0.0,0.0,0.0,0.0,0.0,0.0,0.0,0.0,0.0,0.0,0.0,0.0,0.0,0.0,0.0,0.0,0.0,0.0,0.0,0.0,0.0,0.0,0.0,0.0,0.0,0.0,0.0,0.0,0.0,0.0,0.0,0.0,0.0,0.0,0.0,0.0,0.0,0.0,0.0,0.0,0.0,0.0,0.0,0.0,0.0,0.0,0.0,0.0,0.0,0.0,0.0,0.0,0.0,0.0,0.0,0.0,0.0,0.0,0.0,0.0,0.0,0.0,0.0,0.0,0.0,0.0,0.0,0.0,0.0,0.0,0.0,0.0,0.0,0.0,0.0,0.0,0.0,0.0,0.0,0.0,0.0,0.0,0.0,0.0,0.0,0.0,0.0,0.0,0.0,0.0,0.0,0.0,0.0,0.0,0.0,0.0,0.0,0.0,0.0,0.0,0.0,0.0,0.0,0.0,0.0,0.0,0.0,0.0,0.0,0.0,0.0,0.0,0.0,0.0,0.0,0.0,0.0,0.0,0.0,0.0,0.0,0.0,0.0,0.0,0.0,0.0,0.0,0.0,0.0,0.0,0.0,0.0,0.0,0.0,0.0,0.0,0.0,0.0,0.0,0.0,0.0,0.0,0.0,0.0,0.0,0.0,0.0,0.0,0.0,0.0,0.0,0.0,0.0,0.0,0.0,0.0,0.0,0.0,0.0,0.0,0.0,0.0,0.0,0.0,0.0,0.0,0.0,0.0,0.0,0.0,0.0,0.0,0.0,0.0,0.0,0.0,0.0,0.0,0.0,0.0,0.0,0.0,0.0,0.0,0.0,0.0,0.0,0.0,0.0,0.0,0.0,0.0,0.0,0.0,0.0,0.0,0.0,0.0,0.0,0.0,0.0,0.0,0.0,0.0,0.0,0.0,0.0,0.0,0.0,0.0,0.0,0.0,0.0,0.0,0.0,0.0,0.0,0.0,0.0,0.0,0.0,0.0,0.0,0.0,0.0,0.0,0.0,0.0,0.0,0.0,0.0,0.0,0.0,0.0,0.0,0.0,0.0,0.0,0.0,0.0,0.0,0.0,0.0,0.0,0.0,0.0,0.0,0.0,0.0,0.0,0.0,0.0,0.0,0.0,0.0,0.0,0.0,0.0,0.0,0.0,0.0,0.0,0.0,0.0,0.0,0.0,0.0,0.0,0.0,0.0,0.0,0.0,0.0,0.0,0.0,0.0,0.0,0.0,0.0,0.0,0.0,0.0,0.0,0.0,0.0,0.0,0.0,0.0,0.0,0.0,0.0,0.0,0.0,0.0,0.0,0.0,0.0,0.0,0.0,0.0,0.0,0.0,0.0,0.0,0.0,0.0,0.0,0.0,0.0,0.0,0.0,0.0,0.0,0.0,0.0,0.0,0.0,0.0,0.0,0.0,0.0,0.0,0.0,0.0,0.0,0.0,0.0,0.0,0.0,0.0,0.0,0.0,0.0,0.0,0.0,0.0,0.0,0.0,0.0,0.0,0.0,0.0,0.0,0.0,0.0,0.0,0.0,0.0,0.0,0.0,0.0,0.0,0.0,0.0,0.0,0.0,0.0,0.0,0.0,0.0,0.0,0.0,0.0,0.0,0.0,0.0,0.0,0.0,0.0,0.0,0.0,0.0,0.0,0.0,0.0,0.0,0.0,0.0,0.0,0.0,0.0,0.0,0.0,0.0,0.0,0.0,0.0,0.0,0.0,0.0,0.0,0.0,0.0,0.0,0.0,0.0,0.0,0.0,0.0,0.0,0.0,0.0,0.0,0.0,0.0,0.0,0.0,0.0,0.0,0.0,0.0,0.0,0.0,0.0,0.0,0.0,0.0,0.0,0.0,0.0,0.0,0.0,0.0,0.0,0.0,0.0,0.0,0.0,0.0,0.0,0.0,0.0,0.0,0.0,0.0,0.0,0.0,0.0,0.0,0.0,0.0,0.0,0.0,0.0,0.0,0.0,0.0,0.0,0.0,0.0,0.0,0.0,0.0,0.0,0.0,0.0,0.0,0.0,0.0,0.0,0.0,0.0,0.0,0.0,0.0,0.0,0.0,0.0,0.0,0.0,0.0,0.0,0.0,0.0,0.0,0.0,0.0,0.0,0.0,0.0,0.0,0.0,0.0,0.0,0.0,0.0,0.0,0.0,0.0,0.0,0.0,0.0,0.0,0.0,0.0,0.0,0.0,0.0,0.0,0.0,0.0,0.0,0.0,0.0,0.0,0.0,0.0,0.0,0.0,0.0,0.0,0.0,0.0,0.0,0.0,0.0,0.0,0.0,0.0,0.0,0.0,0.0,0.0,0.0,0.0,0.0,0.0,0.0,0.0,0.0,0.0,0.0,0.0,0.0,0.0,0.0,0.0,0.0,0.0,0.0,0.0,0.0,0.0,0.0,0.0,0.0,0.0,0.0,0.0,0.0,0.0,0.0,0.0,0.0,0.0,0.0,0.0,0.0,0.0,0.0,0.0,0.0,0.0,0.0,0.0,0.0,0.0,0.0,0.0,0.0,0.0,0.0,0.0,0.0,0.0,0.0,0.0,0.0,0.0,0.0,0.0,0.0,0.0,0.0,0.0,0.0,0.0,0.0,0.0,0.0,0.0,0.0,0.0,0.0,0.0,0.0,0.0,0.0,0.0,0.0,0.0,0.0,0.0,0.0,0.0,0.0,0.0,0.0,0.0,0.0,0.0,0.0,0.0,0.0,0.0,0.0,0.0,0.0,0.0,0.0,0.0,0.0,0.0,0.0,0.0,0.0,0.0,0.0,0.0,0.0,0.0,0.0,0.0,0.0,0.0,0.0,0.0,0.0,0.0,0.0,0.0,0.0,0.0,0.0,0.0,0.0,0.0,0.0,0.0,0.0,0.0,0.0,0.0,0.0,0.0,0.0,0.0,0.0,0.0,0.0,0.0,0.0,0.0,0.0,0.0,0.0,0.0,0.0,0.0,0.0,0.0,0.0,0.0,0.0,0.0,0.0,0.0,0.0,0.0,0.0,0.0,0.0,0.0,0.0,0.0,0.0,0.0,0.0,0.0,0.0,0.0,0.0,0.0,0.0,0.0,0.0,0.0,0.0,0.0,0.0,0.0,0.0,0.0,0.0,0.0,0.0,0.0,0.0,0.0,0.0,0.0,0.0,0.0,0.0,0.0,0.0,0.0,0.0,0.0,0.0,0.0,0.0,0.0,0.0,0.0,0.0,0.0,0.0,0.0,0.0,0.0,0.0,0.0,0.0,0.0,0.0,0.0,0.0,0.0,0.0,0.0,0.0,0.0,0.0,0.0,0.0,0.0,0.0,0.0,0.0,0.0,0.0,0.0,0.0,0.0,0.0,0.0,0.0,0.0,0.0,0.0,0.0,0.0,0.0,0.0,0.0,0.0,0.0,0.0,0.0,0.0,0.0,0.0,0.0,0.0,0.0,0.0,0.0,0.0,0.0,0.0,0.0,0.0,0.0,0.0,0.0,0.0,0.0,0.0,0.0,0.0,0.0,0.0,0.0,0.0,0.0,0.0,0.0,0.0,0.0,0.0,0.0,0.0,0.0,0.0,0.0,0.0,0.0,0.0,0.0,0.0,0.0,0.0,0.0,0.0,0.0,0.0,0.0,0.0,0.0,0.0,0.0,0.0,0.0,0.0,0.0,0.0,0.0,0.0,0.0,0.0,0.0,0.0,0.0,0.0,0.0,0.0,0.0,0.0,0.0,0.0,0.0,0.0,0.0,0.0,0.0,0.0,0.0,0.0,0.0,0.0,0.0,0.0,0.0,0.0,0.0,0.0,0.0,0.0,0.0,0.0,0.0,0.0,0.0,0.0,0.0,0.0,0.0,0.0,0.0,0.0,0.0,0.0,0.0,0.0,0.0,0.0,0.0,0.0,0.0,0.0,0.0,0.0,0.0,0.0,0.0,0.0,0.0,0.0,0.0,0.0,0.0,0.0,0.0,0.0,0.0,0.0,0.0,0.0,0.0,0.0,0.0,0.0,0.0,0.0,0.0,0.0,0.0,0.0,0.0,0.0,0.0,0.0,0.0,0.0,0.0,0.0,0.0,0.0,0.0,0.0,0.0,0.0,0.0,0.0,0.0,0.0,0.0,0.0,0.0,0.0,0.0,0.0,0.0,0.0,0.0,0.0,0.0,0.0,0.0,0.0,0.0,0.0,0.0,0.0,0.0,0.0,0.0,0.0,0.0,0.0,1.7665,0.0,0.0,0.0,0.0,0.0,0.0,0.0,0.0,0.0,0.0,0.0,0.0,0.0,0.0,0.0,0.0,0.0,0.0,0.0,0.0,0.0,0.0,0.0,0.0,0.0,0.0,0.0,0.0,0.0,0.0,0.0,0.0,0.0,0.0,0.0,0.0,0.0,0.0,0.0,0.0,0.0,0.0,0.0,0.0,0.0,0.0,0.0,0.0,0.0,0.0,0.0,0.0,0.0,0.0,0.0,0.0,0.0,0.0,0.0,0.0,0.0,0.0,0.0,0.0,0.0,0.0,0.0,0.0,0.0,0.0,0.0,0.0,0.0,0.0,0.0,0.0,0.0,0.0,0.0,0.0,0.0,0.0,0.0,0.0,0.0,0.0,0.0,0.0,0.0,0.0,0.0,0.0,0.0,0.0,0.0,0.0,0.0,0.0,0.0,0.0,0.0,0.0,0.0,0.0,0.0,0.0,0.0,0.0,0.0,0.0,1.876,1.8521,1.8731,1.86,1.8117,0.0,0.0,0.0,0.0,0.0,0.0,0.0,0.0,0.0,0.0,0.0,0.0,0.0,0.0,0.0,0.0,0.0,0.0,0.0,0.0,0.0,0.0,0.0,0.0,0.0,0.0,0.0,0.0,0.0,0.0,0.0,0.0,0.0,0.0,0.0,0.0,0.0,0.0,0.0,0.0,0.0,0.0,0.0,0.0,0.0,0.0,0.0,0.0,0.0,0.0,0.0,0.0,0.0,0.0,0.0,0.0,0.0,0.0,0.0,0.0,0.0,0.0,0.0,0.0,0.0,0.0,0.0,0.0,0.0,0.0,0.0,0.0,0.0,0.0,0.0,0.0,0.0,0.0,0.0,0.0,0.0,0.0,0.0,0.0,0.0,0.0,0.0,0.0,0.0,0.0,0.0,0.0,0.0,0.0,0.0,0.0,0.0,0.0,0.0,0.0,0.0,0.0,0.0,0.0,0.0,0.0,0.0,0.0,0.0,0.0,0.0,0.0,1.9291,1.9145,1.8717,0.0,0.0,0.0,0.0,0.0,0.0,0.0,0.0,0.0,0.0,0.0,0.0,0.0,0.0,0.0,0.0,0.0,0.0,0.0,0.0,0.0,0.0,0.0,0.0,0.0,0.0,0.0,0.0,0.0,0.0,0.0,0.0,0.0,0.0,0.0,0.0,0.0,0.0,0.0,0.0,0.0,0.0,0.0,0.0,0.0,0.0,0.0,0.0,0.0,0.0,0.0,0.0,0.0,0.0,0.0,0.0,0.0,0.0,0.0,0.0,0.0,0.0,0.0,0.0,0.0,0.0,0.0,0.0,0.0,0.0,0.0,0.0,0.0,0.0,0.0,0.0,0.0,0.0,0.0,0.0,0.0,0.0,0.0,0.0,0.0,0.0,0.0,0.0,0.0,0.0,0.0,0.0,0.0,0.0,0.0,0.0,0.0,0.0,0.0,0.0,0.0,0.0,0.0,0.0,0.0,0.0,0.0,0.0,0.0,0.0,1.9623,1.9231,1.9596,0.0,1.9494,0.0,0.0,0.0,0.0,0.0,0.0,0.0,0.0,0.0,0.0,0.0,0.0,0.0,0.0,0.0,0.0,0.0,0.0,0.0,0.0,0.0,0.0,0.0,0.0,0.0,0.0,0.0,0.0,0.0,0.0,0.0,0.0,0.0,0.0,0.0,0.0,0.0,0.0,0.0,0.0,0.0,0.0,0.0,0.0,0.0,0.0,0.0,0.0,0.0,0.0,0.0,0.0,0.0,0.0,0.0,0.0,0.0,0.0,0.0,0.0,0.0,0.0,0.0,0.0,0.0,0.0,0.0,0.0,0.0,0.0,0.0,0.0,0.0,0.0,0.0,0.0,0.0,0.0,0.0,0.0,0.0,0.0,0.0,0.0,0.0,0.0,0.0,0.0,0.0,0.0,0.0,0.0,0.0,0.0,0.0,0.0,0.0,0.0,0.0,0.0,0.0,0.0,0.0,0.0,0.0,0.0,0.0,0.0,0.0,0.0,2.016,2.0084,1.9858,1.9814,0.0,0.0,0.0,0.0,0.0,0.0,0.0,0.0,0.0,0.0,0.0,0.0,0.0,0.0,0.0,0.0,0.0,0.0,0.0,0.0,0.0,0.0,0.0,0.0,0.0,0.0,0.0,0.0,0.0,0.0,0.0,0.0,0.0,0.0,0.0,0.0,0.0,0.0,0.0,0.0,0.0,0.0,0.0,0.0,0.0,0.0,0.0,0.0,0.0,0.0,0.0,0.0,0.0,0.0,0.0,0.0,0.0,0.0,0.0,0.0,0.0,0.0,0.0,0.0,0.0,0.0,0.0,0.0,0.0,0.0,0.0,0.0,0.0,0.0,0.0,0.0,0.0,0.0,0.0,0.0,0.0,0.0,0.0,0.0,0.0,0.0,0.0,0.0,0.0,0.0,0.0,0.0,0.0,0.0,0.0,0.0,0.0,0.0,0.0,0.0,0.0,0.0,0.0,0.0,0.0,0.0,0.0,0.0,0.0,0.0,2.0841,2.0792,2.0891,2.0316,2.0135,2.0402,0.0,0.0,0.0,0.0,0.0,0.0,0.0,0.0,0.0,0.0,0.0,0.0,0.0,0.0,0.0,0.0,0.0,0.0,0.0,0.0,0.0,0.0,0.0,0.0,0.0,0.0,0.0,0.0,0.0,0.0,0.0,0.0,0.0,0.0,0.0,0.0,0.0,0.0,0.0,0.0,0.0,0.0,0.0,0.0,0.0,0.0,0.0,0.0,0.0,0.0,0.0,0.0,0.0,0.0,0.0,0.0,0.0,0.0,0.0,0.0,0.0,0.0,0.0,0.0,0.0,0.0,0.0,0.0,0.0,0.0,0.0,0.0,0.0,0.0,0.0,0.0,0.0,0.0,0.0,0.0,0.0,0.0,0.0,0.0,0.0,0.0,0.0,0.0,0.0,0.0,0.0,0.0,0.0,0.0,0.0,0.0,0.0,0.0,0.0,0.0,0.0,0.0,0.0,0.0,0.0,0.0,0.0,0.0,2.2064,2.1743,2.152,2.145,2.1131,2.085,0.0,0.0,0.0,0.0,0.0,0.0,0.0,0.0,0.0,0.0,0.0,0.0,0.0,0.0,0.0,0.0,0.0,0.0,0.0,0.0,0.0,0.0,0.0,0.0,0.0,0.0,0.0,0.0,0.0,0.0,0.0,0.0,0.0,0.0,0.0,0.0,0.0,0.0,0.0,0.0,0.0,0.0,0.0,0.0,0.0,0.0,0.0,0.0,0.0,0.0,0.0,0.0,0.0,0.0,0.0,0.0,0.0,0.0,0.0,0.0,0.0,0.0,0.0,0.0,0.0,0.0,0.0,0.0,0.0,0.0,0.0,0.0,0.0,0.0,0.0,0.0,0.0,0.0,0.0,0.0,0.0,0.0,0.0,0.0,0.0,0.0,0.0,0.0,0.0,0.0,0.0,0.0,0.0,0.0,0.0,0.0,0.0,0.0,0.0,0.0,0.0,0.0,0.0,0.0,0.0,0.0,0.0,0.0,0.0,2.2285,2.1913,2.1661,2.1507,2.1178,2.1041,0.0,0.0,0.0,0.0,0.0,0.0,0.0,0.0,0.0,0.0,0.0,0.0,0.0,0.0,0.0,0.0,0.0,0.0,0.0,0.0,0.0,0.0,0.0,0.0,0.0,0.0,0.0,0.0,0.0,0.0,0.0,0.0,0.0,0.0,0.0,0.0,0.0,0.0,0.0,0.0,0.0,0.0,0.0,0.0,0.0,0.0,0.0,0.0,0.0,0.0,0.0,0.0,0.0,0.0,0.0,0.0,0.0,0.0,0.0,0.0,0.0,0.0,0.0,0.0,0.0,0.0,0.0,0.0,0.0,0.0,0.0,0.0,0.0,0.0,0.0,0.0,0.0,0.0,0.0,0.0,0.0,0.0,0.0,0.0,0.0,0.0,0.0,0.0,0.0,0.0,0.0,0.0,0.0,0.0,0.0,0.0,0.0,0.0,0.0,0.0,0.0,0.0,0.0,0.0,0.0,0.0,0.0,0.0,0.0,2.2447,0.0,2.2125,2.1786,2.1574,2.1488,0.0,0.0,0.0,0.0,0.0,0.0,0.0,0.0,0.0,0.0,0.0,0.0,0.0,0.0,0.0,0.0,0.0,0.0,0.0,0.0,0.0,0.0,0.0,0.0,0.0,0.0,0.0,0.0,0.0,0.0,0.0,0.0,0.0,0.0,0.0,0.0,0.0,0.0,0.0,0.0,0.0,0.0,0.0,0.0,0.0,0.0,0.0,0.0,0.0,0.0,0.0,0.0,0.0,0.0,0.0,0.0,0.0,0.0,0.0,0.0,0.0,0.0,0.0,0.0,0.0,0.0,0.0,0.0,0.0,0.0,0.0,0.0,0.0,0.0,0.0,0.0,0.0,0.0,0.0,0.0,0.0,0.0,0.0,0.0,0.0,0.0,0.0,0.0,0.0,0.0,0.0,0.0,0.0,0.0,0.0,0.0,0.0,0.0,0.0,0.0,0.0,0.0,0.0,0.0,0.0,0.0,0.0,0.0,2.2537,2.2652,2.308,2.3023,2.2461,2.2384,2.2195,0.0,0.0,0.0,0.0,0.0,0.0,0.0,0.0,0.0,0.0,0.0,0.0,0.0,0.0,0.0,0.0,0.0,0.0,0.0,0.0,0.0,0.0,0.0,0.0,0.0,0.0,0.0,0.0,0.0,0.0,0.0,0.0,0.0,0.0,0.0,0.0,0.0,0.0,0.0,0.0,0.0,0.0,0.0,0.0,0.0,0.0,0.0,0.0,0.0,0.0,0.0,0.0,0.0,0.0,0.0,0.0,0.0,0.0,0.0,0.0,0.0,0.0,0.0,0.0,0.0,0.0,0.0,0.0,0.0,0.0,0.0,0.0,0.0,0.0,0.0,0.0,0.0,0.0,0.0,0.0,0.0,0.0,0.0,0.0,0.0,0.0,0.0,0.0,0.0,0.0,0.0,0.0,0.0,0.0,0.0,0.0,0.0,0.0,0.0,0.0,0.0,0.0,0.0,0.0,0.0,0.0,0.0,0.0,0.0,2.4053,2.3919,2.3694,2.3381,2.3224,2.288,0.0,0.0,0.0,0.0,0.0,0.0,0.0,0.0,0.0,0.0,0.0,0.0,0.0,0.0,0.0,0.0,0.0,0.0,0.0,0.0,0.0,0.0,0.0,0.0,0.0,0.0,0.0,0.0,0.0,0.0,0.0,0.0,0.0,0.0,0.0,0.0,0.0,0.0,0.0,0.0,0.0,0.0,0.0,0.0,0.0,0.0,0.0,0.0,0.0,0.0,0.0,0.0,0.0,0.0,0.0,0.0,0.0,0.0,0.0,0.0,0.0,0.0,0.0,0.0,0.0,0.0,0.0,0.0,0.0,0.0,0.0,0.0,0.0,0.0,0.0,0.0,0.0,0.0,0.0,0.0,0.0,0.0,0.0,0.0,0.0,0.0,0.0,0.0,0.0,0.0,0.0,0.0,0.0,0.0,0.0,0.0,0.0,0.0,0.0,0.0,0.0,0.0,0.0,0.0,0.0,0.0,0.0,0.0,0.0,2.5409,2.4898,2.4396,2.3963,2.3841,2.3448,2.279,0.0,0.0,0.0,0.0,0.0,0.0,0.0,0.0,0.0,0.0,0.0,0.0,0.0,0.0,0.0,0.0,0.0,0.0,0.0,0.0,0.0,0.0,0.0,0.0,0.0,0.0,0.0,0.0,0.0,0.0,0.0,0.0,0.0,0.0,0.0,0.0,0.0,0.0,0.0,0.0,0.0,0.0,0.0,0.0,0.0,0.0,0.0,0.0,0.0,0.0,0.0,0.0,0.0,0.0,0.0,0.0,0.0,0.0,0.0,0.0,0.0,0.0,0.0,0.0,0.0,0.0,0.0,0.0,0.0,0.0,0.0,0.0,0.0,0.0,0.0,0.0,0.0,0.0,0.0,0.0,0.0,0.0,0.0,0.0,0.0,0.0,0.0,0.0,0.0,0.0,0.0,0.0,0.0,0.0,0.0,0.0,0.0,0.0,0.0,0.0,0.0,0.0,0.0,0.0,0.0,0.0,0.0,0.0,2.6699,2.6022,2.5253,2.4346,2.4284,2.397,0.0,0.0,0.0,0.0,0.0,0.0,0.0,0.0,0.0,0.0,0.0,0.0,0.0,0.0,0.0,0.0,0.0,0.0,0.0,0.0,0.0,0.0,0.0,0.0,0.0,0.0,0.0,0.0,0.0,0.0,0.0,0.0,0.0,0.0,0.0,0.0,0.0,0.0,0.0,0.0,0.0,0.0,0.0,0.0,0.0,0.0,0.0,0.0,0.0,0.0,0.0,0.0,0.0,0.0,0.0,0.0,0.0,0.0,0.0,0.0,0.0,0.0,0.0,0.0,0.0,0.0,0.0,0.0,0.0,0.0,0.0,0.0,0.0,0.0,0.0,0.0,0.0,0.0,0.0,0.0,0.0,0.0,0.0,0.0,0.0,0.0,0.0,0.0,0.0,0.0,0.0,0.0,0.0,0.0,0.0,0.0,0.0,0.0,0.0,0.0,0.0,0.0,0.0,0.0,0.0,0.0,0.0,0.0,0.0,2.7862,2.8013,2.7315,2.5751,2.52,2.4697,0.0,0.0,0.0,0.0,0.0,0.0,0.0,0.0,0.0,0.0,0.0,0.0,0.0,0.0,0.0,0.0,0.0,0.0,0.0,0.0,0.0,0.0,0.0,0.0,0.0,0.0,0.0,0.0,0.0,0.0,0.0,0.0,0.0,0.0,0.0,0.0,0.0,0.0,0.0,0.0,0.0,0.0,0.0,0.0,0.0,0.0,0.0,0.0,0.0,0.0,0.0,0.0,0.0,0.0,0.0,0.0,0.0,0.0,0.0,0.0,0.0,0.0,0.0,0.0,0.0,0.0,0.0,0.0,0.0,0.0,0.0,0.0,0.0,0.0,0.0,0.0,0.0,0.0,0.0,0.0,0.0,0.0,0.0,0.0,0.0,0.0,0.0,0.0,0.0,0.0,0.0,0.0,0.0,0.0,0.0,0.0,0.0,0.0,0.0,0.0,0.0,0.0,0.0,0.0,0.0,0.0,0.0,0.0,2.8109,2.8727,2.8786,2.8411,2.7514,2.6586,2.5771,0.0,0.0,0.0,0.0,0.0,0.0,0.0,0.0,0.0,0.0,0.0,0.0,0.0,0.0,0.0,0.0,0.0,0.0,0.0,0.0,0.0,0.0,0.0,0.0,0.0,0.0,0.0,0.0,0.0,0.0,0.0,0.0,0.0,0.0,0.0,0.0,0.0,0.0,0.0,0.0,0.0,0.0,0.0,0.0,0.0,0.0,0.0,0.0,0.0,0.0,0.0,0.0,0.0,0.0,0.0,0.0,0.0,0.0,0.0,0.0,0.0,0.0,0.0,0.0,0.0,0.0,0.0,0.0,0.0,0.0,0.0,0.0,0.0,0.0,0.0,0.0,0.0,0.0,0.0,0.0,0.0,0.0,0.0,0.0,0.0,0.0,0.0,0.0,0.0,0.0,0.0,0.0,0.0,0.0,0.0,0.0,0.0,0.0,0.0,0.0,0.0,0.0,0.0,0.0,0.0,0.0,0.0,0.0,2.839,2.9477,2.9125,2.9063,2.9311,2.8031,2.6892,0.0,0.0,0.0,0.0,0.0,0.0,0.0,0.0,0.0,0.0,0.0,0.0,0.0,0.0,0.0,0.0,0.0,0.0,0.0,0.0,0.0,0.0,0.0,0.0,0.0,0.0,0.0,0.0,0.0,0.0,0.0,0.0,0.0,0.0,0.0,0.0,0.0,0.0,0.0,0.0,0.0,0.0,0.0,0.0,0.0,0.0,0.0,0.0,0.0,0.0,0.0,0.0,0.0,0.0,0.0,0.0,0.0,0.0,0.0,0.0,0.0,0.0,0.0,0.0,0.0,0.0,0.0,0.0,0.0,0.0,0.0,0.0,0.0,0.0,0.0,0.0,0.0,0.0,0.0,0.0,0.0,0.0,0.0,0.0,0.0,0.0,0.0,0.0,0.0,0.0,0.0,0.0,0.0,0.0,0.0,0.0,0.0,0.0,0.0,0.0,0.0,0.0,0.0,0.0,0.0,0.0,0.0,0.0,2.9964,3.0911,3.0843,3.0491,2.987,2.8197,2.7108,0.0,0.0,0.0,0.0,0.0,0.0,0.0,0.0,0.0,0.0,0.0,0.0,0.0,0.0,0.0,0.0,0.0,0.0,0.0,0.0,0.0,0.0,0.0,0.0,0.0,0.0,0.0,0.0,0.0,0.0,0.0,0.0,0.0,0.0,0.0,0.0,0.0,0.0,0.0,0.0,0.0,0.0,0.0,0.0,0.0,0.0,0.0,0.0,2.9578,0.0,0.0,0.0,0.0,0.0,0.0,0.0,0.0,0.0,0.0,0.0,0.0,0.0,0.0,0.0,0.0,0.0,0.0,0.0,0.0,0.0,0.0,0.0,0.0,0.0,0.0,0.0,0.0,0.0,0.0,0.0,0.0,0.0,0.0,0.0,0.0,0.0,0.0,0.0,0.0,0.0,0.0,0.0,0.0,0.0,0.0,0.0,0.0,0.0,0.0,0.0,0.0,0.0,0.0,0.0,0.0,0.0,0.0,0.0,3.076,3.165,3.1485,3.1182,3.0716,2.9219,2.8013,0.0,0.0,0.0,0.0,0.0,0.0,0.0,0.0,0.0,0.0,0.0,0.0,0.0,0.0,0.0,0.0,0.0,0.0,0.0,0.0,0.0,0.0,0.0,0.0,0.0,0.0,0.0,0.0,0.0,0.0,0.0,0.0,0.0,0.0,0.0,0.0,0.0,0.0,0.0,0.0,0.0,0.0,0.0,0.0,0.0,0.0,0.0,0.0,0.0,0.0,0.0,0.0,0.0,0.0,0.0,0.0,0.0,0.0,0.0,0.0,0.0,0.0,0.0,0.0,0.0,0.0,0.0,0.0,0.0,0.0,0.0,0.0,0.0,0.0,0.0,0.0,0.0,0.0,0.0,0.0,0.0,0.0,0.0,0.0,0.0,0.0,0.0,0.0,0.0,0.0,0.0,0.0,0.0,0.0,0.0,0.0,0.0,0.0,0.0,0.0,0.0,0.0,0.0,0.0,0.0,0.0,0.0,3.0698,3.1402,3.216,3.1878,3.1677,3.1664,3.0431,2.914,2.7801,0.0,0.0,0.0,0.0,0.0,0.0,0.0,0.0,0.0,0.0,0.0,0.0,0.0,0.0,0.0,0.0,0.0,0.0,0.0,0.0,0.0,0.0,0.0,0.0,0.0,0.0,0.0,0.0,0.0,0.0,0.0,0.0,0.0,0.0,0.0,0.0,0.0,0.0,2.7412,2.8131,0.0,0.0,0.0,0.0,0.0,0.0,0.0,0.0,2.9849,0.0,0.0,0.0,0.0,0.0,0.0,0.0,0.0,0.0,0.0,0.0,0.0,0.0,0.0,0.0,0.0,0.0,0.0,0.0,0.0,0.0,0.0,0.0,0.0,0.0,0.0,0.0,0.0,0.0,0.0,0.0,0.0,0.0,0.0,0.0,0.0,0.0,0.0,0.0,0.0,0.0,0.0,0.0,0.0,0.0,0.0,0.0,0.0,0.0,0.0,0.0,0.0,0.0,0.0,0.0,0.0,3.0574,3.1747,3.2615,3.3141,3.3107,3.2798,3.2183,3.1012,2.9769,2.8542,0.0,0.0,0.0,0.0,0.0,0.0,0.0,0.0,0.0,0.0,0.0,0.0,0.0,0.0,0.0,0.0,0.0,0.0,0.0,0.0,0.0,0.0,0.0,0.0,0.0,0.0,0.0,0.0,0.0,0.0,0.0,0.0,0.0,0.0,0.0,0.0,0.0,0.0,0.0,2.898,2.9563,0.0,0.0,0.0,0.0,0.0,0.0,0.0,0.0,3.0606,0.0,0.0,0.0,0.0,0.0,0.0,0.0,0.0,0.0,0.0,0.0,0.0,0.0,0.0,0.0,0.0,0.0,0.0,0.0,0.0,0.0,0.0,0.0,0.0,0.0,0.0,0.0,0.0,0.0,0.0,0.0,0.0,0.0,0.0,0.0,0.0,0.0,0.0,0.0,0.0,0.0,0.0,0.0,0.0,0.0,0.0,0.0,0.0,0.0,0.0,0.0,0.0,0.0,0.0,0.0,3.1402,3.2499,3.3285,3.375,3.3593,3.3161,3.2412,3.1428,3.025,0.0,0.0,0.0,0.0,0.0,0.0,0.0,0.0,0.0,0.0,0.0,0.0,0.0,0.0,0.0,0.0,0.0,0.0,0.0,0.0,0.0,0.0,0.0,0.0,0.0,0.0,0.0,0.0,0.0,0.0,0.0,0.0,0.0,0.0,0.0,0.0,0.0,0.0,0.0,0.0,2.9831,3.0388,3.0737,0.0,0.0,0.0,0.0,0.0,0.0,3.1244,3.1504,0.0,0.0,0.0,0.0,0.0,0.0,0.0,0.0,0.0,0.0,0.0,0.0,0.0,0.0,0.0,0.0,0.0,0.0,0.0,0.0,0.0,0.0,0.0,0.0,0.0,0.0,0.0,0.0,0.0,0.0,0.0,0.0,0.0,0.0,0.0,0.0,0.0,0.0,0.0,0.0,0.0,0.0,0.0,0.0,0.0,0.0,0.0,0.0,0.0,0.0,0.0,0.0,0.0,0.0,0.0,3.214,3.3058,3.377,3.4205,3.3897,3.3394,3.2671,3.1778,3.0579,0.0,0.0,0.0,0.0,0.0,0.0,0.0,0.0,0.0,0.0,0.0,0.0,0.0,0.0,0.0,0.0,0.0,0.0,0.0,0.0,0.0,0.0,0.0,0.0,0.0,0.0,0.0,0.0,0.0,0.0,0.0,0.0,0.0,0.0,0.0,0.0,0.0,0.0,0.0,0.0,0.0,3.131,3.1199,3.1234,0.0,0.0,0.0,0.0,3.184,3.2074,0.0,0.0,0.0,0.0,0.0,0.0,0.0,0.0,0.0,0.0,0.0,0.0,0.0,0.0,0.0,0.0,0.0,0.0,0.0,0.0,0.0,0.0,0.0,0.0,0.0,0.0,0.0,0.0,0.0,0.0,0.0,0.0,0.0,0.0,0.0,0.0,0.0,0.0,0.0,0.0,0.0,0.0,0.0,0.0,0.0,0.0,0.0,0.0,0.0,0.0,0.0,0.0,0.0,0.0,0.0,0.0,3.2595,3.3534,3.4226,3.4682,3.4369,3.3892,3.3145,3.1937,3.0745,0.0,0.0,0.0,0.0,0.0,0.0,0.0,0.0,0.0,0.0,0.0,0.0,0.0,0.0,0.0,0.0,0.0,0.0,0.0,0.0,0.0,0.0,0.0,0.0,0.0,0.0,0.0,0.0,0.0,0.0,0.0,0.0,0.0,0.0,0.0,0.0,0.0,0.0,0.0,0.0,0.0,3.2329,3.2752,3.3062,3.3288,0.0,0.0,0.0,3.3111,3.3137,0.0,0.0,0.0,0.0,0.0,0.0,0.0,0.0,0.0,0.0,0.0,0.0,0.0,0.0,0.0,0.0,0.0,0.0,0.0,0.0,0.0,0.0,0.0,0.0,0.0,0.0,0.0,0.0,0.0,0.0,0.0,0.0,0.0,0.0,0.0,0.0,0.0,0.0,0.0,0.0,0.0,0.0,0.0,0.0,0.0,0.0,0.0,0.0,0.0,0.0,0.0,0.0,0.0,0.0,0.0,3.1974,3.3078,3.4019,3.4703,3.5107,3.4636,3.4003,3.3216,3.2306,3.1123,0.0,0.0,0.0,0.0,0.0,0.0,0.0,0.0,0.0,0.0,0.0,0.0,0.0,0.0,0.0,0.0,0.0,0.0,0.0,0.0,0.0,0.0,0.0,0.0,0.0,0.0,0.0,0.0,0.0,0.0,0.0,0.0,0.0,0.0,0.0,0.0,0.0,0.0,0.0,0.0,0.0,0.0,3.4022,3.4171,0.0,0.0,0.0,3.4679,3.4631,0.0,0.0,0.0,0.0,0.0,0.0,0.0,0.0,0.0,0.0,0.0,0.0,0.0,0.0,0.0,0.0,0.0,0.0,0.0,0.0,0.0,0.0,0.0,0.0,0.0,0.0,0.0,0.0,0.0,0.0,0.0,0.0,0.0,0.0,0.0,0.0,0.0,0.0,0.0,0.0,0.0,0.0,0.0,0.0,0.0,0.0,0.0,0.0,0.0,0.0,0.0,0.0,0.0,0.0,0.0,0.0,0.0,3.3563,3.4495,3.5086,3.5387,3.4888,3.4121,3.3236,3.2532,0.0,0.0,0.0,0.0,0.0,0.0,0.0,0.0,0.0,0.0,0.0,0.0,0.0,0.0,0.0,0.0,0.0,0.0,0.0,0.0,0.0,0.0,0.0,0.0,0.0,0.0,0.0,2.5978,0.0,0.0,0.0,0.0,0.0,0.0,0.0,0.0,0.0,0.0,0.0,0.0,0.0,0.0,3.4896,3.516,3.5328,3.54,0.0,0.0,3.617,3.6001,3.6338,3.6606,0.0,0.0,0.0,0.0,0.0,0.0,0.0,0.0,0.0,0.0,0.0,0.0,0.0,0.0,0.0,0.0,0.0,0.0,0.0,0.0,0.0,0.0,0.0,0.0,0.0,0.0,0.0,0.0,0.0,0.0,0.0,0.0,0.0,0.0,0.0,0.0,0.0,0.0,0.0,0.0,0.0,0.0,0.0,0.0,0.0,0.0,0.0,0.0,0.0,0.0,0.0,0.0,0.0,0.0,0.0,3.404,3.4921,3.5366,3.5407,3.5172,3.4454,3.3236,3.2532,3.1377,0.0,0.0,0.0,0.0,0.0,0.0,0.0,0.0,0.0,0.0,0.0,0.0,0.0,0.0,0.0,0.0,0.0,0.0,0.0,0.0,0.0,0.0,0.0,0.0,0.0,0.0,0.0,0.0,0.0,0.0,0.0,0.0,0.0,0.0,0.0,0.0,0.0,0.0,0.0,0.0,0.0,3.5987,3.6243,3.6723,3.7036,0.0,0.0,3.7637,3.7156,3.7132,3.6964,3.6483,0.0,0.0,0.0,0.0,0.0,0.0,0.0,0.0,0.0,0.0,0.0,0.0,0.0,0.0,0.0,0.0,0.0,0.0,0.0,0.0,0.0,0.0,0.0,0.0,0.0,0.0,0.0,0.0,0.0,0.0,0.0,0.0,0.0,0.0,0.0,0.0,0.0,0.0,0.0,0.0,0.0,0.0,0.0,0.0,0.0,0.0,0.0,0.0,0.0,0.0,0.0,0.0,0.0,3.3605,3.4516,3.5397,3.5976,3.6235,3.5498,3.4756,3.4022,3.2839,3.1494,0.0,0.0,0.0,0.0,0.0,0.0,0.0,0.0,0.0,0.0,0.0,0.0,0.0,0.0,0.0,0.0,0.0,0.0,0.0,0.0,0.0,0.0,0.0,0.0,0.0,0.0,0.0,0.0,2.7532,2.7931,2.8471,0.0,0.0,0.0,0.0,0.0,0.0,0.0,0.0,0.0,0.0,3.7449,3.7998,3.823,0.0,0.0,3.8319,3.8366,3.8176,3.8102,3.799,3.7631,3.751,0.0,0.0,0.0,0.0,0.0,0.0,0.0,0.0,0.0,0.0,0.0,0.0,0.0,0.0,0.0,0.0,0.0,0.0,0.0,0.0,0.0,0.0,0.0,0.0,0.0,0.0,0.0,0.0,0.0,0.0,0.0,0.0,0.0,0.0,0.0,0.0,0.0,0.0,0.0,0.0,0.0,0.0,0.0,0.0,0.0,0.0,0.0,0.0,0.0,0.0,0.0,0.0,3.406,3.4993,3.5852,3.641,3.6644,3.577,3.4995,3.4318,3.2955,3.1651,0.0,0.0,0.0,0.0,0.0,0.0,0.0,0.0,0.0,0.0,0.0,0.0,0.0,0.0,0.0,0.0,0.0,0.0,0.0,0.0,0.0,0.0,0.0,0.0,0.0,0.0,0.0,0.0,2.8545,2.9058,2.9572,0.0,0.0,0.0,0.0,0.0,0.0,0.0,0.0,0.0,0.0,3.8438,3.9097,3.9306,3.9387,3.9376,3.9395,3.9353,3.916,3.9019,3.8821,3.8469,0.0,0.0,0.0,0.0,0.0,0.0,0.0,0.0,0.0,0.0,0.0,0.0,0.0,0.0,0.0,0.0,0.0,0.0,0.0,0.0,0.0,0.0,0.0,0.0,0.0,0.0,0.0,0.0,0.0,0.0,0.0,0.0,0.0,0.0,0.0,0.0,0.0,0.0,0.0,0.0,0.0,0.0,0.0,0.0,0.0,0.0,0.0,0.0,0.0,0.0,0.0,0.0,0.0,3.4537,3.5397,3.6297,3.6644,3.6342,3.5978,3.5168,3.3961,3.2802,3.1788,3.0898,0.0,0.0,0.0,0.0,0.0,0.0,0.0,0.0,0.0,0.0,0.0,0.0,0.0,0.0,0.0,0.0,0.0,0.0,0.0,0.0,0.0,0.0,0.0,0.0,0.0,0.0,2.8699,2.9181,2.9687,0.0,0.0,0.0,0.0,0.0,0.0,0.0,0.0,0.0,0.0,3.8013,3.8883,3.9343,3.9841,4.0358,4.0822,4.0922,4.0763,4.0241,3.9771,3.9306,0.0,0.0,0.0,0.0,0.0,0.0,0.0,0.0,0.0,0.0,0.0,0.0,0.0,0.0,0.0,0.0,0.0,0.0,0.0,0.0,0.0,0.0,0.0,0.0,0.0,0.0,0.0,2.7166,2.7257,0.0,0.0,0.0,0.0,0.0,0.0,0.0,0.0,0.0,0.0,0.0,2.9698,2.9661,0.0,0.0,0.0,0.0,0.0,0.0,0.0,0.0,0.0,0.0,0.0,0.0,3.5273,3.5862,3.6506,3.6959,3.7146,3.6321,3.552,3.4846,3.3627,3.2344,3.0937,0.0,0.0,0.0,0.0,0.0,0.0,0.0,0.0,0.0,0.0,0.0,0.0,0.0,0.0,0.0,0.0,0.0,0.0,0.0,0.0,0.0,0.0,0.0,0.0,0.0,2.9504,0.0,0.0,0.0,0.0,0.0,0.0,0.0,0.0,0.0,0.0,0.0,3.7277,3.8474,3.9254,3.9948,4.0585,4.0835,4.0908,0.0,0.0,0.0,0.0,0.0,0.0,0.0,0.0,0.0,0.0,0.0,0.0,0.0,0.0,3.9015,3.8388,3.8067,3.7938,3.7938,0.0,0.0,0.0,0.0,0.0,0.0,0.0,0.0,0.0,0.0,0.0,0.0,0.0,0.0,0.0,0.0,2.8147,0.0,0.0,0.0,0.0,0.0,0.0,0.0,0.0,3.0428,3.0605,3.1195,3.1,3.1058,0.0,3.1237,3.0874,0.0,0.0,0.0,0.0,0.0,0.0,0.0,0.0,3.5717,3.6353,3.6701,3.7001,3.7173,3.6336,3.5713,3.5337,3.4093,3.2617,3.0937,3.0361,2.9774,0.0,0.0,0.0,0.0,0.0,0.0,0.0,0.0,0.0,0.0,0.0,0.0,0.0,0.0,0.0,0.0,0.0,0.0,0.0,0.0,0.0,0.0,0.0,3.0535,0.0,0.0,0.0,0.0,0.0,0.0,0.0,0.0,0.0,3.6808,3.7422,3.8335,3.9476,4.0245,4.0931,4.1553,0.0,0.0,0.0,0.0,0.0,0.0,0.0,4.1237,4.1007,4.0938,4.0915,4.0894,4.0968,4.1111,4.1261,0.0,0.0,3.9516,3.9131,3.8967,3.894,3.9117,3.9379,3.9921,4.0324,4.075,0.0,0.0,0.0,0.0,0.0,0.0,0.0,0.0,2.9339,2.9381,0.0,2.9547,0.0,0.0,0.0,0.0,0.0,0.0,0.0,0.0,3.1574,3.194,3.2731,3.2752,3.258,3.2264,3.2284,3.209,3.179,3.1605,0.0,0.0,0.0,0.0,0.0,0.0,3.5942,3.6869,3.6958,3.683,3.6573,3.6162,3.5758,3.5385,3.4121,3.2656,3.1074,3.0937,3.0537,2.9696,2.9199,0.0,0.0,0.0,0.0,0.0,0.0,0.0,0.0,0.0,0.0,0.0,0.0,0.0,0.0,0.0,0.0,0.0,0.0,0.0,0.0,3.1453,0.0,0.0,0.0,0.0,0.0,0.0,0.0,0.0,0.0,0.0,3.7891,3.8757,3.9561,4.0149,0.0,0.0,0.0,0.0,4.328,4.3661,4.3362,4.3064,4.3064,4.2619,4.2194,4.1874,0.0,0.0,4.2148,4.2466,4.2774,4.3176,4.3161,4.2661,4.0663,4.0294,4.0247,4.0247,4.0212,4.0451,4.1012,4.1199,4.1461,3.1896,0.0,0.0,0.0,0.0,3.0274,3.031,3.0438,3.0312,3.03,3.0449,3.0351,0.0,0.0,0.0,0.0,0.0,0.0,3.2425,3.3381,3.3044,3.3368,3.4237,3.4035,3.3872,3.376,3.376,3.3729,3.3638,3.3579,3.3184,3.2525,0.0,0.0,0.0,0.0,3.6694,3.6978,3.7331,3.7524,3.7436,3.6814,3.6152,3.541,3.4121,3.3152,3.2715,3.1816,3.1094,3.0527,3.0106,0.0,0.0,0.0,0.0,0.0,0.0,0.0,0.0,0.0,0.0,0.0,0.0,0.0,0.0,0.0,0.0,0.0,0.0,0.0,3.2415,3.2952,3.3403,0.0,0.0,0.0,0.0,0.0,0.0,0.0,0.0,0.0,4.0175,4.0334,4.0846,0.0,0.0,4.2821,4.3303,4.3304,4.3309,4.3446,0.0,0.0,0.0,4.27,4.2577,4.2445,4.2445,4.2478,4.2544,4.2642,4.2741,4.2872,4.2872,4.2668,4.2146,4.1768,4.1552,4.1342,4.1092,4.1085,4.1655,4.203,4.2427,3.4294,3.2511,3.2021,3.1805,3.1805,3.1832,3.1805,3.1805,3.1671,3.1644,3.1644,3.1557,3.1503,3.1476,3.142,0.0,0.0,0.0,3.3666,3.4718,3.4491,3.4864,3.5674,3.5521,3.5348,3.5219,3.5251,3.5187,3.5025,3.5025,3.4628,3.3885,0.0,0.0,3.5457,3.665,3.7285,3.7328,3.7639,3.7742,3.7602,3.7034,3.6348,3.5644,3.4531,3.3738,3.3386,3.2519,3.1758,3.1172,3.0723,3.0359,0.0,0.0,0.0,0.0,0.0,0.0,0.0,0.0,0.0,0.0,0.0,3.1152,3.1174,0.0,0.0,0.0,3.2446,3.2753,3.3303,3.3994,0.0,0.0,0.0,0.0,0.0,0.0,0.0,3.7999,3.922,4.0394,4.1375,4.1765,4.2185,4.2847,4.3289,4.3652,4.3915,0.0,4.4244,4.4244,4.4039,4.3834,4.3697,4.364,4.3559,4.3228,4.3055,4.3043,4.3159,4.3159,4.325,4.3365,4.34,4.3365,4.3193,4.3015,4.2694,4.2268,4.2192,4.2249,4.2456,4.2696,4.3058,3.6441,3.5573,3.4374,3.3805,3.3656,3.3656,3.3656,3.3628,3.3392,3.3278,3.3257,3.2991,3.2868,3.2893,3.3053,0.0,0.0,3.4082,3.465,3.5854,3.5841,3.6323,3.7104,3.7131,3.6961,3.6674,3.664,3.645,3.6162,3.6108,3.6074,3.6108,3.597,3.6263,3.7024,3.7491,3.7833,3.7935,3.79,3.774,3.7344,3.7007,3.6543,3.6074,3.5254,3.4394,3.3523,3.3086,3.2461,3.163,3.123,3.0781,3.0361,0.0,0.0,0.0,0.0,0.0,0.0,0.0,0.0,0.0,0.0,0.0,0.0,0.0,0.0,0.0,3.3661,0.0,3.401,3.4768,0.0,0.0,0.0,3.6484,3.6979,3.7517,3.7901,3.7944,0.0,0.0,0.0,0.0,4.3441,4.2839,4.3678,4.4328,4.4328,4.5009,4.5622,4.5453,4.5506,4.5328,4.4722,4.473,4.4493,4.3882,4.3604,4.3497,4.373,4.3802,4.3975,4.4214,4.4395,4.4286,4.3968,4.3903,4.3774,4.3193,4.3331,4.353,4.3321,4.3393,4.3665,3.8199,3.7931,3.7328,3.6248,3.4958,3.4958,3.4958,3.4958,3.4867,3.4837,3.4837,3.4502,3.4432,3.4467,3.4848,3.532,3.5811,3.6088,3.6556,3.7198,3.7265,3.7599,3.8116,3.8205,3.8184,3.8076,3.7789,3.7593,3.7521,3.7177,3.6977,3.7032,3.7292,3.7397,3.7276,3.7984,3.8537,3.884,3.886,3.851,3.7757,3.7676,3.7266,3.6577,3.5996,3.5293,3.4414,3.3672,3.3027,3.2519,3.209,3.166,3.1211,3.1149,0.0,0.0,0.0,0.0,0.0,0.0,0.0,0.0,0.0,3.2721,3.2748,0.0,3.3797,0.0,3.4949,3.5634,3.5976,3.6011,0.0,0.0,3.7288,3.7539,3.8061,3.8869,3.9484,3.979,4.0903,4.1825,4.2422,4.3056,4.3415,4.3286,4.4436,4.5348,4.5358,4.4958,4.4777,4.4763,4.4351,4.3895,4.3902,4.3786,4.3793,4.3531,4.3443,4.3422,4.3516,4.3495,4.3568,4.3641,4.3641,4.3732,4.4043,4.4342,4.4544,4.4427,4.4208,4.3986,4.3915,4.4411,4.4987,3.9356,3.9187,3.8977,3.8269,3.7269,3.6635,3.6383,3.6383,3.619,3.6094,3.6094,3.59,3.5969,3.6215,3.6489,3.6841,3.728,3.758,3.7946,3.8363,3.8422,3.8668,3.9101,3.8969,3.8881,3.8844,3.8455,3.8288,3.8251,3.8008,3.7877,3.7896,3.816,3.8252,3.8219,3.8635,3.9072,3.9512,3.9316,3.8965,3.8496,3.8069,3.7598,3.6973,3.6313,3.5669,3.5019,3.418,3.3516,3.3086,3.2707,3.2246,3.1836,3.186,3.1859,0.0,0.0,0.0,0.0,0.0,0.0,0.0,0.0,0.0,0.0,0.0,3.4798,0.0,3.6035,0.0,3.7105,3.7188,3.7515,3.8295,3.8589,3.8856,3.9206,4.0101,4.0752,4.0969,4.1655,4.2322,4.2727,4.3168,4.3595,4.4034,4.499,4.5442,4.507,4.4771,4.4644,4.4608,4.4298,4.4013,4.4055,4.41,4.4113,4.4113,4.4113,4.4113,4.4113,4.4113,4.4113,4.4113,4.4113,4.4197,4.447,4.468,4.4876,4.4928,4.4883,4.4726,4.4554,4.5058,4.5604,4.0325,3.9943,3.9943,3.9939,3.9759,3.8488,3.7929,3.7827,3.7489,3.7285,3.7271,3.7271,3.7511,3.7882,3.7962,3.8236,3.8691,3.872,3.8945,3.9297,3.932,3.9593,3.9983,3.9624,3.9433,3.9433,3.9012,3.8839,3.8839,3.8706,3.8687,3.8668,3.8631,3.882,3.9275,3.9261,3.9394,3.981,3.9458,3.9242,3.9125,3.844,3.7832,3.7305,3.6562,3.5903,3.541,3.4681,3.4055,3.3535,3.3164,3.2734,3.2316,3.25,3.2652,0.0,3.3446,0.0,0.0,0.0,0.0,0.0,0.0,0.0,0.0,3.5414,3.6137,3.6543,3.7041,3.753,3.788,3.8335,3.8805,3.9255,3.975,4.0069,4.0224,4.1049,4.1626,4.1688,4.208,4.2571,4.3063,4.3406,4.3928,4.4712,4.5145,4.5159,4.4485,4.465,4.4921,4.49,4.4845,4.4744,4.4834,4.4922,4.4976,4.4979,4.4935,4.5041,4.4976,4.4937,4.4979,4.4979,4.4935,4.4979,4.5064,4.5103,4.5144,4.531,4.564,4.5723,4.5331,4.5599,4.5995,4.169,4.1346,4.1326,4.1088,4.0726,4.0108,3.9641,3.9287,3.9216,3.9002,3.8696,3.8696,3.879,3.893,3.8918,3.9193,3.9643,3.9647,3.9687,3.9785,4.0086,4.0298,4.0394,4.0614,4.0718,4.0718,4.0318,4.0117,4.0117,3.9422,3.9096,3.9077,3.8782,3.885,0.0,0.0,0.0,0.0,3.9663,3.9431,3.8775,3.8878,3.8437,3.7344,3.7148,0.0,3.5469,3.5215,3.4766,3.4036,3.3899,0.0,0.0,0.0,0.0,0.0,0.0,0.0,0.0,0.0,0.0,0.0,3.5924,3.6288,3.5994,3.6776,3.7519,3.8039,3.8464,3.88,3.8987,3.9146,3.9261,3.945,3.9927,4.0238,4.0323,4.1127,4.1814,4.212,4.2602,4.3143,4.3859,4.412,4.4356,4.4854,4.5052,4.5029,4.4863,4.5134,4.543,4.5412,4.5137,4.4967,4.4974,4.496,4.5006,4.5041,4.5041,4.5022,4.5004,4.5043,4.5022,4.5043,4.5041,4.5147,4.5478,4.554,4.5788,4.6492,4.6658,4.6596,4.6162,4.6431,4.6865,4.2092,0.0,4.1739,4.1465,0.0,4.0821,4.0608,4.0373,3.9963,3.9682,3.9478,3.9478,3.949,3.9504,3.9737,3.9951,4.0221,4.0394,4.049,4.0528,4.0694,4.0766,4.0785,4.0801,4.0787,4.0787,4.038,4.0199,4.0158,3.9752,3.9538,3.9538,3.9336,3.9347,3.9588,3.9347,3.9372,3.9599,3.9623,3.9395,3.8975,3.8724,3.822,3.7393,0.0,0.0,0.0,0.0,0.0,0.0,0.0,0.0,0.0,0.0,0.0,3.3973,3.4361,3.4759,3.5127,3.5656,3.6095,3.6349,3.7341,3.7833,3.7554,3.7823,3.8287,3.8953,3.9053,3.9261,3.9731,3.982,3.9977,4.0298,4.0907,4.1314,4.1423,4.2156,4.2753,4.2975,4.3176,4.3536,4.3935,4.3995,4.4176,4.4617,4.4698,4.478,4.4962,4.5171,4.5237,4.5041,4.5051,4.4916,4.4758,4.4902,4.5004,4.5025,4.5025,4.5025,4.5025,4.5025,4.5065,4.5265,4.5345,4.5529,4.6183,4.6347,4.6554,4.7154,4.7361,4.7403,4.732,4.7527,4.7755,4.2365,4.2022,4.2022,4.1683,4.1184,4.1225,4.1147,4.1036,0.0,0.0,0.0,4.0123,4.0067,4.0046,4.0449,4.0596,4.0601,4.096,4.109,4.109,4.1125,4.1103,4.1081,4.0771,4.0603,4.0603,4.0257,4.0093,4.0093,3.9937,3.9901,3.986,3.9746,3.9627,3.9645,3.9277,3.9276,3.9634,3.9321,3.9079,3.8929,3.8329,3.7709,3.72,3.6861,3.626,3.5414,3.5076,3.4734,3.4407,3.4014,3.3974,3.4284,3.4298,3.445,3.486,3.5457,3.5866,3.6023,3.6595,3.7237,3.7908,3.8607,3.8985,3.8856,3.8711,3.8926,3.9678,3.956,3.9746,4.0375,4.0615,4.0826,4.1201,4.1888,4.2344,4.2447,4.3081,4.352,4.36,4.364,4.376,4.384,4.388,4.4,4.4382,4.4543,4.4623,4.4905,4.5046,4.4916,4.4658,4.4843,4.4906,4.4684,4.4805,4.5005,4.5026,4.5005,4.5025,4.5025,4.5065,4.5289,4.5596,4.5718,4.6086,4.6681,4.6784,4.701,4.7463,4.7566,4.7732,4.8164,4.8288,4.8267,4.3211,4.2827,4.2827,4.2387,4.16,4.16,4.1411,4.1111,4.1005,4.0931,4.0931,4.0931,4.0929,4.0906,4.1003,4.1019,4.0995,4.1052,4.109,0.0,4.1103,4.1107,4.1125,4.1046,4.1021,4.1021,4.0937,4.0937,4.084,4.0154,3.9824,3.9728,3.905,3.8724,3.8683,3.8642,3.863,3.8669,3.8698,3.8333,3.7623,3.7867,3.7416,3.6367,3.6257,3.5815,3.5025,3.4952,3.4909,3.4818,3.4724,3.4711,3.4717,3.4698,3.4918,3.5363,3.5493,3.587,3.6523,3.6673,3.7396,3.8823,3.9112,3.9109,3.901,3.9629,4.0076,4.0237,4.077,4.1216,4.1074,4.1594,4.1894,4.1778,4.2111,4.2405,4.2463,4.2935,4.3291,4.331,4.3525,4.3885,4.4193,4.4274,4.4336,4.4762,4.4722,4.4883,4.4904,4.5027,4.4987,4.4905,4.4946,4.4945,4.4802,4.4944,4.4943,4.5025,4.4963,4.4962,4.5002,4.5284,4.5526,4.567,4.5912,4.6216,4.6441,4.6399,4.6685,4.7091,4.7192,4.7334,4.7781,4.7883,4.8075,4.3348,4.2964,4.2964,4.2587,4.2039,4.2039,4.1928,4.176,4.176,4.1489,4.1128,4.109,4.1122,4.1125,4.1125,4.1114,4.1091,4.1091,4.1091,4.1109,4.111,4.1101,4.112,4.1095,4.0976,4.0723,4.0741,4.0596,4.0307,3.9934,3.9718,3.9718,3.9311,3.9157,3.9157,3.8905,3.8691,3.8522,3.853,3.8271,3.7677,3.7625,3.7258,3.652,3.6266,3.5889,3.5313,3.5098,3.4865,3.4631,3.4613,3.4702,3.486,3.5044,3.5372,3.5774,3.6215,3.6641,3.6997,3.7482,3.814,3.9108,3.9452,3.9644,3.9812,4.013,4.0359,4.0368,4.0801,4.1074,4.1091,4.1438,4.1806,4.2099,4.2506,4.2977,4.3455,4.3887,4.4121,4.4121,4.4101,4.4165,4.4373,4.4157,4.4082,4.4247,4.4288,4.4288,4.4327,4.4525,4.4667,4.4676,4.4657,4.4534,4.439,4.4288,4.4387,4.4624,4.4664,4.4782,4.4941,4.5218,4.5423,4.5653,4.5874,4.6158,4.6528,4.6693,4.6894,4.7236,4.7356,4.752,4.7681,4.7839,4.8261,4.3354,4.305,4.305,4.2796,4.2443,4.2369,4.2271,4.2271,4.2314,4.1957,4.1421,4.135,4.1316,4.1254,4.1305,4.136,4.1383,4.1378,4.1378,4.1378,4.1378,4.1293,4.1208,4.1208,4.0953,4.0528,4.0485,4.0296,3.9997,3.9781,3.9564,3.9409,3.9391,3.9391,3.9391,3.9025,3.8715,3.8445,3.8443,3.8223,3.7766,3.745,3.708,3.6663,3.6324,3.5937,3.5501,3.5164,3.4903,3.4678,3.4698,3.483,3.5183,3.5489,3.5817,3.6171,3.6802,3.7249,3.7489,3.8262,3.8887,3.9304,3.976,4.016,4.0445,4.0562,4.0548,4.0581,4.0745,4.0944,4.1228,4.1493,4.1802,4.2477,4.2921,4.3411,4.4113,4.4589,4.4849,4.481,4.4642,4.4531,4.4473,4.4238,4.4104,4.4104,4.4004,4.4004,4.4043,4.4336,4.4523,4.4432,4.446,4.4458,4.4045,4.4023,4.4221,4.4492,4.4573,4.4733,4.4945,4.5058,4.5261,4.5644,4.5786,4.6069,4.6689,4.6792,4.6932,4.7168,4.7208,4.7331,4.7427,4.7918,4.8502,4.346,4.3415,4.3442,4.3214,4.2828,4.2498,4.2351,4.2307,4.2289,4.2259,4.2168,4.218,4.1978,4.1733,4.2008,4.2155,4.2124,4.2204,4.2142,4.2142,4.2204,4.1944,4.1456,4.1431,4.1232,4.0761,4.0761,4.0638,4.0533,3.9904,3.9227,3.8546,3.8452,3.8486,3.8469,3.8443,3.8366,3.8332,3.8323,3.7963,3.7293,3.7249,3.6888,3.6184,3.6132,3.5771,3.5214,3.5054,3.5176,3.5452,3.5473,3.5667,3.6015,3.6106,3.6305,3.6585,3.6735,3.7037,3.781,3.864,3.929,3.973,4.0132,4.0409,4.0502,4.0808,4.1012,4.1044,4.1373,4.1559,4.1676,4.2281,4.2677,4.288,4.3259,4.3624,4.3766,4.4061,4.4337,4.438,4.4698,4.4918,4.4833,4.4736,4.4759,4.4596,4.4515,4.4557,4.4554,4.4694,4.4663,4.4477,4.4647,4.4883,4.4716,4.484,4.4736,4.4814,4.4876,4.4911,4.5005,4.5281,4.5648,4.5515,4.5879,4.6137,4.6196,4.6381,4.6361,4.64,4.6479,4.6557,4.6973,4.7627,4.8405,4.3481,4.3481,4.3481,4.3408,4.3224,4.3059,4.3004,4.3004,4.303,4.2858,4.2718,4.2894,4.2637,4.2069,4.2216,4.2271,4.2271,4.2271,4.2141,4.1836,4.1836,4.1575,4.1121,4.1078,4.0859,4.0421,4.0377,4.0289,3.9991,3.9694,3.9364,3.9069,3.9008,3.9008,3.9008,3.9008,3.8991,3.9008,3.9008,3.8751,3.8238,3.7775,3.7296,3.6816,3.6748,3.6628,3.632,3.608,3.6023,3.6184,3.6201,3.6264,3.6424,3.665,3.6841,3.6997,3.7259,3.7666,3.8229,3.8594,3.8955,3.9353,3.9795,4.0114,4.0367,4.0729,4.0916,4.1002,4.1376,4.1676,4.1732,4.2239,4.2659,4.2954,4.3358,4.3665,4.3925,4.4326,4.4652,4.4633,4.4554,4.4549,4.4492,4.4319,4.4185,4.4147,4.419,4.429,4.4185,4.4358,4.4444,4.4352,4.4654,4.4645,4.4362,4.4166,4.4324,4.4454,4.453,4.4569,4.4962,4.5053,4.5225,4.525,4.5404,4.55,4.5436,4.5475,4.5475,4.5538,4.5743,4.5954,4.6312,4.6934,4.7676,4.3481,4.3481,4.3481,4.341,4.3303,4.3303,4.3213,4.3079,4.3079,4.2916,4.2724,4.2952,4.277,4.2305,4.2382,4.2382,4.2251,4.2207,4.2032,4.168,4.1636,4.1416,4.0958,4.0958,4.0693,4.0312,4.0285,4.0038,3.9686,3.9625,3.9573,3.9532,3.9515,3.9515,3.9515,3.9515,3.9515,3.9497,3.9515,3.9333,3.9025,3.8555,3.8006,3.7433,3.7364,3.7313,3.721,3.6895,3.6741,3.6741,3.6782,3.6782,3.6758,3.7056,3.7296,3.7518,3.8019,3.846,3.8779,3.8863,3.907,3.937,3.9738,4.0132,4.0416,4.0656,4.0798,4.085,4.1326,4.1589,4.1498,4.1807,4.2156,4.2479,4.2916,4.3287,4.3526,4.4114,4.4466,4.451,4.4272,4.4209,4.4172,4.4133,4.4093,4.4074,4.4055,4.3974,4.3968,4.4258,4.4403,4.4247,4.4492,4.4486,4.4044,4.4093,4.412,4.4252,4.4472,4.4586,4.4845,4.4883,4.4883,4.5052,4.4908,4.4946,4.5078,4.499,4.4902,4.4977,4.5224,4.5621,4.6117,4.6436,4.7009,4.3481,4.3481,4.3499,4.3213,4.2837,4.2855,4.2568,4.2164,4.2119,4.2102,4.2066,4.2102,4.2039,4.2013,4.2443,4.2497,4.2048,4.2013,4.1995,4.1905,4.1923,4.1689,4.1273,4.1273,4.1013,4.0565,4.052,4.0337,3.9974,3.9957,3.983,3.9549,3.9583,3.9549,3.9566,3.9583,3.9532,3.96,3.96,3.9532,3.948,3.9429,3.8863,3.7955,3.78,3.7655,3.733,3.7227,3.7227,3.721,3.7261,3.7244,3.7227,3.7261,3.7604,3.8238,3.8966,3.9404,3.944,3.9713,3.9922,4.0036,4.0324,4.0718,4.0649,4.0737,4.079,4.0789,4.117,4.1231,4.1009,4.1346,4.156,4.1639,4.1898,4.2165,4.2201,4.3051,4.3489,4.3578,4.3808,4.393,4.41,4.458,4.4486,4.4511,4.4656,4.4593,4.4404,4.463,4.4428,4.4118,4.4111,4.4352,4.4649,4.4436,4.4536,4.4549,4.4423,4.4712,4.482,4.4902,4.4857,4.4813,4.4725,4.4681,4.4813,4.4857,4.4769,4.4857,4.5114,4.5491,4.5694,4.6336,4.6863,4.2542,4.2524,4.2542,4.2434,4.2299,4.2299,4.2164,4.1984,4.1984,4.1984,4.1984,4.1984,4.1849,4.1597,4.1777,4.1894,4.1984,4.1984,4.1849,4.1597,4.1534,4.1325,4.0901,4.0856,4.0765,4.0629,4.0583,4.0515,4.0395,4.0395,4.0327,4.0224,4.0173,4.019,4.019,4.019,4.0173,4.0173,4.019,4.007,3.9803,3.983,3.9505,3.8949,3.8897,3.8829,3.8666,3.8648,3.8666,3.8666,3.8648,3.8648,3.8648,3.8692,3.8768,3.9042,3.936,3.9515,3.9515,3.9603,3.9735,3.9752,4.0048,4.0302,4.0354,4.0527,4.0666,4.0728,4.077,4.0787,4.087,4.1343,4.179,4.179,4.1896,4.1984,4.2074,4.2344,4.2524,4.2551,4.2703,4.2774,4.2945,4.2972,4.3061,4.3061,4.3061,4.3106,4.3061,4.3061,4.3061,4.2882,4.2793,4.2837,4.2972,4.3641,4.3971,4.3971,4.3971,4.3952,4.4015,4.4104,4.406,4.4104,4.4149,4.4149,4.4193,4.4193,4.4149,4.4298,4.4614,4.5106,4.5185,4.5908,4.6411,4.1984,4.1984,4.1984,4.1894,4.1777,4.1759,4.174,4.1754,4.1727,4.1797,4.1867,4.1779,4.1545,4.1255,4.1151,4.1235,4.1534,4.1534,4.1353,4.1099,4.1099,4.0901,4.0629,4.0583,4.0583,4.0583,4.0583,4.0583,4.0583,4.0447,4.0356,4.0356,4.022,4.0129,4.0129,4.0129,4.0129,4.0129,4.0129,3.9948,3.9728,3.9711,3.9593,3.9418,3.9384,3.9382,3.9488,3.9515,3.9515,3.9515,3.9515,3.9515,3.9515,3.9635,3.9642,3.9659,3.9762,3.9875,3.9857,3.9875,3.9875,3.983,4.0053,4.0207,4.0241,4.0446,4.0566,4.0583,4.0583,4.0583,4.072,4.1155,4.1534,4.1579,4.1534,4.1534,4.1579,4.1669,4.1875,4.2061,4.2339,4.2321,4.2061,4.2134,4.2216,4.202,4.1984,4.1984,4.1984,4.1984,4.1984,4.1984,4.2074,4.2119,4.2254,4.2748,4.3213,4.3258,4.3347,4.3303,4.3365,4.341,4.3436,4.3436,4.3481,4.3481,4.3481,4.3481,4.3573,4.3683,4.4259,4.492,4.5169,4.5518,4.5999,4.1894,4.1849,4.1939,4.1614,4.1242,4.1242,4.1251,4.1223,4.1258,4.1458,4.1584,4.1349,4.1212,4.1051,4.0715,4.0618,4.0635,4.0601,4.0629,4.0674,4.0674,4.0629,4.0583,4.0583,4.0538,4.0493,4.0538,4.0538,4.0447,4.01,3.9873,3.9781,3.9445,3.9308,3.9154,3.9262,3.9171,3.92,3.9262,3.92,3.9109,3.9167,3.9196,3.9134,3.9134,3.9243,3.9468,3.945,3.944,3.9468,3.9495,3.9488,3.9607,3.9847,4.0036,4.0087,4.0344,4.0532,4.0566,4.0549,4.0577,4.0601,4.0601,4.0652,4.0669,4.0652,4.0652,4.0652,4.0601,4.0583,4.0583,4.0674,4.0765,4.0629,4.0799,4.0834,4.0817,4.1089,4.1437,4.1894,4.245,4.2711,4.2235,4.2175,4.2253,4.2034,4.191,4.1893,4.1847,4.1812,4.1894,4.1894,4.1759,4.1624,4.1804,4.2029,4.2344,4.2631,4.2748,4.2811,4.299,4.3079,4.3169,4.3213,4.3455,4.3499,4.3518,4.3554,4.3756,4.394,4.4462,4.4866,4.5168,4.5517,4.5737,4.0275,4.0038,4.0021,4.0099,4.0226,4.0518,4.0768,4.1014,4.1339,4.1408,4.1149,4.1018,4.0798,4.0497,4.015,3.9966,3.995,3.9762,3.9947,4.051,4.0583,4.0583,4.0583,4.0583,4.0464,4.01,3.9719,3.9582,3.9582,3.9462,3.9354,3.9308,3.9187,3.9125,3.9096,3.9109,3.9109,3.9109,3.9109,3.9109,3.9109,3.9079,3.9079,3.9109,3.9109,3.913,3.9203,3.9231,3.9231,3.9215,3.9565,3.9926,4.0213,4.0344,4.0412,4.0412,4.0515,4.072,4.1006,4.0994,4.1097,4.1286,4.1337,4.1354,4.132,4.1114,4.104,4.0989,4.08,4.0583,4.0583,4.0583,4.0618,4.0583,4.0823,4.0977,4.1057,4.1338,4.162,4.1723,4.2,4.2,4.1902,4.2006,4.1983,4.1827,4.1619,4.1498,4.1463,4.1335,4.1037,4.1037,4.1037,4.1277,4.1437,4.158,4.1762,4.2054,4.2226,4.2407,4.2586,4.2721,4.2811,4.3053,4.3294,4.351,4.3591,4.3738,4.3976,4.4251,4.4673,4.4985,4.526,4.5535,4.5792,3.9457,3.9197,3.9197,3.9468,3.9885,4.0194,4.0487,4.0851,4.1198,4.1188,4.1052,4.0888,4.0649,4.0347,4.005,3.9901,3.9851,3.9637,3.9861,4.0301,4.0106,4.0038,4.0038,4.0038,3.9901,3.9678,3.9411,3.9323,3.934,3.9224,3.9197,3.9197,3.9058,3.8936,3.8966,3.8966,3.8917,3.8803,3.8741,3.8705,3.8608,3.8575,3.8575,3.8575,3.8575,3.8575,3.8575,3.8575,3.8759,3.9079,3.9445,3.9719,4.0038,4.0156,4.0241,4.0275,4.0393,4.0532,4.0798,4.0786,4.0993,4.1336,4.137,4.151,4.1569,4.1457,4.1371,4.132,4.1166,4.0994,4.1012,4.1012,4.0994,4.0994,4.1126,4.1234,4.1417,4.1697,4.1902,4.2,4.212,4.2039,4.1953,4.1919,4.1851,4.1714,4.1508,4.1371,4.132,4.1212,4.1046,4.0977,4.1172,4.1252,4.1138,4.1183,4.1229,4.1474,4.1734,4.1938,4.2164,4.2209,4.2299,4.2856,4.3206,4.3613,4.3713,4.4123,4.4425,4.4673,4.4948,4.5223,4.5498,4.5682,4.5883,3.9272,3.9272,3.9255,3.9444,3.9887,4.0012,4.0256,4.06,4.0776,4.0958,4.1091,4.0812,4.0633,4.0551,4.0129,3.9981,4.0106,3.993,3.9881,3.981,3.9495,3.9244,3.9445,3.9415,3.9323,3.9277,3.9432,3.9564,3.944,3.9311,3.935,3.9269,3.8907,3.8703,3.8718,3.8703,3.8622,3.8399,3.832,3.8161,3.7953,3.7874,3.7874,3.7874,3.7937,3.7953,3.7969,3.8015,3.8274,3.8945,3.9149,3.929,3.929,3.9538,3.9859,3.9875,4.005,4.0212,4.0248,4.0405,4.058,4.0993,4.1057,4.1157,4.1634,4.1676,4.1637,4.1731,4.1645,4.1628,4.1611,4.1611,4.1628,4.1679,4.1508,4.1555,4.1748,4.2125,4.2279,4.2364,4.2556,4.2676,4.2347,4.2313,4.2159,4.1953,4.1816,4.1748,4.1714,4.1645,4.1662,4.1611,4.1491,4.144,4.1354,4.1354,4.1447,4.1453,4.1608,4.1761,4.1905,4.1978,4.2132,4.2638,4.3145,4.3579,4.3988,4.4353,4.4719,4.5021,4.5278,4.5517,4.5682,4.5828,4.5883,3.7985,3.7705,3.769,3.794,3.8446,3.9133,3.966,4.0062,4.077,4.0851,4.0723,4.061,4.0319,4.0013,3.9628,3.9467,3.9467,3.9258,3.913,3.905,3.8922,3.9279,3.97,3.9497,3.9293,3.9246,3.9093,3.8985,3.8938,3.8972,3.8972,3.8877,3.8846,3.8719,3.8688,3.8735,3.8656,3.8576,3.856,3.8529,3.8417,3.8386,3.8433,3.8417,3.8402,3.8402,3.8417,3.8433,3.8572,3.8905,3.918,3.9513,3.9761,3.9923,3.9989,4.0022,4.0104,4.0316,4.0514,4.0516,4.0726,4.1134,4.1132,4.1455,4.1916,4.1727,4.1781,4.1949,4.1902,4.1684,4.1731,4.1731,4.1834,4.2073,4.2022,4.209,4.2368,4.2591,4.2659,4.2676,4.2745,4.2727,4.2676,4.2608,4.2574,4.2437,4.2296,4.2142,4.2108,4.1953,4.1902,4.1765,4.1662,4.1679,4.1662,4.1662,4.1645,4.1611,4.1699,4.1728,4.1902,4.2052,4.2226,4.2537,4.3164,4.3638,4.4104,4.4534,4.4928,4.5323,4.5553,4.5737,4.5792,4.5883,4.5883,3.7095,3.6915,3.6915,3.7132,3.7639,3.8433,3.8882,3.9136,3.9703,3.9849,3.9557,3.9557,3.9411,3.9102,3.9093,3.9096,3.9113,3.9147,3.9164,3.9196,3.9196,3.9355,3.9494,3.9224,3.9114,3.9098,3.8989,3.8958,3.8989,3.9053,3.918,3.9212,3.9148,3.9148,3.9228,3.9132,3.9053,3.8942,3.891,3.8862,3.8703,3.8688,3.8688,3.8688,3.8688,3.8688,3.8703,3.8831,3.8893,3.889,3.9001,3.9272,3.9524,3.9717,3.9782,3.9799,3.9912,4.0123,4.0253,4.0302,4.0544,4.0868,4.0966,4.1256,4.1592,4.1538,4.163,4.2056,4.1964,4.1974,4.2146,4.2146,4.2296,4.2437,4.2488,4.2574,4.2796,4.2779,4.2796,4.2813,4.2813,4.2813,4.2813,4.2813,4.2813,4.2762,4.2591,4.2553,4.2501,4.2279,4.2095,4.2043,4.2043,4.2129,4.2163,4.2163,4.2129,4.206,4.2056,4.1992,4.1961,4.2114,4.2231,4.2511,4.3127,4.3698,4.4131,4.4619,4.5135,4.5494,4.5781,4.5865,4.5883,4.5883,4.5883,3.6498,3.6449,3.64,3.6711,3.714,3.7746,3.8025,3.8041,3.8301,3.8399,3.835,3.8252,3.8399,3.8252,3.8827,3.9005,3.9038,3.9462,3.9704,3.9721,3.9673,3.9547,3.9117,3.9085,3.9021,3.9037,3.9164,3.926,3.9323,3.9577,3.9769,3.9705,3.9737,3.9785,3.9689,3.9737,3.9561,3.9323,3.9275,3.9164,3.8974,3.8942,3.8942,3.8942,3.8926,3.8926,3.8974,3.9101,3.918,3.8831,3.8799,3.8973,3.8989,3.9196,3.9355,3.9499,3.9771,3.9946,3.9928,4.0106,4.0139,4.0578,4.0594,4.0773,4.1243,4.1339,4.1564,4.2174,4.2141,4.2279,4.2598,4.2745,4.2727,4.2745,4.2762,4.2796,4.2813,4.2813,4.2813,4.2813,4.2813,4.2813,4.2813,4.2813,4.2813,4.2813,4.271,4.2693,4.2676,4.2574,4.2539,4.2591,4.2625,4.271,4.2727,4.2727,4.2676,4.2625,4.2556,4.2454,4.2176,4.2214,4.2252,4.2533,4.3169,4.3668,4.4079,4.4605,4.5115,4.5452,4.5535,4.5742,4.5883,4.5883,4.5883,3.5706,3.5359,3.5359,3.5408,3.5657,3.6513,3.6958,3.7007,3.781,3.8056,3.8203,3.8203,3.8154,3.8203,3.8678,3.902,3.902,3.9524,3.9817,3.9817,3.9817,3.9753,3.9562,3.9482,3.9546,3.9562,3.9626,3.9641,3.9673,3.9737,3.9817,3.9817,3.9817,3.9817,3.9817,3.9817,3.9785,3.9705,3.9641,3.9577,3.9514,3.9514,3.9514,3.9514,3.953,3.9562,3.9594,3.9658,3.9658,3.9594,3.9578,3.953,3.9578,3.9658,3.9784,3.9974,4.0102,4.0276,4.0483,4.0548,4.0596,4.0681,4.0715,4.0959,4.1455,4.1277,4.162,4.2171,4.2261,4.2369,4.2768,4.2813,4.2847,4.2881,4.2864,4.2864,4.2813,4.2813,4.2813,4.2813,4.2813,4.2813,4.2813,4.2813,4.2813,4.2813,4.2813,4.2813,4.2813,4.2813,4.2813,4.2813,4.2813,4.2813,4.2813,4.2813,4.2813,4.2813,4.2813,4.2796,4.2471,4.2368,4.2442,4.2752,4.3197,4.3612,4.3903,4.4258,4.4685,4.4987,4.5318,4.5506,4.5648,4.5742,4.5883,3.511,3.4662,3.4612,3.4612,3.4762,3.5508,3.6004,3.6301,3.6809,3.7204,3.7401,3.745,3.745,3.7549,3.8237,3.8629,3.8825,3.9475,3.9817,3.9817,3.9817,3.9817,3.9817,3.9817,3.9817,3.9817,3.9801,3.9817,3.9817,3.9817,3.9817,3.9817,3.9817,3.9817,3.9817,3.9817,3.9817,3.9801,3.9817,3.9817,3.9817,3.9817,3.9817,3.9817,3.9817,3.9817,3.9801,3.9992,3.999,4.0038,4.0198,4.0214,4.0135,4.0198,4.0389,4.0467,4.0531,4.0578,4.0737,4.0785,4.0803,4.0801,4.0785,4.0935,4.1118,4.1057,4.134,4.1932,4.2226,4.2449,4.3007,4.3292,4.3258,4.3138,4.3272,4.3326,4.3275,4.3035,4.2813,4.2813,4.2813,4.2813,4.2813,4.2813,4.2813,4.2813,4.2813,4.2813,4.2813,4.2813,4.2813,4.2813,4.2813,4.2813,4.2813,4.2813,4.2813,4.2813,4.2813,4.2813,4.2676,4.2693,4.2745,4.297,4.3114,4.3305,4.3652,4.3895,4.4198,4.4608,4.4939,4.5223,4.5477,4.5637,4.5826,3.4662,3.4214,3.4114,3.4064,3.415,3.4762,3.5309,3.5657,3.5855,3.64,3.6548,3.6612,3.6809,3.7007,3.781,3.8203,3.8693,3.928,3.9817,3.9817,3.9817,3.9817,3.9817,3.9817,3.9817,3.9817,3.9817,3.9817,3.9817,3.9817,3.9817,3.9817,3.9817,3.9817,3.9817,3.9817,3.9817,3.9817,3.9817,3.9817,3.9817,3.9817,3.9817,3.9817,3.9928,3.9944,3.9974,4.0165,4.0356,4.0388,4.0689,4.0689,4.0594,4.061,4.0832,4.0848,4.0864,4.0944,4.1055,4.1023,4.1023,4.0944,4.0975,4.0975,4.1042,4.1028,4.128,4.1747,4.2245,4.2836,4.3417,4.37,4.3734,4.3632,4.3803,4.3974,4.3888,4.3392,4.3104,4.2916,4.2864,4.2813,4.2813,4.2813,4.2813,4.2813,4.2813,4.2813,4.2813,4.2813,4.2813,4.2813,4.2813,4.2813,4.2813,4.2813,4.2813,4.2813,4.2813,4.2813,4.2813,4.2813,4.2813,4.2813,4.294,4.3148,4.3244,4.3387,4.3722,4.4198,4.4501,4.4756,4.5106,4.555,4.5794,3.4712,3.4164,3.3714,3.3564,3.3714,3.4599,3.5061,3.5259,3.6053,3.6498,3.6548,3.6612,3.6859,3.7303,3.7859,3.8644,3.928,3.9719,3.9817,3.9817,3.9817,3.9817,3.9817,3.9817,3.9817,3.9817,3.9817,3.9817,3.9817,3.9817,3.9817,3.9817,3.9817,3.9817,3.9817,3.9817,3.9817,3.9817,3.9817,3.9817,3.9817,3.9848,3.9896,3.9879,4.0086,4.0181,4.0276,4.0515,4.0705,4.0737,4.1039,4.115,4.1087,4.0944,4.0991,4.1166,4.123,4.1309,4.15,4.1611,4.1643,4.1623,4.1544,4.1611,4.1563,4.1389,4.1564,4.2072,4.2658,4.3284,4.3807,4.4043,4.3991,4.394,4.3942,4.3978,4.3944,4.3724,4.3419,4.3115,4.2925,4.2813,4.2813,4.2813,4.2813,4.2813,4.2813,4.2813,4.2813,4.2813,4.2813,4.2813,4.2813,4.2813,4.2813,4.2813,4.2813,4.2813,4.2813,4.2813,4.2813,4.2813,4.2813,4.2813,4.2813,4.2909,4.2957,4.3005,4.3244,4.3674,4.3947,4.4239,4.4953,4.5621,4.6209,3.511,3.4612,3.4313,3.4263,3.4313,3.4762,3.516,3.5458,3.5954,3.635,3.6498,3.6612,3.6908,3.7401,3.7957,3.8791,3.9573,3.9817,3.9817,3.9817,3.9817,3.9817,3.9768,3.9768,3.9817,3.9817,3.9817,3.9768,3.9817,3.9817,3.9817,3.9817,3.9817,3.9817,3.9817,3.9817,3.9817,3.9817,3.9833,3.9833,3.9864,3.9927,4.0102,4.0308,4.0419,4.0531,4.061,4.088,4.1055,4.1134,4.1338,4.1547,4.1532,4.1468,4.1389,4.1532,4.1579,4.1576,4.175,4.1798,4.1766,4.1782,4.1798,4.1798,4.1766,4.1726,4.1935,4.2648,4.3003,4.3606,4.42,4.4387,4.4304,4.4003,4.3972,4.3974,4.3757,4.3572,4.3336,4.3097,4.3086,4.2942,4.2813,4.2813,4.2813,4.2813,4.2813,4.2813,4.2813,4.2813,4.2813,4.2813,4.2813,4.2813,4.2813,4.2813,4.2813,4.2813,4.2813,4.2813,4.2813,4.2813,4.2813,4.2813,4.2813,4.2813,4.2813,4.2909,4.3035,4.3231,4.3722,4.4246,4.5047,4.5724,4.6266,3.5557,3.516,3.5061,3.5011,3.5011,3.5096,3.5408,3.5756,3.5954,3.6251,3.6562,3.6612,3.6908,3.745,3.8139,3.8938,3.9768,3.9719,3.9606,3.9557,3.9427,3.9427,3.9475,3.9475,3.9378,3.9296,3.9455,3.9636,3.9768,3.9817,3.9817,3.9817,3.9817,3.9817,3.9817,3.9928,3.9896,3.9944,3.9959,4.0023,4.0054,4.0245,4.0499,4.0769,4.0848,4.0896,4.0928,4.123,4.1354,4.1433,4.1608,4.1782,4.1782,4.1782,4.1798,4.1798,4.1798,4.1798,4.1798,4.1798,4.1798,4.1798,4.1798,4.1798,4.1782,4.1869,4.2211,4.3212,4.3485,4.3824,4.4477,4.4765,4.4514,4.4144,4.3993,4.3958,4.3639,4.3355,4.309,4.299,4.3114,4.2921,4.2613,4.2556,4.2556,4.2765,4.2813,4.2813,4.2813,4.2813,4.2813,4.2813,4.2813,4.2813,4.2813,4.2813,4.2813,4.2813,4.2813,4.2813,4.2813,4.2813,4.2813,4.283,4.2813,4.2813,4.2813,4.2847,4.2995,4.3242,4.369,4.4289,4.5054,4.5736,4.6371,3.5756,3.5657,3.521,3.5011,3.511,3.5508,3.5706,3.5855,3.6301,3.6498,3.6612,3.6612,3.6893,3.75,3.8433,3.9167,3.9475,3.9313,3.9118,3.9069,3.8727,3.8546,3.8464,3.8399,3.8608,3.8719,3.8885,3.9236,3.96,3.9717,3.9767,3.975,3.9733,3.9751,3.9731,3.9872,4.0229,4.0227,4.0449,4.0626,4.0642,4.0689,4.0769,4.0896,4.1087,4.1246,4.1277,4.1497,4.1671,4.1703,4.175,4.1798,4.1798,4.1798,4.1798,4.1798,4.1798,4.1798,4.1798,4.1798,4.1798,4.1798,4.1798,4.1798,4.1798,4.1849,4.2243,4.3365,4.3467,4.3907,4.4531,4.4616,4.4363,4.4026,4.3722,4.3569,4.3332,4.2927,4.2733,4.2505,4.2526,4.2389,4.2132,4.2225,4.2316,4.2556,4.2813,4.2748,4.2813,4.2813,4.2813,4.2813,4.2813,4.2813,4.2813,4.2813,4.2813,4.2813,4.2813,4.2813,4.283,4.2847,4.2864,4.2881,4.2881,4.2967,4.3052,4.3087,4.3052,4.332,4.3806,4.443,4.5108,4.5741,4.6471,3.6251,3.6251,3.6004,3.5905,3.5954,3.6152,3.6251,3.6301,3.6498,3.6612,3.6612,3.6612,3.6908,3.75,3.8237,3.8644,3.884,3.8678,3.8531,3.8562,3.8316,3.8169,3.8264,3.8386,3.8493,3.847,3.8768,3.907,3.9365,3.9383,3.9383,3.9417,3.9433,3.938,3.9485,3.9573,3.9601,3.9697,4.0022,4.0394,4.0636,4.0901,4.1182,4.1373,4.1516,4.1528,4.1592,4.1671,4.1798,4.1798,4.1798,4.1798,4.1798,4.1798,4.1798,4.1798,4.1798,4.1798,4.1798,4.1798,4.1798,4.1798,4.1798,4.1798,4.1798,4.1849,4.2243,4.3365,4.3467,4.3873,4.4447,4.4414,4.3957,4.3585,4.3263,4.2907,4.2703,4.2533,4.2251,4.2095,4.1905,4.1816,4.1718,4.1648,4.1822,4.222,4.246,4.2556,4.2652,4.2813,4.2813,4.2813,4.2813,4.2813,4.2813,4.2813,4.2813,4.2813,4.283,4.2847,4.2881,4.2899,4.3035,4.3224,4.3426,4.346,4.3395,4.3343,4.3309,4.3614,4.3906,4.4527,4.5153,4.5977,4.6711,3.6612,3.6612,3.6612,3.6612,3.6612,3.6612,3.6612,3.6612,3.6612,3.6612,3.6612,3.6612,3.6908,3.7352,3.7795,3.8105,3.8203,3.8056,3.8067,3.8048,3.7995,3.7957,3.8008,3.8304,3.8379,3.8444,3.8545,3.8766,3.8811,3.8943,3.8994,3.9094,3.9158,3.9154,3.9165,3.9307,3.9449,3.9637,3.9906,4.0283,4.0642,4.0995,4.1375,4.1636,4.1782,4.1798,4.1798,4.1798,4.1798,4.1798,4.1798,4.1798,4.1798,4.1798,4.1798,4.1798,4.1798,4.1798,4.1798,4.1798,4.1798,4.1798,4.1798,4.1798,4.1798,4.1833,4.2141,4.3162,4.3212,4.3534,4.389,4.3941,4.3483,4.3025,4.2617,4.2259,4.1952,4.2038,4.2058,4.1882,4.1711,4.1439,4.1321,4.1098,4.1292,4.1772,4.2076,4.2316,4.2508,4.2748,4.2813,4.2813,4.2813,4.2813,4.2813,4.2813,4.2813,4.2881,4.2899,4.2967,4.3052,4.3306,4.3512,4.37,4.3871,4.394,4.3856,4.3769,4.3666,4.3957,4.4248,4.4603,4.5227,4.6053,4.6843,3.6612,3.6612,3.6612,3.6612,3.6612,3.6612,3.6612,3.6612,3.6612,3.6612,3.6612,3.6612,3.6908,3.7253,3.7401,3.7697,3.8105,3.7647,3.768,3.7661,3.748,3.7548,3.7711,3.7814,3.7816,3.7861,3.8213,3.8324,3.8281,3.8582,3.877,3.9019,3.8994,3.9039,3.9115,3.9256,3.9468,3.9656,3.9922,4.0312,4.0698,4.1021,4.1273,4.1715,4.1798,4.1798,4.1798,4.1798,4.1798,4.1798,4.1798,4.1798,4.1798,4.1798,4.1798,4.1798,4.1798,4.1798,4.1798,4.1798,4.1798,4.1798,4.1798,4.1798,4.1798,4.1798,4.2157,4.2719,4.2923,4.3076,4.3212,4.3162,4.2974,4.2617,4.2259,4.2054,4.1901,4.1849,4.1853,4.1738,4.1665,4.1612,4.1523,4.147,4.1147,4.1568,4.1996,4.222,4.2508,4.27,4.2748,4.2813,4.2813,4.2813,4.2813,4.2847,4.295,4.3087,4.3189,4.3306,4.3409,4.3632,4.394,4.4025,4.4162,4.4265,4.4368,4.4248,4.4231,4.4385,4.4623,4.4877,4.5298,4.5973,4.6711,3.6103,3.6152,3.6464,3.6612,3.6612,3.6612,3.6612,3.6612,3.6612,3.6612,3.6612,3.6612,3.6711,3.6859,3.6908,3.7007,3.7234,3.7293,3.7327,3.7425,3.7386,3.7511,3.7672,3.7834,3.7936,3.7995,3.8192,3.8353,3.8382,3.8485,3.853,3.8671,3.8772,3.8729,3.8803,3.8958,3.907,3.9248,3.9582,3.9981,4.0445,4.0909,4.1269,4.1731,4.1798,4.1798,4.1798,4.1798,4.1798,4.1798,4.1798,4.1798,4.1798,4.1798,4.1798,4.1798,4.1798,4.1798,4.1798,4.1798,4.1798,4.1798,4.1798,4.1798,4.1798,4.1798,4.2105,4.2464,4.2668,4.2805,4.2856,4.2821,4.2617,4.2259,4.2003,4.1849,4.1798,4.1798,4.1885,4.1888,4.2064,4.2173,4.2083,4.1991,4.1619,4.1392,4.181,4.2172,4.2412,4.2652,4.2748,4.2813,4.2813,4.2864,4.2881,4.3001,4.3186,4.3309,4.3463,4.3649,4.3786,4.4077,4.4316,4.4385,4.4488,4.4659,4.4745,4.4727,4.4745,4.4779,4.4897,4.5101,4.5556,4.5909,4.6461,3.5415,3.5528,3.6109,3.6464,3.6612,3.6612,3.6612,3.6612,3.6612,3.6612,3.6612,3.6612,3.6612,3.6612,3.6612,3.6612,3.6799,3.6954,3.7159,3.7379,3.7599,3.7753,3.7914,3.8061,3.8207,3.8265,3.8382,3.8529,3.85,3.8529,3.8551,3.8551,3.8543,3.8551,3.8551,3.8491,3.8491,3.8647,3.8893,3.9567,4.0151,4.0548,4.1166,4.1628,4.1798,4.1798,4.1798,4.1798,4.1798,4.1798,4.1798,4.1798,4.1798,4.1798,4.1798,4.1798,4.1798,4.1798,4.1798,4.1798,4.1798,4.1798,4.1798,4.1798,4.1798,4.1798,4.2003,4.2259,4.2412,4.2447,4.2447,4.2361,4.2259,4.1952,4.1952,4.1798,4.1798,4.1849,4.1987,4.2125,4.2316,4.2573,4.2731,4.2621,4.2145,4.1867,4.2026,4.2244,4.222,4.2508,4.2748,4.2813,4.2813,4.2881,4.2967,4.3155,4.3392,4.3683,4.3854,4.4043,4.4231,4.4455,4.4626,4.4727,4.4864,4.5053,4.5053,4.4933,4.4984,4.507,4.5137,4.5171,4.5389,4.5708,4.611,3.4612,3.4689,3.5514,3.6138,3.6519,3.6612,3.6612,3.6612,3.6612,3.6612,3.6597,3.6548,3.6498,3.6498,3.64,3.633,3.6495,3.6807,3.7084,3.7338,3.7695,3.8089,3.8301,3.8404,3.8426,3.8514,3.8491,3.8491,3.8491,3.8491,3.8491,3.8491,3.8491,3.8491,3.8491,3.8491,3.8491,3.8543,3.8543,3.9219,3.9877,4.0239,4.0857,4.1423,4.1798,4.1798,4.1798,4.1798,4.1798,4.1798,4.1798,4.1798,4.1798,4.1798,4.1798,4.1798,4.1798,4.1798,4.1798,4.1798,4.1798,4.1798,4.1798,4.1798,4.1798,4.1798,4.1798,4.2054,4.2003,4.1952,4.1901,4.1901,4.1849,4.1849,4.1849,4.1798,4.1798,4.2054,4.2243,4.2499,4.2668,4.2891,4.3132,4.3221,4.2725,4.2476,4.2438,4.2431,4.2292,4.2429,4.2765,4.2864,4.2881,4.3035,4.3155,4.3392,4.3614,4.3923,4.4214,4.4436,4.459,4.4779,4.4933,4.5036,4.507,4.5104,4.5121,4.5104,4.5121,4.5121,4.5121,4.5155,4.5306,4.5457,4.5859,3.3705,3.383,3.5019,3.5652,3.5877,3.6376,3.6612,3.6612,3.6612,3.6612,3.6498,3.6251,3.6053,3.6004,3.577,3.5707,3.5934,3.6147,3.651,3.6846,3.7469,3.7812,3.8046,3.8335,3.8491,3.8491,3.8491,3.8491,3.8491,3.8491,3.8491,3.8491,3.8491,3.8491,3.8491,3.8491,3.8491,3.8491,3.8595,3.8893,3.9618,4.0047,4.0564,4.1269,4.1577,4.1782,4.1798,4.1798,4.1798,4.1798,4.1798,4.1798,4.1798,4.1798,4.1798,4.1798,4.1798,4.1798,4.1798,4.1798,4.1798,4.1798,4.1798,4.1798,4.1798,4.1798,4.1798,4.1798,4.1798,4.1798,4.1849,4.1849,4.1849,4.1849,4.1798,4.1798,4.1901,4.2243,4.255,4.2872,4.3127,4.3737,4.4178,4.406,4.364,4.3155,4.3085,4.2733,4.2561,4.2613,4.283,4.2933,4.3001,4.3172,4.3409,4.3717,4.3991,4.4299,4.4608,4.4864,4.5001,4.5036,4.5053,4.5087,4.5104,4.5121,4.5121,4.5121,4.5121,4.5121,4.5121,4.5121,4.5222,4.5323,4.5457,3.2918,3.3056,3.4479,3.5102,3.5292,3.617,3.6612,3.6562,3.64,3.6301,3.6202,3.5756,3.5508,3.5408,3.5224,3.5067,3.5361,3.5753,3.5963,3.635,3.7041,3.7481,3.78,3.806,3.8269,3.8439,3.8491,3.8491,3.8491,3.8491,3.8491,3.8491,3.8491,3.8491,3.8491,3.8491,3.8491,3.8491,3.8595,3.8789,3.9411,3.9929,4.0445,4.1012,4.1474,4.1798,4.1798,4.1798,4.1798,4.1798,4.1798,4.1798,4.1798,4.1798,4.1798,4.1798,4.1798,4.1798,4.1798,4.1798,4.1798,4.1798,4.1798,4.1798,4.1798,4.1798,4.1798,4.1798,4.1798,4.1798,4.1798,4.1798,4.1798,4.1798,4.1849,4.1849,4.2208,4.2617,4.3025,4.328,4.3687,4.4397,4.4953,4.4885,4.4614,4.4157,4.3719,4.3283,4.2947,4.3018,4.3104,4.3189,4.3392,4.3632,4.3871,4.4145,4.4419,4.4643,4.4899,4.5104,4.5104,4.507,4.5104,4.5121,4.5121,4.5121,4.5121,4.5121,4.5121,4.5121,4.5121,4.5121,4.5121,4.5172,4.5273,3.2091,3.2329,3.3907,3.4535,3.4801,3.5923,3.6449,3.6498,3.6004,3.5756,3.5756,3.521,3.4961,3.4961,3.4911,3.4853,3.4957,3.5443,3.5679,3.5967,3.6517,3.7036,3.7486,3.7747,3.8112,3.8387,3.8491,3.8491,3.8491,3.8491,3.8491,3.8491,3.8491,3.8491,3.8491,3.8491,3.8491,3.8491,3.8543,3.8789,3.9204,3.9774,4.029,4.0806,4.132,4.1628,4.1731,4.1798,4.1798,4.1798,4.1798,4.1798,4.1798,4.1798,4.1798,4.1798,4.1798,4.1798,4.1798,4.1798,4.1798,4.1798,4.1798,4.1798,4.1798,4.1798,4.1798,4.1798,4.1798,4.1798,4.1798,4.1798,4.1798,4.1849,4.1901,4.2157,4.2566,4.2974,4.3432,4.3788,4.4143,4.4667,4.497,4.5037,4.502,4.4765,4.4325,4.4105,4.3767,4.3626,4.3668,4.3734,4.3906,4.4111,4.4334,4.4505,4.4693,4.4899,4.4967,4.5121,4.5121,4.5121,4.5121,4.5121,4.5121,4.5121,4.5121,4.5121,4.5121,4.5121,4.5121,4.5121,4.5121,4.5121,4.5172,3.1917,3.2227,3.3235,3.3815,3.4134,3.5033,3.5657,3.5905,3.5458,3.521,3.521,3.4662,3.4349,3.4413,3.4014,3.4049,3.4257,3.4582,3.4879,3.5306,3.5836,3.6513,3.704,3.7429,3.7942,3.8321,3.8462,3.8514,3.8491,3.8491,3.8491,3.8491,3.8491,3.8491,3.8491,3.8491,3.8491,3.8491,3.8491,3.8647,3.8893,3.9411,3.9929,4.0497,4.1063,4.1372,4.1731,4.1798,4.1798,4.1798,4.1798,4.1798,4.1798,4.1798,4.1798,4.1798,4.1798,4.1798,4.1798,4.1798,4.1798,4.1798,4.1798,4.1798,4.1798,4.1798,4.1798,4.1798,4.1798,4.1798,4.1798,4.1798,4.1798,4.1849,4.2054,4.2464,4.2872,4.3382,4.3856,4.4194,4.4549,4.4768,4.5071,4.5104,4.5037,4.507,4.4951,4.468,4.4459,4.4301,4.4214,4.4214,4.4299,4.4471,4.4573,4.4727,4.4899,4.507,4.5104,4.5121,4.5121,4.5121,4.5121,4.5121,4.5121,4.5121,4.5121,4.5121,4.5121,4.5121,4.5121,4.5121,4.5121,4.5138,4.5121,3.1837,3.2166,3.2945,3.3655,3.4286,3.4579,3.4812,3.4812,3.4513,3.4363,3.4263,3.355,3.3364,3.3514,3.3277,3.3306,3.3731,3.4063,3.4304,3.4555,3.5114,3.5595,3.6169,3.6782,3.7328,3.7814,3.8279,3.8397,3.85,3.8491,3.8491,3.8491,3.8491,3.8491,3.8491,3.8491,3.8491,3.8491,3.8491,3.8491,3.8751,3.9048,3.9618,4.0187,4.0703,4.1218,4.168,4.1798,4.1798,4.1798,4.1798,4.1798,4.1798,4.1798,4.1798,4.1798,4.1798,4.1798,4.1798,4.1798,4.1798,4.1798,4.1798,4.1798,4.1798,4.1798,4.1798,4.1798,4.1798,4.1798,4.1798,4.1798,4.1798,4.1798,4.231,4.277,4.328,4.3856,4.4211,4.4549,4.4801,4.502,4.5121,4.5121,4.5104,4.5104,4.5087,4.4985,4.4832,4.4729,4.4659,4.4659,4.4693,4.4796,4.4864,4.4899,4.5001,4.5104,4.5104,4.5121,4.5121,4.5121,4.5121,4.5121,4.5121,4.5121,4.5121,4.5121,4.5121,4.5121,4.5138,4.519,4.5207,4.519,4.5173,3.1898,3.2219,3.2965,3.3819,3.4657,3.42,3.3764,3.3314,3.3213,3.3263,3.3063,3.2259,3.2209,3.2611,3.2561,3.2862,3.3222,3.3598,3.3873,3.3921,3.436,3.4855,3.5342,3.5707,3.672,3.7297,3.7825,3.8295,3.8485,3.8491,3.8491,3.8491,3.8491,3.8491,3.8491,3.8491,3.8491,3.8491,3.8491,3.8543,3.8633,3.9048,3.9567,4.0099,4.06,4.1115,4.1577,4.1731,4.1798,4.1798,4.1798,4.1798,4.1798,4.1798,4.1798,4.1798,4.1798,4.1798,4.1798,4.1798,4.1798,4.1798,4.1798,4.1798,4.1798,4.1798,4.1798,4.1798,4.1798,4.1798,4.1798,4.1849,4.1849,4.2157,4.2617,4.3127,4.3636,4.416,4.4565,4.4869,4.4953,4.5121,4.5121,4.5121,4.5121,4.5121,4.5121,4.5121,4.5087,4.5019,4.4984,4.495,4.495,4.4967,4.5001,4.5036,4.507,4.5121,4.5121,4.5121,4.5121,4.5121,4.5121,4.5121,4.5121,4.5121,4.5121,4.5121,4.5121,4.5121,4.5173,4.5275,4.5293,4.5241,4.5395,3.2019,3.2541,3.3134,3.3343,3.32,3.3063,3.2712,3.2159,3.1718,3.187,3.2071,3.1907,3.1806,3.1958,3.2008,3.231,3.2777,3.3149,3.3537,3.3833,3.4084,3.438,3.5038,3.5508,3.6294,3.7188,3.7796,3.8199,3.8366,3.8439,3.8491,3.8491,3.8491,3.8491,3.8491,3.8491,3.8491,3.8491,3.8491,3.8491,3.8595,3.8633,3.8996,3.9567,4.0136,4.0703,4.1166,4.1628,4.1747,4.1798,4.1798,4.1798,4.1798,4.1798,4.1798,4.1798,4.1798,4.1798,4.1798,4.1798,4.1798,4.1798,4.1798,4.1798,4.1798,4.1798,4.1798,4.1798,4.1798,4.1798,4.1849,4.1849,4.2003,4.2464,4.2974,4.3483,4.3991,4.4464,4.4919,4.502,4.5121,4.5121,4.5121,4.5121,4.5121,4.5121,4.5121,4.5121,4.5121,4.507,4.507,4.5053,4.507,4.5087,4.5121,4.5121,4.5121,4.5121,4.5121,4.5121,4.5121,4.5121,4.5121,4.5121,4.5121,4.5121,4.5121,4.5121,4.5121,4.5121,4.5138,4.5241,4.5275,4.5241,4.5567,3.2059,3.2599,3.2925,3.2862,3.2561,3.236,3.1907,3.1466,3.1113,3.1012,3.1062,3.1113,3.1214,3.1416,3.1466,3.1769,3.2235,3.2717,3.2972,3.333,3.3804,3.3993,3.4544,3.5115,3.5549,3.6401,3.7441,3.8034,3.815,3.8439,3.8491,3.8491,3.8491,3.8491,3.8491,3.8491,3.8491,3.8491,3.8491,3.8491,3.8491,3.8595,3.8789,3.9359,3.9929,4.0445,4.1012,4.1474,4.1747,4.1798,4.1798,4.1798,4.1798,4.1798,4.1798,4.1798,4.1798,4.1798,4.1798,4.1798,4.1798,4.1798,4.1798,4.1798,4.1798,4.1798,4.1798,4.1798,4.1798,4.1798,4.1798,4.1849,4.2157,4.2566,4.3127,4.3687,4.4295,4.4801,4.502,4.5071,4.5121,4.5121,4.5121,4.5121,4.5121,4.5121,4.5121,4.5121,4.5121,4.5121,4.5121,4.5121,4.5121,4.5121,4.5121,4.5121,4.5121,4.5121,4.5121,4.5121,4.5121,4.5121,4.5121,4.5121,4.5121,4.5121,4.5121,4.5121,4.5121,4.5121,4.5138,4.519,4.5224,4.5293,4.5584,3.2011,3.2452,3.2576,3.2511,3.231,3.1907,3.1416,3.0961,3.0872,3.0619,3.0315,3.0315,3.0518,3.0759,3.091,3.1315,3.1731,3.2223,3.2449,3.2865,3.3346,3.3681,3.4041,3.4463,3.5146,3.5929,3.6928,3.7462,3.78,3.8112,3.8335,3.8439,3.8491,3.8491,3.8491,3.8491,3.8491,3.8491,3.8491,3.8491,3.8491,3.8543,3.8789,3.9256,3.9877,4.0394,4.0909,4.147,4.1794,4.1798,4.1798,4.1798,4.1798,4.1798,4.1798,4.1798,4.1798,4.1798,4.1798,4.1798,4.1798,4.1798,4.1798,4.1798,4.1798,4.1798,4.1798,4.1814,4.1814,4.1814,4.1814,4.2019,4.2393,4.2854,4.3449,4.4008,4.4633,4.5088,4.5121,4.5121,4.5121,4.5121,4.5121,4.5121,4.5121,4.5121,4.5121,4.5121,4.5121,4.5121,4.5121,4.5121,4.5121,4.5121,4.5121,4.5121,4.5121,4.5121,4.5121,4.5121,4.5121,4.5121,4.5121,4.5121,4.5121,4.5121,4.5121,4.5121,4.5121,4.5121,4.5121,4.5156,4.5241,4.5344,4.5584,3.1771,3.1901,3.2377,3.2109,3.1365,3.1214,3.0872,3.0416,3.0366,3.0264,3.0214,3.0214,3.0315,3.0366,3.0366,3.067,3.1214,3.1781,3.2272,3.2688,3.3442,3.3724,3.4034,3.4554,3.5404,3.6096,3.6663,3.7168,3.733,3.7643,3.806,3.8425,3.8491,3.8491,3.8491,3.8491,3.8491,3.8491,3.8491,3.8491,3.8491,3.8543,3.8529,3.9048,3.9685,4.0084,4.0662,4.167,4.1901,4.1893,4.1814,4.1814,4.1798,4.1798,4.1798,4.1798,4.1798,4.1798,4.1798,4.1798,4.1798,4.1798,4.1798,4.1798,4.1814,4.1846,4.1861,4.1877,4.1877,4.1945,4.1996,4.2439,4.2798,4.3564,4.4176,4.4633,4.5106,4.5207,4.519,4.5156,4.5138,4.5121,4.5121,4.5121,4.5121,4.5121,4.5121,4.5121,4.5121,4.5121,4.5121,4.5121,4.5121,4.5121,4.5121,4.5121,4.5121,4.5121,4.5121,4.5121,4.5121,4.5121,4.5121,4.5121,4.5121,4.5121,4.5121,4.5121,4.5121,4.5121,4.5121,4.5156,4.5241,4.5327,4.5481]},{"header":{"parameterUnit":"m.s-1","parameterCategory":1,"la1":31.0,"la2":29.5877,"lo1":-88.7671,"lo2":-86.6584,"dy":0.0162,"dx":0.0185,"nx":115,"ny":88,"refTime":"2023-04-09T12:00:00:Z","depth":0,"parameterNumber":3,"parameterNumberName":"V-component_of_WINDS"},"data":[0.0,0.0,0.0,0.0,0.0,0.0,0.0,0.0,0.0,0.0,0.0,0.0,0.0,0.0,0.0,0.0,0.0,0.0,0.0,0.0,0.0,0.0,0.0,0.0,0.0,0.0,0.0,0.0,0.0,0.0,0.0,0.0,0.0,0.0,0.0,0.0,0.0,0.0,0.0,0.0,0.0,0.0,0.0,0.0,0.0,0.0,0.0,0.0,0.0,0.0,0.0,0.0,0.0,0.0,0.0,0.0,0.0,0.0,0.0,0.0,0.0,0.0,0.0,0.0,0.0,0.0,0.0,0.0,0.0,0.0,0.0,0.0,0.0,0.0,0.0,0.0,0.0,0.0,0.0,0.0,0.0,0.0,0.0,0.0,0.0,0.0,0.0,0.0,0.0,0.0,0.0,0.0,0.0,0.0,0.0,0.0,0.0,0.0,0.0,0.0,0.0,0.0,0.0,0.0,0.0,0.0,0.0,0.0,0.0,0.0,0.0,0.0,0.0,0.0,0.0,0.0,0.0,0.0,0.0,0.0,0.0,0.0,0.0,0.0,0.0,0.0,0.0,0.0,0.0,0.0,0.0,0.0,0.0,0.0,0.0,0.0,0.0,0.0,0.0,0.0,0.0,0.0,0.0,0.0,0.0,0.0,0.0,0.0,0.0,0.0,0.0,0.0,0.0,0.0,0.0,0.0,0.0,0.0,0.0,0.0,0.0,0.0,0.0,0.0,0.0,0.0,0.0,0.0,0.0,0.0,0.0,0.0,0.0,0.0,0.0,0.0,0.0,0.0,0.0,0.0,0.0,0.0,0.0,0.0,0.0,0.0,0.0,0.0,0.0,0.0,0.0,0.0,0.0,0.0,0.0,0.0,0.0,0.0,0.0,0.0,0.0,0.0,0.0,0.0,0.0,0.0,0.0,0.0,0.0,0.0,0.0,0.0,0.0,0.0,0.0,0.0,0.0,0.0,0.0,0.0,0.0,0.0,0.0,0.0,0.0,0.0,0.0,0.0,0.0,0.0,0.0,0.0,0.0,0.0,0.0,0.0,0.0,0.0,0.0,0.0,0.0,0.0,0.0,0.0,0.0,0.0,0.0,0.0,0.0,0.0,0.0,0.0,0.0,0.0,0.0,0.0,0.0,0.0,0.0,0.0,0.0,0.0,0.0,0.0,0.0,0.0,0.0,0.0,0.0,0.0,0.0,0.0,0.0,0.0,0.0,0.0,0.0,0.0,0.0,0.0,0.0,0.0,0.0,0.0,0.0,0.0,0.0,0.0,0.0,0.0,0.0,0.0,0.0,0.0,0.0,0.0,0.0,0.0,0.0,0.0,0.0,0.0,0.0,0.0,0.0,0.0,0.0,0.0,0.0,0.0,0.0,0.0,0.0,0.0,0.0,0.0,0.0,0.0,0.0,0.0,0.0,0.0,0.0,0.0,0.0,0.0,0.0,0.0,0.0,0.0,0.0,0.0,0.0,0.0,0.0,0.0,0.0,0.0,0.0,0.0,0.0,0.0,0.0,0.0,0.0,0.0,0.0,0.0,0.0,0.0,0.0,0.0,0.0,0.0,0.0,0.0,0.0,0.0,0.0,0.0,0.0,0.0,0.0,0.0,0.0,0.0,0.0,0.0,0.0,0.0,0.0,0.0,0.0,0.0,0.0,0.0,0.0,0.0,0.0,0.0,0.0,0.0,0.0,0.0,0.0,0.0,0.0,0.0,0.0,0.0,0.0,0.0,0.0,0.0,0.0,0.0,0.0,0.0,0.0,0.0,0.0,0.0,0.0,0.0,0.0,0.0,0.0,0.0,0.0,0.0,0.0,0.0,0.0,0.0,0.0,0.0,0.0,0.0,0.0,0.0,0.0,0.0,0.0,0.0,0.0,0.0,0.0,0.0,0.0,0.0,0.0,0.0,0.0,0.0,0.0,0.0,0.0,0.0,0.0,0.0,0.0,0.0,0.0,0.0,0.0,0.0,0.0,0.0,0.0,0.0,0.0,0.0,0.0,0.0,0.0,0.0,0.0,0.0,0.0,0.0,0.0,0.0,0.0,0.0,0.0,0.0,0.0,0.0,0.0,0.0,0.0,0.0,0.0,0.0,0.0,0.0,0.0,0.0,0.0,0.0,0.0,0.0,0.0,0.0,0.0,0.0,0.0,0.0,0.0,0.0,0.0,0.0,0.0,0.0,0.0,0.0,0.0,0.0,0.0,0.0,0.0,0.0,0.0,0.0,0.0,0.0,0.0,0.0,0.0,0.0,0.0,0.0,0.0,0.0,0.0,0.0,0.0,0.0,0.0,0.0,0.0,0.0,0.0,0.0,0.0,0.0,0.0,0.0,0.0,0.0,0.0,0.0,0.0,0.0,0.0,0.0,0.0,0.0,0.0,0.0,0.0,0.0,0.0,0.0,0.0,0.0,0.0,0.0,0.0,0.0,0.0,0.0,0.0,0.0,0.0,0.0,0.0,0.0,0.0,0.0,0.0,0.0,0.0,0.0,0.0,0.0,0.0,0.0,0.0,0.0,0.0,0.0,0.0,0.0,0.0,0.0,0.0,0.0,0.0,0.0,0.0,0.0,0.0,0.0,0.0,0.0,0.0,0.0,0.0,0.0,0.0,0.0,0.0,0.0,0.0,0.0,0.0,0.0,0.0,0.0,0.0,0.0,0.0,0.0,0.0,0.0,0.0,0.0,0.0,0.0,0.0,0.0,0.0,0.0,0.0,0.0,0.0,0.0,0.0,0.0,0.0,0.0,0.0,0.0,0.0,0.0,0.0,0.0,0.0,0.0,0.0,0.0,0.0,0.0,0.0,0.0,0.0,0.0,0.0,0.0,0.0,0.0,0.0,0.0,0.0,0.0,0.0,0.0,0.0,0.0,0.0,0.0,0.0,0.0,0.0,0.0,0.0,0.0,0.0,0.0,0.0,0.0,0.0,0.0,0.0,0.0,0.0,0.0,0.0,0.0,0.0,0.0,0.0,0.0,0.0,0.0,0.0,0.0,0.0,0.0,0.0,0.0,0.0,0.0,0.0,0.0,0.0,0.0,0.0,0.0,0.0,0.0,0.0,0.0,0.0,0.0,0.0,0.0,0.0,0.0,0.0,0.0,0.0,0.0,0.0,0.0,0.0,0.0,0.0,0.0,0.0,0.0,0.0,0.0,0.0,0.0,0.0,0.0,0.0,0.0,0.0,0.0,0.0,0.0,0.0,0.0,0.0,0.0,0.0,0.0,0.0,0.0,0.0,0.0,0.0,0.0,0.0,0.0,0.0,0.0,0.0,0.0,0.0,0.0,0.0,0.0,0.0,0.0,0.0,0.0,0.0,0.0,0.0,0.0,0.0,0.0,0.0,0.0,0.0,0.0,0.0,0.0,0.0,0.0,0.0,0.0,0.0,0.0,0.0,0.0,0.0,0.0,0.0,0.0,0.0,0.0,0.0,0.0,0.0,0.0,0.0,0.0,0.0,0.0,0.0,0.0,0.0,0.0,0.0,0.0,0.0,0.0,0.0,0.0,0.0,0.0,0.0,0.0,0.0,0.0,0.0,0.0,0.0,0.0,0.0,0.0,0.0,0.0,0.0,0.0,0.0,0.0,0.0,0.0,0.0,0.0,0.0,0.0,0.0,0.0,0.0,0.0,0.0,0.0,0.0,0.0,0.0,0.0,0.0,0.0,0.0,0.0,0.0,0.0,0.0,0.0,0.0,0.0,0.0,0.0,0.0,0.0,0.0,0.0,0.0,0.0,0.0,0.0,0.0,0.0,0.0,0.0,0.0,0.0,0.0,0.0,0.0,0.0,0.0,0.0,0.0,0.0,0.0,0.0,0.0,0.0,0.0,0.0,0.0,0.0,0.0,0.0,0.0,0.0,0.0,0.0,0.0,0.0,0.0,0.0,0.0,0.0,0.0,0.0,0.0,0.0,0.0,0.0,0.0,0.0,0.0,0.0,0.0,0.0,0.0,0.0,0.0,0.0,0.0,0.0,0.0,0.0,0.0,0.0,0.0,0.0,0.0,0.0,0.0,0.0,0.0,0.0,0.0,0.0,0.0,0.0,0.0,0.0,0.0,0.0,0.0,0.0,0.0,0.0,0.0,0.0,0.0,0.0,0.0,0.0,0.0,0.0,0.0,0.0,0.0,0.0,0.0,0.0,0.0,0.0,0.0,0.0,0.0,0.0,0.0,0.0,0.0,0.0,0.0,0.0,0.0,0.0,0.0,0.0,0.0,0.0,0.0,0.0,0.0,0.0,0.0,0.0,0.0,0.0,0.0,0.0,2.6626,0.0,0.0,0.0,0.0,0.0,0.0,0.0,0.0,0.0,0.0,0.0,0.0,0.0,0.0,0.0,0.0,0.0,0.0,0.0,0.0,0.0,0.0,0.0,0.0,0.0,0.0,0.0,0.0,0.0,0.0,0.0,0.0,0.0,0.0,0.0,0.0,0.0,0.0,0.0,0.0,0.0,0.0,0.0,0.0,0.0,0.0,0.0,0.0,0.0,0.0,0.0,0.0,0.0,0.0,0.0,0.0,0.0,0.0,0.0,0.0,0.0,0.0,0.0,0.0,0.0,0.0,0.0,0.0,0.0,0.0,0.0,0.0,0.0,0.0,0.0,0.0,0.0,0.0,0.0,0.0,0.0,0.0,0.0,0.0,0.0,0.0,0.0,0.0,0.0,0.0,0.0,0.0,0.0,0.0,0.0,0.0,0.0,0.0,0.0,0.0,0.0,0.0,0.0,0.0,0.0,0.0,0.0,0.0,0.0,0.0,2.5673,2.642,2.675,2.7031,2.7404,0.0,0.0,0.0,0.0,0.0,0.0,0.0,0.0,0.0,0.0,0.0,0.0,0.0,0.0,0.0,0.0,0.0,0.0,0.0,0.0,0.0,0.0,0.0,0.0,0.0,0.0,0.0,0.0,0.0,0.0,0.0,0.0,0.0,0.0,0.0,0.0,0.0,0.0,0.0,0.0,0.0,0.0,0.0,0.0,0.0,0.0,0.0,0.0,0.0,0.0,0.0,0.0,0.0,0.0,0.0,0.0,0.0,0.0,0.0,0.0,0.0,0.0,0.0,0.0,0.0,0.0,0.0,0.0,0.0,0.0,0.0,0.0,0.0,0.0,0.0,0.0,0.0,0.0,0.0,0.0,0.0,0.0,0.0,0.0,0.0,0.0,0.0,0.0,0.0,0.0,0.0,0.0,0.0,0.0,0.0,0.0,0.0,0.0,0.0,0.0,0.0,0.0,0.0,0.0,0.0,0.0,0.0,0.0,0.0,0.0,0.0,0.0,2.755,2.7889,2.8412,0.0,0.0,0.0,0.0,0.0,0.0,0.0,0.0,0.0,0.0,0.0,0.0,0.0,0.0,0.0,0.0,0.0,0.0,0.0,0.0,0.0,0.0,0.0,0.0,0.0,0.0,0.0,0.0,0.0,0.0,0.0,0.0,0.0,0.0,0.0,0.0,0.0,0.0,0.0,0.0,0.0,0.0,0.0,0.0,0.0,0.0,0.0,0.0,0.0,0.0,0.0,0.0,0.0,0.0,0.0,0.0,0.0,0.0,0.0,0.0,0.0,0.0,0.0,0.0,0.0,0.0,0.0,0.0,0.0,0.0,0.0,0.0,0.0,0.0,0.0,0.0,0.0,0.0,0.0,0.0,0.0,0.0,0.0,0.0,0.0,0.0,0.0,0.0,0.0,0.0,0.0,0.0,0.0,0.0,0.0,0.0,0.0,0.0,0.0,0.0,0.0,0.0,0.0,0.0,0.0,0.0,0.0,0.0,0.0,0.0,2.6978,2.7401,2.8052,0.0,2.9911,0.0,0.0,0.0,0.0,0.0,0.0,0.0,0.0,0.0,0.0,0.0,0.0,0.0,0.0,0.0,0.0,0.0,0.0,0.0,0.0,0.0,0.0,0.0,0.0,0.0,0.0,0.0,0.0,0.0,0.0,0.0,0.0,0.0,0.0,0.0,0.0,0.0,0.0,0.0,0.0,0.0,0.0,0.0,0.0,0.0,0.0,0.0,0.0,0.0,0.0,0.0,0.0,0.0,0.0,0.0,0.0,0.0,0.0,0.0,0.0,0.0,0.0,0.0,0.0,0.0,0.0,0.0,0.0,0.0,0.0,0.0,0.0,0.0,0.0,0.0,0.0,0.0,0.0,0.0,0.0,0.0,0.0,0.0,0.0,0.0,0.0,0.0,0.0,0.0,0.0,0.0,0.0,0.0,0.0,0.0,0.0,0.0,0.0,0.0,0.0,0.0,0.0,0.0,0.0,0.0,0.0,0.0,0.0,0.0,0.0,2.7939,2.8616,2.92,2.9935,0.0,0.0,0.0,0.0,0.0,0.0,0.0,0.0,0.0,0.0,0.0,0.0,0.0,0.0,0.0,0.0,0.0,0.0,0.0,0.0,0.0,0.0,0.0,0.0,0.0,0.0,0.0,0.0,0.0,0.0,0.0,0.0,0.0,0.0,0.0,0.0,0.0,0.0,0.0,0.0,0.0,0.0,0.0,0.0,0.0,0.0,0.0,0.0,0.0,0.0,0.0,0.0,0.0,0.0,0.0,0.0,0.0,0.0,0.0,0.0,0.0,0.0,0.0,0.0,0.0,0.0,0.0,0.0,0.0,0.0,0.0,0.0,0.0,0.0,0.0,0.0,0.0,0.0,0.0,0.0,0.0,0.0,0.0,0.0,0.0,0.0,0.0,0.0,0.0,0.0,0.0,0.0,0.0,0.0,0.0,0.0,0.0,0.0,0.0,0.0,0.0,0.0,0.0,0.0,0.0,0.0,0.0,0.0,0.0,0.0,2.8652,2.9216,3.0149,3.0586,3.1079,3.1604,0.0,0.0,0.0,0.0,0.0,0.0,0.0,0.0,0.0,0.0,0.0,0.0,0.0,0.0,0.0,0.0,0.0,0.0,0.0,0.0,0.0,0.0,0.0,0.0,0.0,0.0,0.0,0.0,0.0,0.0,0.0,0.0,0.0,0.0,0.0,0.0,0.0,0.0,0.0,0.0,0.0,0.0,0.0,0.0,0.0,0.0,0.0,0.0,0.0,0.0,0.0,0.0,0.0,0.0,0.0,0.0,0.0,0.0,0.0,0.0,0.0,0.0,0.0,0.0,0.0,0.0,0.0,0.0,0.0,0.0,0.0,0.0,0.0,0.0,0.0,0.0,0.0,0.0,0.0,0.0,0.0,0.0,0.0,0.0,0.0,0.0,0.0,0.0,0.0,0.0,0.0,0.0,0.0,0.0,0.0,0.0,0.0,0.0,0.0,0.0,0.0,0.0,0.0,0.0,0.0,0.0,0.0,0.0,2.9886,3.0168,3.0806,3.1801,3.2154,3.2337,0.0,0.0,0.0,0.0,0.0,0.0,0.0,0.0,0.0,0.0,0.0,0.0,0.0,0.0,0.0,0.0,0.0,0.0,0.0,0.0,0.0,0.0,0.0,0.0,0.0,0.0,0.0,0.0,0.0,0.0,0.0,0.0,0.0,0.0,0.0,0.0,0.0,0.0,0.0,0.0,0.0,0.0,0.0,0.0,0.0,0.0,0.0,0.0,0.0,0.0,0.0,0.0,0.0,0.0,0.0,0.0,0.0,0.0,0.0,0.0,0.0,0.0,0.0,0.0,0.0,0.0,0.0,0.0,0.0,0.0,0.0,0.0,0.0,0.0,0.0,0.0,0.0,0.0,0.0,0.0,0.0,0.0,0.0,0.0,0.0,0.0,0.0,0.0,0.0,0.0,0.0,0.0,0.0,0.0,0.0,0.0,0.0,0.0,0.0,0.0,0.0,0.0,0.0,0.0,0.0,0.0,0.0,0.0,0.0,3.0885,3.115,3.1516,3.1998,3.2264,3.2633,0.0,0.0,0.0,0.0,0.0,0.0,0.0,0.0,0.0,0.0,0.0,0.0,0.0,0.0,0.0,0.0,0.0,0.0,0.0,0.0,0.0,0.0,0.0,0.0,0.0,0.0,0.0,0.0,0.0,0.0,0.0,0.0,0.0,0.0,0.0,0.0,0.0,0.0,0.0,0.0,0.0,0.0,0.0,0.0,0.0,0.0,0.0,0.0,0.0,0.0,0.0,0.0,0.0,0.0,0.0,0.0,0.0,0.0,0.0,0.0,0.0,0.0,0.0,0.0,0.0,0.0,0.0,0.0,0.0,0.0,0.0,0.0,0.0,0.0,0.0,0.0,0.0,0.0,0.0,0.0,0.0,0.0,0.0,0.0,0.0,0.0,0.0,0.0,0.0,0.0,0.0,0.0,0.0,0.0,0.0,0.0,0.0,0.0,0.0,0.0,0.0,0.0,0.0,0.0,0.0,0.0,0.0,0.0,0.0,3.1873,0.0,3.2571,3.2799,3.2985,3.3367,0.0,0.0,0.0,0.0,0.0,0.0,0.0,0.0,0.0,0.0,0.0,0.0,0.0,0.0,0.0,0.0,0.0,0.0,0.0,0.0,0.0,0.0,0.0,0.0,0.0,0.0,0.0,0.0,0.0,0.0,0.0,0.0,0.0,0.0,0.0,0.0,0.0,0.0,0.0,0.0,0.0,0.0,0.0,0.0,0.0,0.0,0.0,0.0,0.0,0.0,0.0,0.0,0.0,0.0,0.0,0.0,0.0,0.0,0.0,0.0,0.0,0.0,0.0,0.0,0.0,0.0,0.0,0.0,0.0,0.0,0.0,0.0,0.0,0.0,0.0,0.0,0.0,0.0,0.0,0.0,0.0,0.0,0.0,0.0,0.0,0.0,0.0,0.0,0.0,0.0,0.0,0.0,0.0,0.0,0.0,0.0,0.0,0.0,0.0,0.0,0.0,0.0,0.0,0.0,0.0,0.0,0.0,0.0,3.2001,3.292,3.3621,3.4133,3.4505,3.4509,3.4631,0.0,0.0,0.0,0.0,0.0,0.0,0.0,0.0,0.0,0.0,0.0,0.0,0.0,0.0,0.0,0.0,0.0,0.0,0.0,0.0,0.0,0.0,0.0,0.0,0.0,0.0,0.0,0.0,0.0,0.0,0.0,0.0,0.0,0.0,0.0,0.0,0.0,0.0,0.0,0.0,0.0,0.0,0.0,0.0,0.0,0.0,0.0,0.0,0.0,0.0,0.0,0.0,0.0,0.0,0.0,0.0,0.0,0.0,0.0,0.0,0.0,0.0,0.0,0.0,0.0,0.0,0.0,0.0,0.0,0.0,0.0,0.0,0.0,0.0,0.0,0.0,0.0,0.0,0.0,0.0,0.0,0.0,0.0,0.0,0.0,0.0,0.0,0.0,0.0,0.0,0.0,0.0,0.0,0.0,0.0,0.0,0.0,0.0,0.0,0.0,0.0,0.0,0.0,0.0,0.0,0.0,0.0,0.0,0.0,3.5038,3.5461,3.5798,3.6004,3.6105,3.6001,0.0,0.0,0.0,0.0,0.0,0.0,0.0,0.0,0.0,0.0,0.0,0.0,0.0,0.0,0.0,0.0,0.0,0.0,0.0,0.0,0.0,0.0,0.0,0.0,0.0,0.0,0.0,0.0,0.0,0.0,0.0,0.0,0.0,0.0,0.0,0.0,0.0,0.0,0.0,0.0,0.0,0.0,0.0,0.0,0.0,0.0,0.0,0.0,0.0,0.0,0.0,0.0,0.0,0.0,0.0,0.0,0.0,0.0,0.0,0.0,0.0,0.0,0.0,0.0,0.0,0.0,0.0,0.0,0.0,0.0,0.0,0.0,0.0,0.0,0.0,0.0,0.0,0.0,0.0,0.0,0.0,0.0,0.0,0.0,0.0,0.0,0.0,0.0,0.0,0.0,0.0,0.0,0.0,0.0,0.0,0.0,0.0,0.0,0.0,0.0,0.0,0.0,0.0,0.0,0.0,0.0,0.0,0.0,0.0,3.7848,3.7484,3.7254,3.7209,3.7288,3.7028,3.6427,0.0,0.0,0.0,0.0,0.0,0.0,0.0,0.0,0.0,0.0,0.0,0.0,0.0,0.0,0.0,0.0,0.0,0.0,0.0,0.0,0.0,0.0,0.0,0.0,0.0,0.0,0.0,0.0,0.0,0.0,0.0,0.0,0.0,0.0,0.0,0.0,0.0,0.0,0.0,0.0,0.0,0.0,0.0,0.0,0.0,0.0,0.0,0.0,0.0,0.0,0.0,0.0,0.0,0.0,0.0,0.0,0.0,0.0,0.0,0.0,0.0,0.0,0.0,0.0,0.0,0.0,0.0,0.0,0.0,0.0,0.0,0.0,0.0,0.0,0.0,0.0,0.0,0.0,0.0,0.0,0.0,0.0,0.0,0.0,0.0,0.0,0.0,0.0,0.0,0.0,0.0,0.0,0.0,0.0,0.0,0.0,0.0,0.0,0.0,0.0,0.0,0.0,0.0,0.0,0.0,0.0,0.0,0.0,4.1162,3.9738,3.8747,3.8216,3.8163,3.7853,0.0,0.0,0.0,0.0,0.0,0.0,0.0,0.0,0.0,0.0,0.0,0.0,0.0,0.0,0.0,0.0,0.0,0.0,0.0,0.0,0.0,0.0,0.0,0.0,0.0,0.0,0.0,0.0,0.0,0.0,0.0,0.0,0.0,0.0,0.0,0.0,0.0,0.0,0.0,0.0,0.0,0.0,0.0,0.0,0.0,0.0,0.0,0.0,0.0,0.0,0.0,0.0,0.0,0.0,0.0,0.0,0.0,0.0,0.0,0.0,0.0,0.0,0.0,0.0,0.0,0.0,0.0,0.0,0.0,0.0,0.0,0.0,0.0,0.0,0.0,0.0,0.0,0.0,0.0,0.0,0.0,0.0,0.0,0.0,0.0,0.0,0.0,0.0,0.0,0.0,0.0,0.0,0.0,0.0,0.0,0.0,0.0,0.0,0.0,0.0,0.0,0.0,0.0,0.0,0.0,0.0,0.0,0.0,0.0,4.3525,4.3708,4.267,4.047,3.9988,3.9427,0.0,0.0,0.0,0.0,0.0,0.0,0.0,0.0,0.0,0.0,0.0,0.0,0.0,0.0,0.0,0.0,0.0,0.0,0.0,0.0,0.0,0.0,0.0,0.0,0.0,0.0,0.0,0.0,0.0,0.0,0.0,0.0,0.0,0.0,0.0,0.0,0.0,0.0,0.0,0.0,0.0,0.0,0.0,0.0,0.0,0.0,0.0,0.0,0.0,0.0,0.0,0.0,0.0,0.0,0.0,0.0,0.0,0.0,0.0,0.0,0.0,0.0,0.0,0.0,0.0,0.0,0.0,0.0,0.0,0.0,0.0,0.0,0.0,0.0,0.0,0.0,0.0,0.0,0.0,0.0,0.0,0.0,0.0,0.0,0.0,0.0,0.0,0.0,0.0,0.0,0.0,0.0,0.0,0.0,0.0,0.0,0.0,0.0,0.0,0.0,0.0,0.0,0.0,0.0,0.0,0.0,0.0,0.0,4.4017,4.5475,4.5623,4.5028,4.3608,4.2392,4.1243,0.0,0.0,0.0,0.0,0.0,0.0,0.0,0.0,0.0,0.0,0.0,0.0,0.0,0.0,0.0,0.0,0.0,0.0,0.0,0.0,0.0,0.0,0.0,0.0,0.0,0.0,0.0,0.0,0.0,0.0,0.0,0.0,0.0,0.0,0.0,0.0,0.0,0.0,0.0,0.0,0.0,0.0,0.0,0.0,0.0,0.0,0.0,0.0,0.0,0.0,0.0,0.0,0.0,0.0,0.0,0.0,0.0,0.0,0.0,0.0,0.0,0.0,0.0,0.0,0.0,0.0,0.0,0.0,0.0,0.0,0.0,0.0,0.0,0.0,0.0,0.0,0.0,0.0,0.0,0.0,0.0,0.0,0.0,0.0,0.0,0.0,0.0,0.0,0.0,0.0,0.0,0.0,0.0,0.0,0.0,0.0,0.0,0.0,0.0,0.0,0.0,0.0,0.0,0.0,0.0,0.0,0.0,0.0,4.4995,4.7173,4.6609,4.651,4.6908,4.4805,4.2984,0.0,0.0,0.0,0.0,0.0,0.0,0.0,0.0,0.0,0.0,0.0,0.0,0.0,0.0,0.0,0.0,0.0,0.0,0.0,0.0,0.0,0.0,0.0,0.0,0.0,0.0,0.0,0.0,0.0,0.0,0.0,0.0,0.0,0.0,0.0,0.0,0.0,0.0,0.0,0.0,0.0,0.0,0.0,0.0,0.0,0.0,0.0,0.0,0.0,0.0,0.0,0.0,0.0,0.0,0.0,0.0,0.0,0.0,0.0,0.0,0.0,0.0,0.0,0.0,0.0,0.0,0.0,0.0,0.0,0.0,0.0,0.0,0.0,0.0,0.0,0.0,0.0,0.0,0.0,0.0,0.0,0.0,0.0,0.0,0.0,0.0,0.0,0.0,0.0,0.0,0.0,0.0,0.0,0.0,0.0,0.0,0.0,0.0,0.0,0.0,0.0,0.0,0.0,0.0,0.0,0.0,0.0,0.0,4.7836,4.9408,4.9359,4.8796,4.7802,4.507,4.354,0.0,0.0,0.0,0.0,0.0,0.0,0.0,0.0,0.0,0.0,0.0,0.0,0.0,0.0,0.0,0.0,0.0,0.0,0.0,0.0,0.0,0.0,0.0,0.0,0.0,0.0,0.0,0.0,0.0,0.0,0.0,0.0,0.0,0.0,0.0,0.0,0.0,0.0,0.0,0.0,0.0,0.0,0.0,0.0,0.0,0.0,0.0,0.0,3.3914,0.0,0.0,0.0,0.0,0.0,0.0,0.0,0.0,0.0,0.0,0.0,0.0,0.0,0.0,0.0,0.0,0.0,0.0,0.0,0.0,0.0,0.0,0.0,0.0,0.0,0.0,0.0,0.0,0.0,0.0,0.0,0.0,0.0,0.0,0.0,0.0,0.0,0.0,0.0,0.0,0.0,0.0,0.0,0.0,0.0,0.0,0.0,0.0,0.0,0.0,0.0,0.0,0.0,0.0,0.0,0.0,0.0,0.0,0.0,4.9226,5.0651,5.0386,5.0022,4.9576,4.7103,4.5323,0.0,0.0,0.0,0.0,0.0,0.0,0.0,0.0,0.0,0.0,0.0,0.0,0.0,0.0,0.0,0.0,0.0,0.0,0.0,0.0,0.0,0.0,0.0,0.0,0.0,0.0,0.0,0.0,0.0,0.0,0.0,0.0,0.0,0.0,0.0,0.0,0.0,0.0,0.0,0.0,0.0,0.0,0.0,0.0,0.0,0.0,0.0,0.0,0.0,0.0,0.0,0.0,0.0,0.0,0.0,0.0,0.0,0.0,0.0,0.0,0.0,0.0,0.0,0.0,0.0,0.0,0.0,0.0,0.0,0.0,0.0,0.0,0.0,0.0,0.0,0.0,0.0,0.0,0.0,0.0,0.0,0.0,0.0,0.0,0.0,0.0,0.0,0.0,0.0,0.0,0.0,0.0,0.0,0.0,0.0,0.0,0.0,0.0,0.0,0.0,0.0,0.0,0.0,0.0,0.0,0.0,0.0,4.9127,5.0253,5.153,5.1015,5.1002,5.1607,4.966,4.761,4.559,0.0,0.0,0.0,0.0,0.0,0.0,0.0,0.0,0.0,0.0,0.0,0.0,0.0,0.0,0.0,0.0,0.0,0.0,0.0,0.0,0.0,0.0,0.0,0.0,0.0,0.0,0.0,0.0,0.0,0.0,0.0,0.0,0.0,0.0,0.0,0.0,0.0,0.0,3.2632,3.3303,0.0,0.0,0.0,0.0,0.0,0.0,0.0,0.0,3.5889,0.0,0.0,0.0,0.0,0.0,0.0,0.0,0.0,0.0,0.0,0.0,0.0,0.0,0.0,0.0,0.0,0.0,0.0,0.0,0.0,0.0,0.0,0.0,0.0,0.0,0.0,0.0,0.0,0.0,0.0,0.0,0.0,0.0,0.0,0.0,0.0,0.0,0.0,0.0,0.0,0.0,0.0,0.0,0.0,0.0,0.0,0.0,0.0,0.0,0.0,0.0,0.0,0.0,0.0,0.0,0.0,4.8928,5.0867,5.2259,5.3036,5.2919,5.2743,5.2389,5.1044,4.9605,4.8153,0.0,0.0,0.0,0.0,0.0,0.0,0.0,0.0,0.0,0.0,0.0,0.0,0.0,0.0,0.0,0.0,0.0,0.0,0.0,0.0,0.0,0.0,0.0,0.0,0.0,0.0,0.0,0.0,0.0,0.0,0.0,0.0,0.0,0.0,0.0,0.0,0.0,0.0,0.0,3.4884,3.5467,0.0,0.0,0.0,0.0,0.0,0.0,0.0,0.0,3.7543,0.0,0.0,0.0,0.0,0.0,0.0,0.0,0.0,0.0,0.0,0.0,0.0,0.0,0.0,0.0,0.0,0.0,0.0,0.0,0.0,0.0,0.0,0.0,0.0,0.0,0.0,0.0,0.0,0.0,0.0,0.0,0.0,0.0,0.0,0.0,0.0,0.0,0.0,0.0,0.0,0.0,0.0,0.0,0.0,0.0,0.0,0.0,0.0,0.0,0.0,0.0,0.0,0.0,0.0,0.0,5.0253,5.2009,5.3268,5.3945,5.4088,5.385,5.3347,5.2435,5.1227,0.0,0.0,0.0,0.0,0.0,0.0,0.0,0.0,0.0,0.0,0.0,0.0,0.0,0.0,0.0,0.0,0.0,0.0,0.0,0.0,0.0,0.0,0.0,0.0,0.0,0.0,0.0,0.0,0.0,0.0,0.0,0.0,0.0,0.0,0.0,0.0,0.0,0.0,0.0,0.0,3.6107,3.6863,3.7081,0.0,0.0,0.0,0.0,0.0,0.0,3.8886,3.9078,0.0,0.0,0.0,0.0,0.0,0.0,0.0,0.0,0.0,0.0,0.0,0.0,0.0,0.0,0.0,0.0,0.0,0.0,0.0,0.0,0.0,0.0,0.0,0.0,0.0,0.0,0.0,0.0,0.0,0.0,0.0,0.0,0.0,0.0,0.0,0.0,0.0,0.0,0.0,0.0,0.0,0.0,0.0,0.0,0.0,0.0,0.0,0.0,0.0,0.0,0.0,0.0,0.0,0.0,0.0,5.1497,5.2904,5.3978,5.4674,5.4911,5.4762,5.424,5.3546,5.2303,0.0,0.0,0.0,0.0,0.0,0.0,0.0,0.0,0.0,0.0,0.0,0.0,0.0,0.0,0.0,0.0,0.0,0.0,0.0,0.0,0.0,0.0,0.0,0.0,0.0,0.0,0.0,0.0,0.0,0.0,0.0,0.0,0.0,0.0,0.0,0.0,0.0,0.0,0.0,0.0,0.0,3.8279,3.8571,3.8743,0.0,0.0,0.0,0.0,3.976,4.0323,0.0,0.0,0.0,0.0,0.0,0.0,0.0,0.0,0.0,0.0,0.0,0.0,0.0,0.0,0.0,0.0,0.0,0.0,0.0,0.0,0.0,0.0,0.0,0.0,0.0,0.0,0.0,0.0,0.0,0.0,0.0,0.0,0.0,0.0,0.0,0.0,0.0,0.0,0.0,0.0,0.0,0.0,0.0,0.0,0.0,0.0,0.0,0.0,0.0,0.0,0.0,0.0,0.0,0.0,0.0,0.0,5.2226,5.3665,5.4707,5.5435,5.5676,5.551,5.4958,5.3815,5.2522,0.0,0.0,0.0,0.0,0.0,0.0,0.0,0.0,0.0,0.0,0.0,0.0,0.0,0.0,0.0,0.0,0.0,0.0,0.0,0.0,0.0,0.0,0.0,0.0,0.0,0.0,0.0,0.0,0.0,0.0,0.0,0.0,0.0,0.0,0.0,0.0,0.0,0.0,0.0,0.0,0.0,3.9968,4.058,4.1333,4.1802,0.0,0.0,0.0,4.2142,4.2271,0.0,0.0,0.0,0.0,0.0,0.0,0.0,0.0,0.0,0.0,0.0,0.0,0.0,0.0,0.0,0.0,0.0,0.0,0.0,0.0,0.0,0.0,0.0,0.0,0.0,0.0,0.0,0.0,0.0,0.0,0.0,0.0,0.0,0.0,0.0,0.0,0.0,0.0,0.0,0.0,0.0,0.0,0.0,0.0,0.0,0.0,0.0,0.0,0.0,0.0,0.0,0.0,0.0,0.0,0.0,5.1231,5.2937,5.4376,5.5468,5.6183,5.6521,5.6174,5.5144,5.4776,5.3568,0.0,0.0,0.0,0.0,0.0,0.0,0.0,0.0,0.0,0.0,0.0,0.0,0.0,0.0,0.0,0.0,0.0,0.0,0.0,0.0,0.0,0.0,0.0,0.0,0.0,0.0,0.0,0.0,0.0,0.0,0.0,0.0,0.0,0.0,0.0,0.0,0.0,0.0,0.0,0.0,0.0,0.0,4.2916,4.3346,0.0,0.0,0.0,4.4188,4.4276,0.0,0.0,0.0,0.0,0.0,0.0,0.0,0.0,0.0,0.0,0.0,0.0,0.0,0.0,0.0,0.0,0.0,0.0,0.0,0.0,0.0,0.0,0.0,0.0,0.0,0.0,0.0,0.0,0.0,0.0,0.0,0.0,0.0,0.0,0.0,0.0,0.0,0.0,0.0,0.0,0.0,0.0,0.0,0.0,0.0,0.0,0.0,0.0,0.0,0.0,0.0,0.0,0.0,0.0,0.0,0.0,0.0,5.3647,5.5137,5.615,5.6699,5.7282,5.6787,5.5177,5.5505,0.0,0.0,0.0,0.0,0.0,0.0,0.0,0.0,0.0,0.0,0.0,0.0,0.0,0.0,0.0,0.0,0.0,0.0,0.0,0.0,0.0,0.0,0.0,0.0,0.0,0.0,0.0,3.3932,0.0,0.0,0.0,0.0,0.0,0.0,0.0,0.0,0.0,0.0,0.0,0.0,0.0,0.0,4.4117,4.5003,4.5268,4.5361,0.0,0.0,4.6296,4.613,4.6511,4.6748,0.0,0.0,0.0,0.0,0.0,0.0,0.0,0.0,0.0,0.0,0.0,0.0,0.0,0.0,0.0,0.0,0.0,0.0,0.0,0.0,0.0,0.0,0.0,0.0,0.0,0.0,0.0,0.0,0.0,0.0,0.0,0.0,0.0,0.0,0.0,0.0,0.0,0.0,0.0,0.0,0.0,0.0,0.0,0.0,0.0,0.0,0.0,0.0,0.0,0.0,0.0,0.0,0.0,0.0,0.0,5.4409,5.5885,5.6666,5.6732,5.7749,5.7271,5.5177,5.5505,5.4279,0.0,0.0,0.0,0.0,0.0,0.0,0.0,0.0,0.0,0.0,0.0,0.0,0.0,0.0,0.0,0.0,0.0,0.0,0.0,0.0,0.0,0.0,0.0,0.0,0.0,0.0,0.0,0.0,0.0,0.0,0.0,0.0,0.0,0.0,0.0,0.0,0.0,0.0,0.0,0.0,0.0,4.5496,4.6337,4.7004,4.7404,0.0,0.0,4.8173,4.7558,4.7527,4.7311,4.6696,0.0,0.0,0.0,0.0,0.0,0.0,0.0,0.0,0.0,0.0,0.0,0.0,0.0,0.0,0.0,0.0,0.0,0.0,0.0,0.0,0.0,0.0,0.0,0.0,0.0,0.0,0.0,0.0,0.0,0.0,0.0,0.0,0.0,0.0,0.0,0.0,0.0,0.0,0.0,0.0,0.0,0.0,0.0,0.0,0.0,0.0,0.0,0.0,0.0,0.0,0.0,0.0,0.0,5.3713,5.517,5.6647,5.7574,5.8058,5.8283,5.7773,5.6482,5.5959,5.4481,0.0,0.0,0.0,0.0,0.0,0.0,0.0,0.0,0.0,0.0,0.0,0.0,0.0,0.0,0.0,0.0,0.0,0.0,0.0,0.0,0.0,0.0,0.0,0.0,0.0,0.0,0.0,0.0,3.6577,3.7108,3.7826,0.0,0.0,0.0,0.0,0.0,0.0,0.0,0.0,0.0,0.0,4.7825,4.913,4.9542,0.0,0.0,5.0164,5.0226,4.9978,4.9936,4.9678,4.8821,4.8173,0.0,0.0,0.0,0.0,0.0,0.0,0.0,0.0,0.0,0.0,0.0,0.0,0.0,0.0,0.0,0.0,0.0,0.0,0.0,0.0,0.0,0.0,0.0,0.0,0.0,0.0,0.0,0.0,0.0,0.0,0.0,0.0,0.0,0.0,0.0,0.0,0.0,0.0,0.0,0.0,0.0,0.0,0.0,0.0,0.0,0.0,0.0,0.0,0.0,0.0,0.0,0.0,5.4442,5.5932,5.7376,5.8409,5.9,5.8803,5.8313,5.7398,5.6298,5.4752,0.0,0.0,0.0,0.0,0.0,0.0,0.0,0.0,0.0,0.0,0.0,0.0,0.0,0.0,0.0,0.0,0.0,0.0,0.0,0.0,0.0,0.0,0.0,0.0,0.0,0.0,0.0,0.0,3.8357,3.9046,3.9783,0.0,0.0,0.0,0.0,0.0,0.0,0.0,0.0,0.0,0.0,4.9925,5.1241,5.1573,5.1855,5.2254,5.2338,5.2223,5.2026,5.1839,5.1401,5.059,0.0,0.0,0.0,0.0,0.0,0.0,0.0,0.0,0.0,0.0,0.0,0.0,0.0,0.0,0.0,0.0,0.0,0.0,0.0,0.0,0.0,0.0,0.0,0.0,0.0,0.0,0.0,0.0,0.0,0.0,0.0,0.0,0.0,0.0,0.0,0.0,0.0,0.0,0.0,0.0,0.0,0.0,0.0,0.0,0.0,0.0,0.0,0.0,0.0,0.0,0.0,0.0,0.0,5.5204,5.6647,5.8157,5.9,5.9232,5.9362,5.8892,5.7655,5.6387,5.4989,5.3518,0.0,0.0,0.0,0.0,0.0,0.0,0.0,0.0,0.0,0.0,0.0,0.0,0.0,0.0,0.0,0.0,0.0,0.0,0.0,0.0,0.0,0.0,0.0,0.0,0.0,0.0,3.9455,4.0119,4.0814,0.0,0.0,0.0,0.0,0.0,0.0,0.0,0.0,0.0,0.0,5.0445,5.1599,5.2328,5.2931,5.3618,5.4295,5.4367,5.4095,5.3462,5.2838,5.2161,0.0,0.0,0.0,0.0,0.0,0.0,0.0,0.0,0.0,0.0,0.0,0.0,0.0,0.0,0.0,0.0,0.0,0.0,0.0,0.0,0.0,0.0,0.0,0.0,0.0,0.0,0.0,3.9297,3.952,0.0,0.0,0.0,0.0,0.0,0.0,0.0,0.0,0.0,0.0,0.0,4.6617,4.701,0.0,0.0,0.0,0.0,0.0,0.0,0.0,0.0,0.0,0.0,0.0,0.0,5.6448,5.7461,5.8993,6.0091,6.0617,6.0524,6.0001,5.9083,5.7806,5.6021,5.3585,0.0,0.0,0.0,0.0,0.0,0.0,0.0,0.0,0.0,0.0,0.0,0.0,0.0,0.0,0.0,0.0,0.0,0.0,0.0,0.0,0.0,0.0,0.0,0.0,0.0,4.0609,0.0,0.0,0.0,0.0,0.0,0.0,0.0,0.0,0.0,0.0,0.0,4.9581,5.1173,5.2151,5.3193,5.4473,5.4871,5.5158,0.0,0.0,0.0,0.0,0.0,0.0,0.0,0.0,0.0,0.0,0.0,0.0,0.0,0.0,5.0219,4.7777,4.7484,4.7588,4.7588,0.0,0.0,0.0,0.0,0.0,0.0,0.0,0.0,0.0,0.0,0.0,0.0,0.0,0.0,0.0,0.0,4.2126,0.0,0.0,0.0,0.0,0.0,0.0,0.0,0.0,4.782,4.8447,4.9322,4.9491,4.9823,0.0,5.0356,4.9892,0.0,0.0,0.0,0.0,0.0,0.0,0.0,0.0,5.7368,5.8674,5.9745,6.0752,6.1561,6.1152,6.0704,6.029,5.8754,5.6494,5.3585,5.252,5.1505,0.0,0.0,0.0,0.0,0.0,0.0,0.0,0.0,0.0,0.0,0.0,0.0,0.0,0.0,0.0,0.0,0.0,0.0,0.0,0.0,0.0,0.0,0.0,4.2611,0.0,0.0,0.0,0.0,0.0,0.0,0.0,0.0,0.0,4.9687,5.04,5.157,5.3107,5.4141,5.5189,5.6478,0.0,0.0,0.0,0.0,0.0,0.0,0.0,5.6757,5.6248,5.6153,5.5929,5.5265,5.5113,5.5055,5.4942,0.0,0.0,5.0522,5.003,5.0157,5.0179,5.0634,5.132,5.2381,5.2909,5.3468,0.0,0.0,0.0,0.0,0.0,0.0,0.0,0.0,4.396,4.4495,0.0,4.5227,0.0,0.0,0.0,0.0,0.0,0.0,0.0,0.0,5.0284,5.1115,5.2509,5.2542,5.2649,5.2843,5.2876,5.2948,5.3038,5.1323,0.0,0.0,0.0,0.0,0.0,0.0,5.801,6.0238,6.0458,6.0993,6.201,6.1391,6.1085,6.1211,5.9099,5.6562,5.3822,5.3585,5.2824,5.137,5.0574,0.0,0.0,0.0,0.0,0.0,0.0,0.0,0.0,0.0,0.0,0.0,0.0,0.0,0.0,0.0,0.0,0.0,0.0,0.0,0.0,4.5024,0.0,0.0,0.0,0.0,0.0,0.0,0.0,0.0,0.0,0.0,5.2332,5.3344,5.4451,5.5134,0.0,0.0,0.0,0.0,5.957,6.0163,5.9752,5.9341,5.9341,5.8795,5.8476,5.8705,0.0,0.0,5.8413,5.8182,5.8004,5.7754,5.7668,5.6871,5.4268,5.3715,5.3653,5.3653,5.3728,5.4232,5.5615,5.606,5.6545,4.9291,0.0,0.0,0.0,0.0,4.6011,4.6175,4.6371,4.6454,4.6602,4.6831,4.6848,0.0,0.0,0.0,0.0,0.0,0.0,5.164,5.3162,5.3464,5.4319,5.5665,5.5881,5.6025,5.6047,5.6047,5.6066,5.6121,5.5609,5.4752,5.3599,0.0,0.0,0.0,0.0,6.0618,6.1314,6.2514,6.3308,6.3633,6.3047,6.2302,6.1332,5.9099,5.7494,5.6664,5.5108,5.3856,5.2875,5.208,0.0,0.0,0.0,0.0,0.0,0.0,0.0,0.0,0.0,0.0,0.0,0.0,0.0,0.0,0.0,0.0,0.0,0.0,0.0,4.6401,4.7169,4.7759,0.0,0.0,0.0,0.0,0.0,0.0,0.0,0.0,0.0,5.6846,5.6157,5.622,0.0,0.0,5.8938,5.9602,6.0083,6.0368,6.0559,0.0,0.0,0.0,6.0419,6.0314,6.0407,6.0407,6.0384,6.0337,6.0268,6.0198,6.0104,6.0104,5.9818,5.9087,5.782,5.706,5.7164,5.7344,5.7732,5.8669,5.9265,5.9894,5.4156,5.1032,4.9722,4.921,4.921,4.9193,4.921,4.921,4.9297,4.9314,4.9314,4.9416,4.945,4.9467,4.9919,0.0,0.0,0.0,5.487,5.6516,5.67,5.7525,5.8861,5.9045,5.9194,5.9271,5.9252,5.929,5.9386,5.9386,5.8713,5.7382,0.0,0.0,5.9083,6.1147,6.236,6.2743,6.374,6.4314,6.4396,6.3822,6.2956,6.1738,5.981,5.8509,5.79,5.6325,5.5006,5.3991,5.3213,5.2385,0.0,0.0,0.0,0.0,0.0,0.0,0.0,0.0,0.0,0.0,0.0,4.5327,4.5359,0.0,0.0,0.0,4.7044,4.7545,4.8399,4.9346,0.0,0.0,0.0,0.0,0.0,0.0,0.0,5.6071,5.7603,5.9119,6.0483,5.9786,5.9347,5.9931,6.0479,6.0987,6.1424,0.0,6.2532,6.2532,6.2676,6.282,6.2915,6.2907,6.3011,6.3191,6.3309,6.3365,6.3239,6.3239,6.3224,6.3097,6.3073,6.3097,6.3215,6.2295,6.1186,6.0435,6.0537,6.1115,6.2063,6.2561,6.3165,5.8389,5.6859,5.3827,5.2429,5.22,5.22,5.22,5.2218,5.2415,5.2488,5.2455,5.2669,5.2792,5.296,5.3871,0.0,0.0,5.6583,5.7882,5.9893,5.9946,6.0751,6.2058,6.2179,6.228,6.2494,6.2514,6.258,6.2792,6.2778,6.2798,6.2778,6.1141,6.0877,6.1924,6.2783,6.367,6.4562,6.4583,6.4632,6.4681,6.4018,6.3294,6.2482,6.1061,5.9573,5.8137,5.7306,5.6224,5.4854,5.4093,5.3315,5.252,0.0,0.0,0.0,0.0,0.0,0.0,0.0,0.0,0.0,0.0,0.0,0.0,0.0,0.0,0.0,4.9904,0.0,5.0422,5.1607,0.0,0.0,0.0,5.5252,5.6002,5.7564,5.8572,5.8638,0.0,0.0,0.0,0.0,6.3282,6.1752,6.2596,6.338,6.338,6.4429,6.5383,6.5215,6.5368,6.5492,6.5529,6.5618,6.5732,6.6142,6.6746,6.6582,6.6383,6.6335,6.6361,6.6015,6.6128,6.6201,6.6507,6.6409,6.5979,6.3735,6.3641,6.4309,6.5295,6.5716,6.6285,6.1206,6.0775,5.9448,5.7589,5.5539,5.5539,5.5539,5.5539,5.5596,5.5615,5.5615,5.5823,5.6325,5.708,5.7854,5.871,5.96,6.0208,6.1066,6.2138,6.2871,6.3672,6.4547,6.5265,6.5639,6.5701,6.5867,6.6024,6.6065,6.6214,6.6282,6.6295,6.6419,6.5596,6.3998,6.5213,6.6247,6.702,6.7053,6.6534,6.548,6.5256,6.4546,6.3274,6.2347,6.1129,5.9607,5.8321,5.7205,5.6325,5.5581,5.4837,5.4059,5.3146,0.0,0.0,0.0,0.0,0.0,0.0,0.0,0.0,0.0,4.8512,4.8494,0.0,5.0048,0.0,5.1815,5.2767,5.3337,5.3831,0.0,0.0,5.6874,5.7736,5.8469,5.9853,6.0945,6.1491,6.2911,6.4175,6.5091,6.575,6.5982,6.5553,6.511,6.4764,6.4853,6.5415,6.5918,6.5974,6.6298,6.6555,6.6644,6.6626,6.6716,6.6793,6.6897,6.6864,6.6849,6.6817,6.6769,6.6722,6.6722,6.6942,6.7578,6.8037,6.8511,6.8494,6.7751,6.7009,6.7382,6.8224,6.9108,6.4302,6.3948,6.3527,6.2449,6.0817,5.9418,5.8794,5.8794,5.8912,5.8972,5.8972,5.9089,5.9641,6.0496,6.1333,6.2078,6.2818,6.3639,6.442,6.5127,6.5636,6.6306,6.7048,6.7667,6.7942,6.7964,6.8229,6.8368,6.8389,6.848,6.8508,6.8542,6.8931,6.8567,6.7466,6.7768,6.8103,6.8436,6.8098,6.7489,6.6677,6.6021,6.5121,6.4038,6.2976,6.1859,6.0655,5.9201,5.8051,5.7306,5.6578,5.5852,5.5141,5.4495,5.3952,0.0,0.0,0.0,0.0,0.0,0.0,0.0,0.0,0.0,0.0,0.0,5.2574,0.0,5.4378,0.0,5.6059,5.6519,5.7425,5.8969,5.9849,6.0699,6.1541,6.287,6.3891,6.4308,6.5307,6.6272,6.6987,6.7354,6.7776,6.8376,6.7891,6.7212,6.6662,6.7005,6.737,6.7395,6.7646,6.8017,6.8409,6.8891,6.916,6.916,6.916,6.916,6.916,6.916,6.916,6.916,6.916,6.9292,6.972,7.0049,7.0527,7.0864,7.0707,7.0206,6.9852,7.0642,7.1499,6.7278,6.6641,6.6641,6.6553,6.6251,6.3505,6.2199,6.2032,6.2238,6.236,6.2414,6.2414,6.2816,6.3595,6.4366,6.5156,6.5931,6.6728,6.7455,6.8064,6.8276,6.875,6.9427,6.9857,7.0054,7.0054,7.029,7.043,7.043,7.037,7.0336,7.0301,7.0233,7.0486,7.1037,7.0196,6.9628,6.9301,6.8602,6.8141,6.7938,6.6664,6.5527,6.4613,6.3328,6.2265,6.1332,5.9994,5.8912,5.8084,5.7442,5.6697,5.5902,5.5659,5.557,0.0,5.505,0.0,0.0,0.0,0.0,0.0,0.0,0.0,0.0,5.4598,5.5713,5.6473,5.7175,5.7929,5.8679,5.9455,6.0546,6.2065,6.3,6.3814,6.4685,6.6012,6.6941,6.704,6.7671,6.8377,6.9083,6.8961,6.937,7.0353,7.0355,6.9788,6.8829,6.9001,6.9337,6.9305,6.9386,6.973,7.0461,7.1284,7.1803,7.1894,7.1737,7.1993,7.1803,7.1828,7.1894,7.1894,7.1737,7.1894,7.2117,7.2092,7.2159,7.2424,7.2862,7.2995,7.2457,7.2796,7.3608,6.9556,6.8897,6.8864,6.8551,6.7948,6.7499,6.6549,6.5304,6.5347,6.5475,6.5611,6.5611,6.6099,6.6922,6.7155,6.7628,6.8405,6.8584,6.8741,6.891,7.0313,7.1046,7.1306,7.2707,7.3364,7.3364,7.3585,7.3694,7.3694,7.3271,7.3047,7.3013,7.2462,7.2115,0.0,0.0,0.0,0.0,7.0194,6.9428,6.8273,6.7764,6.6576,6.4681,6.4343,0.0,6.1434,6.0994,6.0216,5.8878,5.8641,0.0,0.0,0.0,0.0,0.0,0.0,0.0,0.0,0.0,0.0,0.0,5.848,5.7932,5.5758,5.6834,5.7982,5.8716,5.9371,6.0177,6.1124,6.2042,6.2984,6.4062,6.5556,6.6555,6.6778,6.8026,6.9163,6.9754,7.0466,7.1098,7.1484,7.1645,7.1591,7.1695,7.1663,7.1539,7.1275,7.1103,7.1054,7.1111,7.1194,7.144,7.1712,7.1951,7.2199,7.1993,7.1993,7.2051,7.2108,7.2084,7.2051,7.2084,7.1993,7.225,7.278,7.2879,7.3276,7.4403,7.476,7.466,7.3964,7.4395,7.5091,7.1906,0.0,7.166,7.1548,0.0,7.1423,7.096,7.0104,6.8355,6.7704,6.7778,6.7778,6.8313,6.9206,6.9613,7.0255,7.109,7.1486,7.1656,7.1724,7.2572,7.298,7.3014,7.3988,7.4441,7.4441,7.4662,7.4716,7.4738,7.4468,7.4361,7.4361,7.3981,7.371,7.3581,7.371,7.2988,7.1438,7.0933,7.0345,6.9595,6.8706,6.7554,6.6092,0.0,0.0,0.0,0.0,0.0,0.0,0.0,0.0,0.0,0.0,0.0,5.8327,5.8553,5.8862,5.919,5.9784,6.0295,6.0644,6.1916,6.1662,5.9305,5.9874,6.0828,6.1886,6.2423,6.3214,6.4439,6.498,6.58,6.7066,6.825,6.9099,6.9625,7.0507,7.1242,7.161,7.2036,7.2367,7.2582,7.2591,7.271,7.2898,7.2941,7.3074,7.3282,7.2465,7.187,7.1993,7.2447,7.2761,7.2949,7.3274,7.344,7.3473,7.3473,7.3473,7.3473,7.3473,7.3449,7.3326,7.3276,7.3484,7.3997,7.4171,7.4502,7.5463,7.5794,7.586,7.5728,7.6059,7.6424,7.45,7.4559,7.4559,7.4526,7.449,7.4467,7.4422,7.4126,0.0,0.0,0.0,7.0022,7.0459,7.1234,7.1859,7.2582,7.334,7.3989,7.4319,7.4319,7.4478,7.4535,7.4591,7.4895,7.5075,7.5075,7.5217,7.5304,7.5304,7.521,7.5141,7.5163,7.5047,7.5021,7.5055,7.5249,7.4455,7.2712,7.1859,7.1324,7.105,6.9775,6.8645,6.7632,6.7016,6.6009,6.4468,6.3852,6.3148,6.2392,6.176,6.1292,6.0984,6.0932,6.0891,6.0838,6.126,6.1655,6.1925,6.236,6.2979,6.3717,6.4892,6.4802,6.2867,6.3094,6.3833,6.5067,6.5596,6.6395,6.7612,6.8015,6.8707,7.012,7.0757,7.144,7.2151,7.2774,7.3059,7.3103,7.3261,7.328,7.3323,7.3299,7.3409,7.3955,7.404,7.4265,7.4643,7.3598,7.2761,7.2965,7.3447,7.3821,7.4092,7.4475,7.4993,7.4843,7.4902,7.5027,7.5027,7.5094,7.5095,7.4864,7.4972,7.5205,7.5527,7.5601,7.5875,7.6513,7.6679,7.6852,7.7549,7.7748,7.7715,7.7654,7.7063,7.7063,7.6369,7.5242,7.5242,7.49,7.4262,7.3785,7.3558,7.3558,7.3558,7.3649,7.3796,7.3876,7.4001,7.4148,7.4251,7.4319,0.0,7.5114,7.5513,7.5547,7.639,7.6846,7.6846,7.6891,7.6891,7.6809,7.6421,7.6197,7.6115,7.5719,7.5491,7.5512,7.5533,7.5408,7.508,7.4141,7.3053,7.1794,7.1312,7.0092,6.8127,6.7921,6.7182,6.57,6.5562,6.5053,6.4126,6.3954,6.3517,6.2711,6.2677,6.2912,6.3469,6.3621,6.4215,6.5551,6.5736,6.6181,6.7075,6.7404,6.6727,6.4924,6.5873,6.6698,6.6966,6.8104,6.9021,6.9469,7.0613,7.1479,7.1999,7.2664,7.3171,7.3363,7.3992,7.4418,7.4452,7.4914,7.5157,7.4931,7.4882,7.4801,7.4865,7.4798,7.4884,7.4917,7.4752,7.4594,7.4643,7.471,7.4801,7.4841,7.4893,7.5076,7.5027,7.5109,7.5201,7.5268,7.5645,7.5956,7.5915,7.6316,7.6726,7.691,7.6935,7.7219,7.7795,7.7962,7.8196,7.8838,7.9005,7.8934,7.8605,7.8415,7.8415,7.8131,7.7629,7.7629,7.7423,7.7114,7.7114,7.6016,7.4387,7.4319,7.4569,7.5058,7.5058,7.5331,7.5877,7.5877,7.5877,7.5911,7.631,7.6493,7.6527,7.6984,7.7268,7.7402,7.7436,7.7468,7.7531,7.7329,7.722,7.722,7.6946,7.6849,7.6849,7.6977,7.6866,7.6426,7.5415,7.4406,7.335,7.2761,7.1764,7.0342,6.9946,6.9218,6.8108,6.7692,6.7064,6.6173,6.6138,6.5871,6.539,6.5734,6.609,6.6318,6.6612,6.7047,6.7787,6.8056,6.863,6.9476,6.9909,6.9981,6.948,6.9071,6.9118,6.9656,7.0759,7.1683,7.2168,7.287,7.3424,7.3752,7.4464,7.5005,7.5361,7.6014,7.642,7.642,7.6386,7.6304,7.6183,7.5812,7.5494,7.5398,7.5373,7.5373,7.5441,7.5778,7.583,7.528,7.5155,7.5228,7.5359,7.5373,7.5542,7.5946,7.6013,7.6215,7.6485,7.6956,7.7017,7.6926,7.7204,7.7489,7.7723,7.7807,7.8141,7.8711,7.8912,7.9087,7.9355,7.9716,7.9826,7.9537,7.9702,7.9702,7.9751,7.9718,7.958,7.95,7.95,7.9477,7.7984,7.5697,7.5469,7.5799,7.6277,7.6472,7.6975,7.7627,7.7718,7.7718,7.7718,7.7718,7.7763,7.7808,7.7808,7.7943,7.8165,7.8187,7.824,7.8394,7.8285,7.8175,7.8079,7.8044,7.8044,7.8044,7.8272,7.8077,7.7426,7.6685,7.5833,7.4926,7.4298,7.3566,7.2639,7.2066,7.1299,7.0337,6.9764,6.9152,6.8521,6.8467,6.8357,6.822,6.8721,6.9079,6.9115,6.9489,6.9871,7.0229,7.0746,7.125,7.1735,7.2286,7.2825,7.3247,7.2243,7.1668,7.2277,7.3036,7.3864,7.4377,7.4855,7.5219,7.5558,7.625,7.6826,7.728,7.7818,7.8074,7.8006,7.7517,7.713,7.7029,7.6623,7.6294,7.6294,7.6217,7.6217,7.6284,7.6792,7.6729,7.6285,7.5951,7.6043,7.6193,7.6251,7.6497,7.7063,7.7106,7.7284,7.7748,7.8044,7.8197,7.7974,7.8118,7.8405,7.8673,7.8748,7.8983,7.9479,7.9546,7.9655,7.9916,8.0442,8.0821,8.1522,8.1545,8.1487,8.1166,8.0442,7.9821,7.9545,7.9569,7.9534,7.9373,7.889,7.9017,7.8638,7.8281,7.8799,7.9074,7.9224,7.927,7.9258,7.9258,7.927,7.9407,7.9531,7.9588,7.9736,7.989,7.989,7.9865,7.9874,7.9492,7.9,7.8596,7.8511,7.8581,7.8546,7.8602,7.8553,7.8483,7.8357,7.762,7.6251,7.6056,7.5319,7.3881,7.3775,7.3039,7.1702,7.1476,7.1329,7.1105,7.1051,7.0954,7.0778,7.0863,7.1156,7.1802,7.1902,7.2493,7.3808,7.4524,7.458,7.4524,7.4397,7.4425,7.4596,7.4964,7.4852,7.4523,7.4832,7.5265,7.5379,7.6473,7.7191,7.7257,7.794,7.8497,7.8552,7.8476,7.8366,7.8342,7.8206,7.7899,7.7948,7.7779,7.772,7.7634,7.759,7.7566,7.7658,7.7803,7.8046,7.8017,7.7919,7.7739,7.7745,7.7764,7.7779,7.7914,7.7923,7.8083,7.8345,7.8727,7.8966,7.9133,7.9464,7.9811,7.9913,8.0031,7.9998,8.0065,8.02,8.0336,8.0952,8.1566,8.197,8.1776,8.1776,8.1776,8.1638,8.1293,8.0983,8.0879,8.0879,8.0821,8.0603,8.0235,8.0672,8.0189,7.912,7.9396,7.95,7.95,7.95,7.9569,7.9729,7.9729,7.9865,8.0056,8.0079,8.019,8.0412,8.0434,8.0478,8.054,8.0381,8.0152,7.9992,7.9978,7.9978,7.9978,7.9978,7.9943,7.9978,7.9978,7.9452,7.8399,7.7451,7.6468,7.5484,7.5344,7.5098,7.4466,7.3975,7.3655,7.3576,7.3611,7.3536,7.3457,7.3912,7.4297,7.4612,7.4525,7.4627,7.513,7.5338,7.5636,7.6002,7.6344,7.6751,7.7235,7.7928,7.8183,7.7829,7.7409,7.7159,7.7262,7.8098,7.867,7.8599,7.9134,7.959,7.9447,7.9761,7.9936,7.9902,7.9454,7.9143,7.9041,7.8735,7.8496,7.8428,7.8404,7.8482,7.8496,7.8803,7.9158,7.9298,7.9532,7.9313,7.8711,7.8462,7.8642,7.8973,7.9109,7.9177,7.9673,7.9936,8.0242,8.0183,8.0455,8.0625,8.0616,8.0684,8.0684,8.0693,8.1161,8.1535,8.2275,8.2956,8.3522,8.1776,8.1776,8.1776,8.1858,8.1871,8.1871,8.1918,8.1988,8.1988,8.1677,8.1204,8.1746,8.1401,8.0409,8.0236,8.0236,8.0306,8.0329,8.042,8.0603,8.0626,8.0739,8.0929,8.0929,8.1062,8.1296,8.1353,8.1301,8.1256,8.1242,8.1137,8.094,8.0905,8.0905,8.0905,8.0905,8.0905,8.087,8.0905,8.0646,8.0014,7.8939,7.7816,7.6748,7.6608,7.6503,7.6292,7.575,7.5434,7.5434,7.5414,7.5414,7.5469,7.5976,7.6468,7.6924,7.7201,7.7244,7.704,7.6998,7.72,7.7792,7.8306,7.8763,7.932,7.9899,8.0178,8.0064,7.9599,7.9153,7.898,7.9568,7.9914,7.9787,8.0395,8.0772,8.0688,8.1036,8.1156,8.1131,8.0593,8.0271,8.0203,7.9823,7.9443,7.9409,7.9375,7.9331,7.9423,7.9843,8.0209,8.034,8.0785,8.0565,7.956,7.9443,7.9696,7.9936,8.0126,8.0331,8.0902,8.097,8.097,8.0653,8.0912,8.098,8.0906,8.0956,8.1005,8.1141,8.1585,8.2303,8.2877,8.3772,8.4481,8.1776,8.1776,8.181,8.1918,8.2071,8.2106,8.2211,8.2419,8.2442,8.2407,8.2337,8.2407,8.2395,8.2233,8.1968,8.2072,8.2302,8.2233,8.2198,8.2244,8.2279,8.2485,8.2781,8.2781,8.2823,8.2826,8.2848,8.259,8.2072,8.2037,8.1664,8.0975,8.1045,8.0975,8.101,8.1045,8.094,8.108,8.108,8.094,8.0835,8.0729,7.9571,7.7711,7.7395,7.7205,7.6538,7.6327,7.6327,7.6292,7.6397,7.6362,7.6327,7.6397,7.71,7.8399,7.9782,8.0567,8.0419,8.0198,8.0181,8.0299,8.0111,8.013,8.021,8.0384,8.0488,8.027,8.0909,8.0921,8.0377,8.0819,8.1236,8.1283,8.1897,8.2199,8.2268,8.1827,8.1683,8.1636,8.1424,8.1225,8.1222,8.1048,8.0877,8.0819,8.0873,8.0863,8.0833,8.0931,8.1087,8.1256,8.1349,8.1262,8.0966,8.0682,8.076,8.0887,8.0867,8.0975,8.0961,8.1005,8.1029,8.1054,8.1102,8.1127,8.1054,8.1029,8.1078,8.1342,8.1914,8.2598,8.3289,8.3916,8.4652,8.2269,8.2234,8.2269,8.228,8.235,8.235,8.2419,8.251,8.251,8.251,8.251,8.251,8.2579,8.275,8.2659,8.2556,8.251,8.251,8.2579,8.275,8.2738,8.2886,8.3053,8.3075,8.312,8.3186,8.3208,8.3068,8.2822,8.2822,8.2682,8.2471,8.2366,8.2401,8.2401,8.2401,8.2366,8.2366,8.2401,8.2155,8.1721,8.1664,8.0997,7.9747,7.9641,7.9501,7.9276,7.9241,7.9276,7.9276,7.9241,7.9241,7.9241,7.922,7.9487,8.0049,8.0589,8.0905,8.0905,8.0862,8.0797,8.0832,8.1209,8.1388,8.1493,8.1843,8.2123,8.2136,8.2333,8.2368,8.2197,8.2135,8.2127,8.2127,8.2336,8.251,8.2465,8.2326,8.2234,8.2176,8.2141,8.206,8.2059,8.2001,8.1954,8.1954,8.1954,8.193,8.1954,8.1954,8.1954,8.2048,8.2094,8.2071,8.2001,8.1646,8.1514,8.1514,8.1514,8.1479,8.149,8.1442,8.1466,8.1442,8.1417,8.1417,8.1393,8.1393,8.1417,8.1692,8.2276,8.3075,8.3655,8.4552,8.5256,8.251,8.251,8.251,8.2556,8.2659,8.2625,8.281,8.3065,8.3122,8.3262,8.3402,8.3227,8.3213,8.3314,8.3104,8.2931,8.2738,8.2738,8.2829,8.2998,8.2998,8.3053,8.3186,8.3208,8.3208,8.3208,8.3208,8.3208,8.3208,8.3275,8.3319,8.3319,8.3385,8.3429,8.3429,8.3429,8.3429,8.3429,8.3429,8.3169,8.2711,8.2676,8.2429,8.195,8.188,8.1534,8.0961,8.0905,8.0905,8.0905,8.0905,8.0905,8.0905,8.1151,8.1277,8.1313,8.1523,8.1642,8.1607,8.1642,8.1642,8.1664,8.212,8.2436,8.2506,8.2928,8.3173,8.3208,8.3208,8.3208,8.3142,8.2884,8.2738,8.2716,8.2738,8.2738,8.2716,8.267,8.2741,8.2997,8.3207,8.3172,8.2997,8.2916,8.2743,8.258,8.251,8.251,8.251,8.251,8.251,8.251,8.2465,8.2442,8.2373,8.2118,8.1918,8.1894,8.1847,8.1871,8.1881,8.1858,8.18,8.18,8.1776,8.1776,8.1776,8.1776,8.1948,8.2155,8.2911,8.3709,8.4506,8.5382,8.5834,8.2556,8.2579,8.2533,8.2785,8.3059,8.3059,8.3534,8.4287,8.4357,8.465,8.5024,8.4661,8.438,8.4284,8.3709,8.3279,8.3314,8.3244,8.3186,8.3164,8.3164,8.3186,8.3208,8.3208,8.3231,8.3253,8.3231,8.3231,8.3275,8.3486,8.3595,8.3638,8.3754,8.3819,8.3847,8.384,8.3883,8.3826,8.384,8.3826,8.3869,8.3755,8.3698,8.3684,8.3684,8.2856,8.1145,8.111,8.1202,8.1145,8.1088,8.0961,8.1207,8.1699,8.2085,8.219,8.2717,8.3103,8.3173,8.3138,8.3081,8.3244,8.3244,8.3349,8.3384,8.3349,8.3349,8.3349,8.3244,8.3208,8.3208,8.3164,8.312,8.3186,8.319,8.326,8.3225,8.3091,8.3223,8.3912,8.4333,8.4507,8.4135,8.3902,8.3601,8.3055,8.2811,8.2776,8.2799,8.2729,8.2556,8.2556,8.2625,8.2693,8.2602,8.2488,8.2326,8.2222,8.2118,8.2129,8.2035,8.1988,8.1941,8.1918,8.1834,8.181,8.1845,8.1914,8.2293,8.2638,8.3511,8.4269,8.4949,8.5604,8.6018,8.3965,8.3472,8.3437,8.3833,8.4335,8.4238,8.4638,8.5387,8.523,8.537,8.5669,8.5515,8.5534,8.5504,8.489,8.4502,8.4466,8.395,8.3516,8.3288,8.3208,8.3208,8.3208,8.3208,8.331,8.3486,8.3625,8.3689,8.3689,8.3789,8.3797,8.3819,8.3918,8.3904,8.3961,8.3869,8.3869,8.3869,8.3869,8.3869,8.3869,8.3925,8.3925,8.3869,8.3869,8.3557,8.3005,8.2948,8.2948,8.2913,8.2833,8.2659,8.2563,8.2717,8.2857,8.2857,8.3068,8.3489,8.3959,8.4051,8.4262,8.4648,8.4753,8.4788,8.4718,8.4297,8.4029,8.3923,8.3537,8.3208,8.3208,8.3208,8.3279,8.3208,8.37,8.4016,8.4064,8.4405,8.4745,8.4956,8.5168,8.5168,8.5085,8.4947,8.4784,8.4469,8.4049,8.3804,8.3734,8.3361,8.2986,8.2986,8.2986,8.3129,8.3223,8.3283,8.3192,8.287,8.265,8.2338,8.2245,8.2176,8.2129,8.2046,8.1963,8.1938,8.1983,8.2259,8.2707,8.3225,8.4018,8.4604,8.5121,8.5639,8.6122,8.5344,8.4904,8.4904,8.5123,8.5533,8.5344,8.5724,8.6373,8.6252,8.6473,8.6797,8.6572,8.6555,8.6524,8.5887,8.5568,8.5462,8.5002,8.4638,8.4256,8.3613,8.3472,8.3472,8.3472,8.3538,8.3774,8.4158,8.4329,8.4364,8.4719,8.4904,8.4904,8.4968,8.5067,8.5011,8.5011,8.4904,8.4656,8.4641,8.4442,8.4229,8.4158,8.4158,8.4158,8.4158,8.4158,8.4158,8.4158,8.4074,8.3925,8.3754,8.3625,8.3472,8.3719,8.3895,8.3965,8.4212,8.4621,8.5057,8.515,8.5224,8.5579,8.5649,8.5581,8.5466,8.4999,8.4823,8.4718,8.4402,8.4051,8.4086,8.4086,8.4051,8.4051,8.4204,8.4543,8.4801,8.5491,8.5912,8.5994,8.624,8.6193,8.6017,8.5947,8.5807,8.5526,8.5104,8.4823,8.4718,8.438,8.4156,8.4016,8.4182,8.4229,8.4112,8.4089,8.4067,8.3641,8.325,8.2753,8.2419,8.2396,8.235,8.2326,8.223,8.2458,8.2537,8.2983,8.3442,8.4018,8.4535,8.5052,8.557,8.5915,8.6294,8.6674,8.6674,8.6639,8.6553,8.6522,8.6421,8.6824,8.744,8.7444,8.7834,8.8246,8.7772,8.7511,8.7334,8.6797,8.6478,8.6377,8.6244,8.6137,8.5739,8.4938,8.428,8.4229,8.4286,8.4329,8.435,8.4925,8.5208,8.5308,8.6012,8.6596,8.6418,8.6496,8.6801,8.6581,8.6801,8.6367,8.5867,8.5817,8.546,8.4869,8.4818,8.4818,8.4818,8.4833,8.4869,8.4905,8.4884,8.4596,8.4117,8.4195,8.4258,8.4258,8.4789,8.5113,8.5149,8.5887,8.6113,8.6311,8.6281,8.6285,8.6306,8.6319,8.5925,8.5956,8.5805,8.5606,8.5561,8.5385,8.535,8.5315,8.5315,8.535,8.5455,8.5104,8.5082,8.5596,8.6368,8.6684,8.686,8.7375,8.762,8.6825,8.6754,8.6439,8.6017,8.5736,8.5596,8.5526,8.5385,8.542,8.5315,8.5069,8.4964,8.4788,8.4788,8.4743,8.4523,8.4141,8.376,8.3251,8.317,8.3137,8.301,8.288,8.305,8.3276,8.3746,8.4215,8.4673,8.5156,8.5604,8.5915,8.6191,8.6294,8.7884,8.7367,8.7331,8.7648,8.8025,8.7764,8.8042,8.8675,8.8437,8.8486,8.8717,8.8597,8.8601,8.8697,8.7971,8.7614,8.7486,8.7023,8.6738,8.6688,8.6404,8.5941,8.5747,8.5798,8.5849,8.587,8.6155,8.6418,8.6439,8.6767,8.6895,8.6809,8.6994,8.6965,8.6894,8.7001,8.6822,8.6644,8.6608,8.6537,8.6287,8.6216,8.6323,8.6287,8.6251,8.6251,8.6287,8.6323,8.5876,8.5124,8.56,8.5834,8.5633,8.5859,8.6001,8.6072,8.6249,8.6581,8.7006,8.7135,8.7338,8.7837,8.7709,8.7773,8.751,8.6994,8.6622,8.6367,8.5912,8.5584,8.5561,8.5561,8.5771,8.6263,8.6158,8.6298,8.6988,8.7445,8.7585,8.762,8.7761,8.7726,8.762,8.748,8.741,8.7129,8.6719,8.6403,8.6333,8.6017,8.5912,8.5631,8.542,8.5455,8.542,8.542,8.5385,8.5315,8.5142,8.5084,8.4737,8.4575,8.4576,8.4507,8.4145,8.4164,8.4274,8.4533,8.4944,8.5353,8.5673,8.6018,8.6122,8.6294,8.6294,8.928,8.8847,8.8847,8.9095,8.9349,8.9053,8.9156,8.9471,8.9306,8.9241,8.9371,8.9371,8.9436,8.9528,8.8978,8.8721,8.8628,8.8185,8.7964,8.7907,8.7907,8.7365,8.6788,8.6696,8.6703,8.6795,8.7187,8.7372,8.7443,8.7714,8.7871,8.7943,8.7929,8.7929,8.7979,8.7893,8.7714,8.7465,8.7393,8.7286,8.6929,8.6894,8.6894,8.6894,8.6894,8.6894,8.6929,8.7215,8.6973,8.6332,8.6453,8.6674,8.6602,8.69,8.7043,8.7078,8.7327,8.7789,8.8073,8.8179,8.8326,8.865,8.8734,8.86,8.8313,8.795,8.7647,8.7313,8.688,8.6659,8.6532,8.6532,8.6719,8.7129,8.7234,8.741,8.7866,8.7831,8.7866,8.7901,8.7901,8.7901,8.7901,8.7901,8.7901,8.7796,8.7445,8.7246,8.7141,8.6684,8.6426,8.6321,8.6321,8.6497,8.6567,8.6567,8.6497,8.6356,8.6228,8.6216,8.5796,8.5634,8.5402,8.5263,8.5216,8.5188,8.5229,8.5371,8.5674,8.6014,8.6216,8.626,8.6294,8.6294,8.6294,9.0621,9.0641,9.0661,9.0578,9.036,9.0151,8.9991,9.0027,8.9959,8.9917,8.9938,8.998,8.9917,8.998,8.9563,8.9571,8.9514,8.9157,8.9178,8.9085,8.8977,8.8435,8.7472,8.7401,8.7386,8.7422,8.7964,8.8178,8.8321,8.8892,8.9192,8.9049,8.912,8.9227,8.9013,8.912,8.8856,8.8321,8.8214,8.7964,8.7536,8.7465,8.7465,8.7465,8.7429,8.7429,8.7536,8.7821,8.7871,8.7215,8.7143,8.7279,8.7315,8.7907,8.8264,8.8456,8.8934,8.9326,8.9548,8.9554,8.9497,8.9427,8.9334,8.9081,8.9079,8.8906,8.8628,8.8296,8.8226,8.7899,8.7702,8.7761,8.7726,8.7761,8.7796,8.7866,8.7901,8.7901,8.7901,8.7901,8.7901,8.7901,8.7901,8.7901,8.7901,8.7901,8.7691,8.7656,8.762,8.741,8.7339,8.7445,8.7515,8.7691,8.7726,8.7726,8.762,8.7515,8.7375,8.7164,8.6474,8.6194,8.5915,8.5776,8.6113,8.6168,8.6046,8.6259,8.6434,8.639,8.6434,8.6369,8.6294,8.6294,8.6294,9.0936,9.1072,9.1072,9.1053,9.0956,9.0657,9.0477,9.0457,9.0167,9.0063,9.0001,9.0001,9.0022,9.0001,8.9755,8.9607,8.9607,8.9428,8.9299,8.9299,8.9299,8.9156,8.8728,8.8678,8.8692,8.8728,8.887,8.9035,8.9106,8.912,8.9299,8.9299,8.9299,8.9299,8.9299,8.9299,8.9227,8.9049,8.9035,8.8892,8.8749,8.8621,8.8621,8.8621,8.8656,8.8728,8.8799,8.8942,8.8942,8.8799,8.8763,8.8785,8.8763,8.8942,8.9356,8.9784,9.007,9.0462,9.0926,9.094,9.1047,9.0838,9.078,9.0927,9.0702,9.0053,8.9637,8.9163,8.8601,8.8333,8.8053,8.7901,8.7972,8.8042,8.8007,8.8007,8.7901,8.7901,8.7901,8.7901,8.7901,8.7901,8.7901,8.7901,8.7901,8.7901,8.7901,8.7901,8.7901,8.7901,8.7901,8.7901,8.7901,8.7901,8.7901,8.7901,8.7901,8.7901,8.7901,8.7866,8.7199,8.6988,8.6778,8.6931,8.7234,8.7115,8.6749,8.6744,8.6877,8.6765,8.6593,8.6494,8.6419,8.6369,8.6294,9.1168,9.1339,9.1358,9.1358,9.1301,9.1014,9.0819,9.0701,9.0537,9.0376,9.0295,9.0274,9.0274,9.0233,8.9944,8.9776,8.9692,8.945,8.9299,8.9299,8.9299,8.9299,8.9299,8.9299,8.9299,8.9299,8.9263,8.9299,8.9299,8.9299,8.9299,8.9299,8.9299,8.9299,8.9299,8.9299,8.9299,8.9263,8.9299,8.9299,8.9299,8.9299,8.9299,8.9299,8.9299,8.9299,8.9263,8.9691,8.982,8.9927,9.0155,9.019,9.0012,9.0155,9.0583,9.089,9.1033,9.114,9.1497,9.1604,9.1511,9.164,9.1604,9.1537,9.1412,9.1011,9.0712,9.031,8.9785,8.9247,8.8545,8.8885,8.8814,8.8569,8.8721,8.8955,8.885,8.8358,8.7901,8.7901,8.7901,8.7901,8.7901,8.7901,8.7901,8.7901,8.7901,8.7901,8.7901,8.7901,8.7901,8.7901,8.7901,8.7901,8.7901,8.7901,8.7901,8.7901,8.7901,8.7901,8.762,8.7656,8.7761,8.7738,8.7667,8.7573,8.7313,8.7322,8.7213,8.696,8.6789,8.6642,8.6553,8.6513,8.6413,9.1339,9.1508,9.1546,9.1564,9.149,9.1301,9.1091,9.0956,9.0878,9.0661,9.0601,9.0618,9.0537,9.0457,9.0167,9.0001,8.9791,8.9536,8.9299,8.9299,8.9299,8.9299,8.9299,8.9299,8.9299,8.9299,8.9299,8.9299,8.9299,8.9299,8.9299,8.9299,8.9299,8.9299,8.9299,8.9299,8.9299,8.9299,8.9299,8.9299,8.9299,8.9299,8.9299,8.9299,8.9548,8.9584,8.9784,9.0212,9.0641,9.0712,9.139,9.139,9.1176,9.1212,9.1711,9.1747,9.1783,9.1961,9.2211,9.2139,9.2139,9.1961,9.2032,9.2032,9.2046,9.1881,9.1639,9.1341,9.0854,9.0188,8.9389,8.9598,8.9669,8.9458,8.9809,9.016,8.9985,8.8966,8.8498,8.8112,8.8007,8.7901,8.7901,8.7901,8.7901,8.7901,8.7901,8.7901,8.7901,8.7901,8.7901,8.7901,8.7901,8.7901,8.7901,8.7901,8.7901,8.7901,8.7901,8.7901,8.7901,8.7901,8.7901,8.7901,8.7796,8.7737,8.769,8.7619,8.7453,8.7213,8.7103,8.7016,8.6879,8.6691,8.6695,9.132,9.1527,9.1694,9.1749,9.1694,9.1322,9.1187,9.111,9.0799,9.0621,9.0601,9.0618,9.0517,9.0335,9.0146,8.9812,8.9536,8.9342,8.9299,8.9299,8.9299,8.9299,8.9299,8.9299,8.9299,8.9299,8.9299,8.9299,8.9299,8.9299,8.9299,8.9299,8.9299,8.9299,8.9299,8.9299,8.9299,8.9299,8.9299,8.9299,8.9299,8.937,8.9477,8.957,9.0034,9.0248,9.0462,9.0997,9.1426,9.1497,9.2175,9.2425,9.2282,9.1961,9.2068,9.2461,9.2603,9.2782,9.321,9.346,9.3531,9.3625,9.3447,9.346,9.3353,9.296,9.2539,9.2052,9.1351,9.0493,9.0067,9.0301,9.0195,9.009,9.0219,9.0419,9.0349,9.0021,8.9518,8.9014,8.8498,8.7901,8.7901,8.7901,8.7901,8.7901,8.7901,8.7901,8.7901,8.7901,8.7901,8.7901,8.7901,8.7901,8.7901,8.7901,8.7901,8.7901,8.7901,8.7901,8.7901,8.7901,8.7901,8.7901,8.7901,8.7855,8.7831,8.7808,8.769,8.7477,8.7427,8.7412,8.7398,8.7404,8.7713,9.1168,9.1358,9.1471,9.149,9.1471,9.1301,9.1149,9.1033,9.0839,9.0681,9.0621,9.0618,9.0497,9.0295,9.0105,8.9749,8.9407,8.9299,8.9299,8.9299,8.9299,8.9299,8.932,8.932,8.9299,8.9299,8.9299,8.932,8.9299,8.9299,8.9299,8.9299,8.9299,8.9299,8.9299,8.9299,8.9299,8.9299,8.9334,8.9334,8.9406,8.9677,9.007,9.0534,9.0783,9.1033,9.1212,9.1818,9.2211,9.2389,9.2983,9.3317,9.3281,9.3139,9.296,9.3281,9.3388,9.3518,9.3911,9.4018,9.3946,9.3982,9.4018,9.4018,9.3946,9.358,9.3229,9.2776,9.2483,9.1551,9.0875,9.1132,9.1216,9.1101,9.129,9.1549,9.1609,9.1351,9.0728,8.9976,8.9202,8.8534,8.7901,8.7901,8.7901,8.7901,8.7901,8.7901,8.7901,8.7901,8.7901,8.7901,8.7901,8.7901,8.7901,8.7901,8.7901,8.7901,8.7901,8.7901,8.7901,8.7901,8.7901,8.7901,8.7901,8.7901,8.7901,8.7855,8.7749,8.7784,8.7933,8.802,8.8052,8.8187,8.8521,9.0995,9.1149,9.1187,9.1206,9.1206,9.1132,9.1053,9.0917,9.0839,9.072,9.0637,9.0618,9.0497,9.0274,8.9986,8.9685,8.932,8.9342,8.935,8.9371,8.9471,8.9471,8.945,8.945,8.9493,8.9572,8.9801,8.955,8.932,8.9299,8.9299,8.9299,8.9299,8.9299,8.9299,8.9548,8.9477,8.9584,8.9749,8.9762,8.9963,9.0391,9.0962,9.1568,9.1747,9.1854,9.1925,9.2603,9.3018,9.3197,9.359,9.3982,9.3982,9.3982,9.4018,9.4018,9.4018,9.4018,9.4018,9.4018,9.4018,9.4018,9.4018,9.4018,9.3982,9.3901,9.3705,9.3333,9.312,9.2659,9.1826,9.2164,9.2286,9.2161,9.2492,9.2941,9.2789,9.2448,9.1882,9.1022,9.0012,8.9108,8.8346,8.7983,8.7983,8.7925,8.7901,8.7901,8.7901,8.7901,8.7901,8.7901,8.7901,8.7901,8.7901,8.7901,8.7901,8.7901,8.7901,8.7901,8.7901,8.7901,8.7901,8.7936,8.7901,8.7901,8.7901,8.7972,8.803,8.817,8.8472,8.8829,8.9144,8.9279,8.9435,9.0917,9.0956,9.113,9.1206,9.1168,9.1014,9.0936,9.0878,9.0701,9.0621,9.0618,9.0618,9.0461,9.0254,8.986,8.9543,8.945,8.9479,8.9564,8.9586,8.9734,8.9854,8.9932,8.9917,8.9998,9.012,9.0644,9.0237,8.9865,8.9599,8.9449,8.9542,8.9635,8.9413,8.9764,9.0214,9.0355,9.0484,9.0984,9.1247,9.1283,9.139,9.1568,9.1854,9.2282,9.2639,9.271,9.334,9.3732,9.3804,9.3911,9.4018,9.4018,9.4018,9.4018,9.4018,9.4018,9.4018,9.4018,9.4018,9.4018,9.4018,9.4018,9.4018,9.4018,9.3995,9.3776,9.3262,9.3215,9.2965,9.2451,9.2627,9.2748,9.2823,9.2966,9.3167,9.3191,9.325,9.2694,9.2068,9.1068,8.9751,8.8706,8.8402,8.8098,8.7983,8.7901,8.789,8.7901,8.7901,8.7901,8.7901,8.7901,8.7901,8.7901,8.7901,8.7901,8.7901,8.7901,8.7901,8.7936,8.7972,8.8007,8.8042,8.8042,8.8217,8.8393,8.8463,8.8393,8.8697,8.9198,8.9849,9.0472,9.0504,9.0351,9.072,9.072,9.0819,9.0858,9.0839,9.076,9.072,9.0701,9.0621,9.0618,9.0618,9.0618,9.0497,9.0254,8.9944,8.9812,8.9728,8.9755,8.9818,8.989,8.9995,9.0058,9.0145,9.0432,9.0684,9.0906,9.1331,9.1627,9.1075,9.0982,9.0982,9.0925,9.0961,9.1111,9.081,9.1283,9.1484,9.157,9.177,9.2076,9.2353,9.2407,9.2496,9.2924,9.3246,9.3411,9.3554,9.3732,9.4018,9.4018,9.4018,9.4018,9.4018,9.4018,9.4018,9.4018,9.4018,9.4018,9.4018,9.4018,9.4018,9.4018,9.4018,9.4018,9.4018,9.3995,9.3776,9.3262,9.3215,9.3024,9.2795,9.2854,9.3071,9.3203,9.331,9.3474,9.3567,9.3602,9.3386,9.2771,9.2085,9.0837,8.9591,8.8934,8.855,8.8144,8.8029,8.7983,8.7936,8.7901,8.7901,8.7901,8.7901,8.7901,8.7901,8.7901,8.7901,8.7901,8.7936,8.7972,8.8042,8.8077,8.8358,8.8744,8.9037,8.9107,8.9095,8.899,8.892,8.9423,9.002,9.0541,9.106,9.1216,9.1062,9.0618,9.0618,9.0618,9.0618,9.0618,9.0618,9.0618,9.0618,9.0618,9.0618,9.0618,9.0618,9.0497,9.0315,9.0131,9.0042,9.0001,9.0063,9.0228,9.0321,9.047,9.0656,9.1057,9.1484,9.1664,9.168,9.2484,9.2731,9.2839,9.2868,9.2847,9.2381,9.1972,9.2101,9.2266,9.246,9.2655,9.2956,9.2884,9.3061,9.3331,9.3305,9.3479,9.3791,9.3982,9.4018,9.4018,9.4018,9.4018,9.4018,9.4018,9.4018,9.4018,9.4018,9.4018,9.4018,9.4018,9.4018,9.4018,9.4018,9.4018,9.4018,9.4018,9.4018,9.4018,9.3959,9.3822,9.3357,9.3333,9.3227,9.306,9.3036,9.325,9.3463,9.365,9.3812,9.3949,9.3868,9.3774,9.3382,9.273,9.2125,9.0934,8.9791,8.9057,8.8444,8.8213,8.8098,8.8006,8.789,8.7901,8.7901,8.7901,8.7901,8.7901,8.7901,8.7901,8.8042,8.8077,8.8217,8.8393,8.8791,8.9212,8.9598,8.9949,9.009,9.0044,8.9739,8.9528,9.0125,9.0722,9.107,9.146,9.1615,9.1565,9.0618,9.0618,9.0618,9.0618,9.0618,9.0618,9.0618,9.0618,9.0618,9.0618,9.0618,9.0618,9.0497,9.0356,9.0295,9.0172,9.0042,9.0192,9.0687,9.1202,9.1614,9.1924,9.2321,9.2574,9.2869,9.2977,9.3551,9.397,9.4156,9.4455,9.3744,9.2624,9.2847,9.2531,9.2711,9.333,9.3834,9.4136,9.4194,9.4112,9.4159,9.4061,9.4079,9.3969,9.4018,9.4018,9.4018,9.4018,9.4018,9.4018,9.4018,9.4018,9.4018,9.4018,9.4018,9.4018,9.4018,9.4018,9.4018,9.4018,9.4018,9.4018,9.4018,9.4018,9.4018,9.4018,9.3858,9.3603,9.351,9.3439,9.3333,9.3357,9.3486,9.365,9.3812,9.3904,9.3972,9.3995,9.3865,9.3745,9.3307,9.2646,9.2044,9.0867,8.9769,8.9144,8.8295,8.8144,8.8006,8.7913,8.789,8.7901,8.7901,8.7901,8.7901,8.7972,8.8182,8.8463,8.8674,8.8791,8.9001,8.9458,9.009,9.0265,9.0546,9.0757,9.0968,9.0722,9.0687,9.1003,9.1365,9.1632,9.1729,9.183,9.1676,9.078,9.076,9.0677,9.0618,9.0618,9.0618,9.0618,9.0618,9.0618,9.0618,9.0618,9.0618,9.0578,9.0517,9.0497,9.0457,9.0448,9.1015,9.1381,9.1763,9.2243,9.2698,9.3096,9.3494,9.3748,9.3893,9.4529,9.4927,9.5,9.5253,9.5067,9.4377,9.4039,9.4226,9.4407,9.4343,9.4761,9.4899,9.4972,9.4763,9.4565,9.4366,9.4209,9.4005,9.4018,9.4018,9.4018,9.4018,9.4018,9.4018,9.4018,9.4018,9.4018,9.4018,9.4018,9.4018,9.4018,9.4018,9.4018,9.4018,9.4018,9.4018,9.4018,9.4018,9.4018,9.4018,9.3881,9.3719,9.3626,9.3521,9.3497,9.3556,9.365,9.3812,9.3926,9.3995,9.4018,9.4018,9.3937,9.3807,9.3514,9.3079,9.2476,9.1874,9.0799,8.9785,8.8901,8.8167,8.8052,8.7936,8.789,8.7901,8.7901,8.8007,8.8042,8.8288,8.8545,8.892,8.9236,8.9493,8.9774,9.0371,9.0862,9.1003,9.1213,9.1564,9.174,9.1705,9.174,9.181,9.1926,9.2088,9.2125,9.208,9.1803,9.0631,9.0628,9.0651,9.0677,9.0618,9.0618,9.0618,9.0618,9.0618,9.0618,9.0618,9.0618,9.0618,9.0618,9.0618,9.0618,9.0795,9.1322,9.1829,9.2372,9.2915,9.3443,9.3841,9.4203,9.4565,9.471,9.5,9.5362,9.529,9.5362,9.5269,9.5269,9.5398,9.5269,9.5269,9.5419,9.5419,9.5356,9.5214,9.4936,9.4733,9.4521,9.4254,9.405,9.4018,9.4018,9.4018,9.4018,9.4018,9.4018,9.4018,9.4018,9.4018,9.4018,9.4018,9.4018,9.4018,9.4018,9.4018,9.4018,9.4018,9.4018,9.4018,9.4018,9.4018,9.4018,9.3926,9.3812,9.3742,9.3684,9.3684,9.3765,9.3812,9.3949,9.3949,9.4018,9.4018,9.3995,9.3891,9.3786,9.3529,9.3283,9.2824,9.2187,9.1158,9.0168,8.9361,8.8566,8.8144,8.8006,8.789,8.7901,8.7901,8.8042,8.8217,8.8604,8.8966,8.9563,8.9914,9.0301,9.0687,9.1273,9.1624,9.1705,9.1986,9.2372,9.2372,9.2126,9.2232,9.2407,9.2418,9.2358,9.2294,9.218,9.198,9.002,9.0074,9.0592,9.0724,9.0529,9.0618,9.0618,9.0618,9.0618,9.0618,9.0581,9.0601,9.0621,9.0621,9.0661,9.0773,9.1043,9.1676,9.2365,9.3146,9.3887,9.4571,9.4948,9.5202,9.5109,9.5326,9.5419,9.5419,9.5419,9.5419,9.5419,9.5419,9.5419,9.5419,9.5419,9.5419,9.5419,9.5398,9.5398,9.5123,9.4806,9.4653,9.4388,9.4141,9.4018,9.4018,9.4018,9.4018,9.4018,9.4018,9.4018,9.4018,9.4018,9.4018,9.4018,9.4018,9.4018,9.4018,9.4018,9.4018,9.4018,9.4018,9.4018,9.4018,9.4018,9.4018,9.4018,9.3904,9.3926,9.3949,9.3972,9.3972,9.3995,9.3995,9.3995,9.4018,9.4018,9.3904,9.3776,9.366,9.3626,9.3439,9.3026,9.2424,9.1363,9.0444,8.9728,8.9083,8.8543,8.8087,8.7925,8.8007,8.8042,8.8358,8.8604,8.8966,8.9423,9.0055,9.0652,9.1108,9.1424,9.181,9.2126,9.2337,9.2407,9.2477,9.2512,9.2477,9.2512,9.2512,9.2512,9.2453,9.2379,9.2304,9.2105,8.9404,8.9441,8.9905,9.0076,9.007,9.046,9.0618,9.0618,9.0618,9.0618,9.0621,9.072,9.0799,9.0819,9.0953,9.123,9.1812,9.2652,9.3432,9.414,9.4818,9.5228,9.5514,9.5482,9.5419,9.5419,9.5419,9.5419,9.5419,9.5419,9.5419,9.5419,9.5419,9.5419,9.5419,9.5419,9.5419,9.5419,9.5377,9.5214,9.4915,9.4777,9.4557,9.4209,9.4073,9.3982,9.4018,9.4018,9.4018,9.4018,9.4018,9.4018,9.4018,9.4018,9.4018,9.4018,9.4018,9.4018,9.4018,9.4018,9.4018,9.4018,9.4018,9.4018,9.4018,9.4018,9.4018,9.4018,9.4018,9.4018,9.3995,9.3995,9.3995,9.3995,9.4018,9.4018,9.3972,9.3776,9.3637,9.3533,9.3416,9.3131,9.275,9.2633,9.1752,9.0987,9.0329,8.9718,8.9107,8.8346,8.7936,8.8147,8.8288,8.8639,8.9001,8.9633,9.0195,9.0827,9.1459,9.1986,9.2267,9.2337,9.2372,9.2442,9.2477,9.2512,9.2512,9.2512,9.2512,9.2512,9.2512,9.2512,9.2463,9.2414,9.2304,8.8781,8.8855,8.9528,8.983,8.9882,9.0374,9.0618,9.0637,9.0661,9.0701,9.074,9.0917,9.1014,9.1053,9.1166,9.1352,9.2118,9.3139,9.3686,9.4541,9.5405,9.5611,9.5654,9.555,9.5467,9.544,9.5419,9.5419,9.5419,9.5419,9.5419,9.5419,9.5419,9.5419,9.5419,9.5419,9.5419,9.5419,9.5377,9.5257,9.5001,9.4784,9.4565,9.4321,9.4118,9.4018,9.4018,9.4018,9.4018,9.4018,9.4018,9.4018,9.4018,9.4018,9.4018,9.4018,9.4018,9.4018,9.4018,9.4018,9.4018,9.4018,9.4018,9.4018,9.4018,9.4018,9.4018,9.4018,9.4018,9.4018,9.4018,9.4018,9.4018,9.4018,9.3995,9.3995,9.3835,9.365,9.3463,9.3345,9.3155,9.2819,9.2551,9.254,9.2238,9.1547,9.0891,9.0364,8.9788,8.9061,8.8498,8.8674,8.8966,8.9458,8.9949,9.0511,9.1073,9.1659,9.2056,9.2477,9.2477,9.2407,9.2477,9.2512,9.2512,9.2512,9.2512,9.2512,9.2512,9.2512,9.2512,9.2512,9.2512,9.2488,9.2438,8.8169,8.8374,8.9495,8.9966,9.0073,9.0472,9.0641,9.0621,9.0819,9.0917,9.0917,9.113,9.1225,9.1225,9.1244,9.1392,9.1812,9.309,9.3711,9.4312,9.544,9.5701,9.5777,9.5674,9.5529,9.5461,9.5419,9.5419,9.5419,9.5419,9.5419,9.5419,9.5419,9.5419,9.5419,9.5419,9.5419,9.5419,9.5398,9.5257,9.5087,9.485,9.4631,9.441,9.4186,9.405,9.4005,9.4018,9.4018,9.4018,9.4018,9.4018,9.4018,9.4018,9.4018,9.4018,9.4018,9.4018,9.4018,9.4018,9.4018,9.4018,9.4018,9.4018,9.4018,9.4018,9.4018,9.4018,9.4018,9.4018,9.4018,9.4018,9.4018,9.3995,9.3972,9.3858,9.3673,9.3486,9.3274,9.3108,9.294,9.2733,9.2586,9.2467,9.2432,9.2164,9.164,9.1312,9.0738,9.0069,8.9657,8.9669,9.002,9.0441,9.0897,9.1248,9.1635,9.2056,9.2196,9.2512,9.2512,9.2512,9.2512,9.2512,9.2512,9.2512,9.2512,9.2512,9.2512,9.2512,9.2512,9.2512,9.2512,9.2512,9.2488,8.7692,8.8244,8.9038,8.9697,9.0244,9.0821,9.0956,9.0858,9.1033,9.113,9.113,9.1339,9.1416,9.1433,9.1583,9.1986,9.2701,9.358,9.4386,9.5061,9.5531,9.5901,9.5866,9.5631,9.5555,9.5446,9.5347,9.5326,9.5419,9.5419,9.5419,9.5419,9.5419,9.5419,9.5419,9.5419,9.5419,9.5419,9.5419,9.5356,9.5214,9.5001,9.4784,9.4543,9.4298,9.4164,9.4005,9.4018,9.4018,9.4018,9.4018,9.4018,9.4018,9.4018,9.4018,9.4018,9.4018,9.4018,9.4018,9.4018,9.4018,9.4018,9.4018,9.4018,9.4018,9.4018,9.4018,9.4018,9.4018,9.4018,9.4018,9.4018,9.4018,9.3995,9.3904,9.3719,9.3533,9.3298,9.3119,9.2916,9.2746,9.2684,9.2537,9.2477,9.2467,9.2407,9.2291,9.1989,9.1662,9.0957,9.0652,9.0652,9.0827,9.1178,9.1389,9.1705,9.2056,9.2407,9.2477,9.2512,9.2512,9.2512,9.2512,9.2512,9.2512,9.2512,9.2512,9.2512,9.2512,9.2512,9.2512,9.2512,9.2512,9.2547,9.2512,8.7472,8.8225,8.8854,8.9715,9.0646,9.112,9.1282,9.1282,9.1396,9.1452,9.149,9.1712,9.1822,9.1767,9.1895,9.2133,9.2519,9.3271,9.3932,9.4298,9.5341,9.5204,9.5154,9.5045,9.4915,9.4933,9.5042,9.5036,9.529,9.5419,9.5419,9.5419,9.5419,9.5419,9.5419,9.5419,9.5419,9.5419,9.5419,9.5419,9.5314,9.5151,9.4915,9.4675,9.4455,9.4231,9.4028,9.4018,9.4018,9.4018,9.4018,9.4018,9.4018,9.4018,9.4018,9.4018,9.4018,9.4018,9.4018,9.4018,9.4018,9.4018,9.4018,9.4018,9.4018,9.4018,9.4018,9.4018,9.4018,9.4018,9.4018,9.4018,9.4018,9.4018,9.3788,9.358,9.3345,9.3119,9.2951,9.2746,9.2624,9.2562,9.2512,9.2512,9.2477,9.2477,9.2442,9.2361,9.2175,9.1835,9.1564,9.1564,9.1635,9.1845,9.1986,9.2056,9.2267,9.2477,9.2477,9.2512,9.2512,9.2512,9.2512,9.2512,9.2512,9.2512,9.2512,9.2512,9.2512,9.2512,9.2547,9.2653,9.2688,9.2653,9.2618,8.7491,8.8372,8.9055,9.0154,9.1174,9.1472,9.1675,9.184,9.1876,9.1858,9.193,9.2215,9.2233,9.2091,9.2109,9.2002,9.2371,9.2941,9.3382,9.3198,9.4244,9.4479,9.4214,9.3784,9.4273,9.4382,9.4508,9.4783,9.5253,9.5419,9.5419,9.5419,9.5419,9.5419,9.5419,9.5419,9.5419,9.5419,9.5419,9.5398,9.532,9.5151,9.4936,9.4755,9.4499,9.4276,9.4073,9.4005,9.4018,9.4018,9.4018,9.4018,9.4018,9.4018,9.4018,9.4018,9.4018,9.4018,9.4018,9.4018,9.4018,9.4018,9.4018,9.4018,9.4018,9.4018,9.4018,9.4018,9.4018,9.4018,9.4018,9.3995,9.3995,9.3858,9.365,9.3416,9.3179,9.2975,9.2781,9.2635,9.2551,9.2512,9.2512,9.2512,9.2512,9.2512,9.2512,9.2512,9.2442,9.2302,9.2232,9.2161,9.2161,9.2196,9.2267,9.2337,9.2407,9.2512,9.2512,9.2512,9.2512,9.2512,9.2512,9.2512,9.2512,9.2512,9.2512,9.2512,9.2512,9.2512,9.2618,9.2828,9.2863,9.2758,9.3074,8.7822,8.9253,9.0575,9.1455,9.1839,9.193,9.2056,9.225,9.2444,9.2392,9.2322,9.2338,9.2373,9.232,9.2303,9.2198,9.224,9.2646,9.3088,9.3272,9.3804,9.3821,9.3869,9.3567,9.3935,9.4257,9.4436,9.4695,9.5259,9.544,9.5419,9.5419,9.5419,9.5419,9.5419,9.5419,9.5419,9.5419,9.5419,9.5419,9.5377,9.532,9.5172,9.4936,9.4697,9.4455,9.4254,9.405,9.4041,9.4018,9.4018,9.4018,9.4018,9.4018,9.4018,9.4018,9.4018,9.4018,9.4018,9.4018,9.4018,9.4018,9.4018,9.4018,9.4018,9.4018,9.4018,9.4018,9.4018,9.4018,9.3995,9.3995,9.3926,9.3719,9.3486,9.325,9.3012,9.283,9.2611,9.2562,9.2512,9.2512,9.2512,9.2512,9.2512,9.2512,9.2512,9.2512,9.2512,9.2407,9.2407,9.2372,9.2407,9.2442,9.2512,9.2512,9.2512,9.2512,9.2512,9.2512,9.2512,9.2512,9.2512,9.2512,9.2512,9.2512,9.2512,9.2512,9.2512,9.2512,9.2547,9.2758,9.2828,9.2758,9.3425,8.7932,8.9564,9.1233,9.2002,9.2109,9.218,9.2338,9.253,9.265,9.2684,9.2667,9.265,9.2616,9.2547,9.253,9.2427,9.2307,9.2551,9.2627,9.2831,9.3033,9.2922,9.3011,9.3298,9.3677,9.4061,9.4745,9.5182,9.5472,9.544,9.5419,9.5419,9.5419,9.5419,9.5419,9.5419,9.5419,9.5419,9.5419,9.5419,9.5419,9.5377,9.5257,9.5022,9.4784,9.4565,9.4321,9.4118,9.4041,9.4018,9.4018,9.4018,9.4018,9.4018,9.4018,9.4018,9.4018,9.4018,9.4018,9.4018,9.4018,9.4018,9.4018,9.4018,9.4018,9.4018,9.4018,9.4018,9.4018,9.4018,9.4018,9.3995,9.3858,9.3673,9.3416,9.3155,9.2867,9.2624,9.2562,9.2537,9.2512,9.2512,9.2512,9.2512,9.2512,9.2512,9.2512,9.2512,9.2512,9.2512,9.2512,9.2512,9.2512,9.2512,9.2512,9.2512,9.2512,9.2512,9.2512,9.2512,9.2512,9.2512,9.2512,9.2512,9.2512,9.2512,9.2512,9.2512,9.2512,9.2512,9.2547,9.2653,9.2723,9.2863,9.346,8.7949,8.9617,9.1358,9.2127,9.2198,9.2338,9.2547,9.2701,9.2771,9.2855,9.2955,9.2955,9.2888,9.2768,9.2717,9.2582,9.2481,9.2435,9.2273,9.2167,9.2243,9.2537,9.2739,9.2791,9.3536,9.4368,9.5114,9.5409,9.5654,9.5529,9.5482,9.544,9.5419,9.5419,9.5419,9.5419,9.5419,9.5419,9.5419,9.5419,9.5419,9.5398,9.5257,9.5065,9.4806,9.4587,9.4366,9.4248,9.4148,9.4018,9.4018,9.4018,9.4018,9.4018,9.4018,9.4018,9.4018,9.4018,9.4018,9.4018,9.4018,9.4018,9.4018,9.4018,9.4018,9.4018,9.4018,9.4054,9.4054,9.4054,9.4054,9.3962,9.3837,9.3627,9.3309,9.3047,9.2792,9.2572,9.2512,9.2512,9.2512,9.2512,9.2512,9.2512,9.2512,9.2512,9.2512,9.2512,9.2512,9.2512,9.2512,9.2512,9.2512,9.2512,9.2512,9.2512,9.2512,9.2512,9.2512,9.2512,9.2512,9.2512,9.2512,9.2512,9.2512,9.2512,9.2512,9.2512,9.2512,9.2512,9.2512,9.2583,9.2758,9.2969,9.346,8.8036,8.9774,9.1429,9.2268,9.2565,9.2616,9.2771,9.2922,9.2938,9.2971,9.2988,9.2988,9.2955,9.2938,9.2938,9.2838,9.2616,9.2464,9.2252,9.2147,9.2666,9.2813,9.3033,9.3507,9.4066,9.4806,9.5509,9.5733,9.5838,9.5715,9.555,9.5404,9.5419,9.5419,9.5419,9.5419,9.5419,9.5419,9.5419,9.5419,9.5419,9.5398,9.5362,9.5151,9.4929,9.4719,9.4642,9.4843,9.4528,9.4232,9.4054,9.4054,9.4018,9.4018,9.4018,9.4018,9.4018,9.4018,9.4018,9.4018,9.4018,9.4018,9.4018,9.4018,9.4054,9.4125,9.4161,9.4196,9.4196,9.4209,9.4186,9.4073,9.3911,9.3557,9.327,9.3052,9.2867,9.2688,9.2653,9.2583,9.2547,9.2512,9.2512,9.2512,9.2512,9.2512,9.2512,9.2512,9.2512,9.2512,9.2512,9.2512,9.2512,9.2512,9.2512,9.2512,9.2512,9.2512,9.2512,9.2512,9.2512,9.2512,9.2512,9.2512,9.2512,9.2512,9.2512,9.2512,9.2512,9.2512,9.2512,9.2583,9.2758,9.2934,9.325]}]]